Darstellungsparameter: Aktuell verwendete Einstellungen:
Skalierung der Graphiken ... ?
xyx+y,   Skalierungsfaktor:      Skalierung: Modus: x, Faktor: 1
Darstellungszeitraum ... ?
Vom - - bis: - -   Zeitraum: 16.11.2010 - 15.12.2010
Min/Max/Avg-Anzeige ... ?
Zeige MMA aktuell
Zeige MMA Monat
Zeige MMA alles
Zeige --A aktuell
Zeige --A Monat
Zeige --A alles
Keine MMA-Anzeige
MMA:
Average (ber die Originaldaten)
MMA-Basis: 16.11.2010 - 15.12.2010
Quicknavigation für Darstellung... ?
Tage:      1T, 2T, 3T, 5T -1T -2T -3T -5T +1T +2T +3T +5T
Wochen: 1W, 2W, 3W -1W -2W -3W +1W +2W +3W
Monate: 1M, 3M, 6M -1M -3M -6M +1M +3M +6M
Jahre:    1J, 3J, 5J, 10J -1J -3J -5J -10J +1J +3J +5J +10J
Nutze für die Darstellung ... ?
Originaldaten oder Mittelwerte auf ...
Stundenbasis Tagesbasis Wochenbasis
Monatsbasis Jahresbasis      Datenbasis: Original-Daten
Darstellen als:
Statistik (Auto) Statistik J:M      Darstellung:
Zur Graphik,    zurück zur Übersicht aller Sensoren.
 
Tabellarische Datenbersicht: ?
 
Sensor: Nr:Datum:Temp:Abs-Feuchte:Windchill:Wind:
Aussen-T/F 1 16-11-2010 00:03:01 6.1 C 5.92 g/m*3 6.1 C 0 km/h
2 16-11-2010 00:15:02 6 C 5.95 g/m*3 6 C 0 km/h
3 16-11-2010 00:27:02 6 C 6.02 g/m*3 6 C 0 km/h
4 16-11-2010 00:39:01 5.7 C 5.91 g/m*3 5.7 C 0 km/h
5 16-11-2010 00:51:01 5.6 C 5.94 g/m*3 5.6 C 0 km/h
6 16-11-2010 01:03:01 5.5 C 5.9 g/m*3 5.5 C 0 km/h
7 16-11-2010 01:15:02 5.4 C 5.93 g/m*3 5.4 C 0 km/h
8 16-11-2010 01:27:02 5.2 C 5.85 g/m*3 5.2 C 0 km/h
9 16-11-2010 01:39:01 5 C 5.78 g/m*3 5 C 0 km/h
10 16-11-2010 01:51:02 4.9 C 5.87 g/m*3 4.9 C 0 km/h
11 16-11-2010 02:03:01 5.2 C 5.99 g/m*3 5.2 C 0 km/h
12 16-11-2010 02:15:01 5.3 C 6.03 g/m*3 5.3 C 0 km/h
13 16-11-2010 02:27:01 5.4 C 6.07 g/m*3 5.4 C 0 km/h
14 16-11-2010 02:39:01 5.7 C 6.19 g/m*3 5.7 C 0 km/h
15 16-11-2010 02:52:04 5.8 C 6.23 g/m*3 5.8 C 0 km/h
16 16-11-2010 03:04:04 5.9 C 6.27 g/m*3 5.9 C 0 km/h
17 16-11-2010 03:16:04 6.1 C 6.28 g/m*3 6.1 C 0 km/h
18 16-11-2010 03:28:04 5.9 C 6.27 g/m*3 5.9 C 0 km/h
19 16-11-2010 03:40:02 5.8 C 6.16 g/m*3 5.8 C 0 km/h
20 16-11-2010 03:52:02 5.6 C 6.08 g/m*3 5.6 C 0 km/h
21 16-11-2010 04:04:02 5.3 C 5.89 g/m*3 5.3 C 0 km/h
22 16-11-2010 04:16:02 5 C 5.84 g/m*3 5 C 0 km/h
23 16-11-2010 04:28:02 5.1 C 5.95 g/m*3 5.1 C 0 km/h
24 16-11-2010 04:40:02 5.2 C 5.99 g/m*3 5.2 C 0 km/h
25 16-11-2010 04:52:02 5.5 C 6.18 g/m*3 5.5 C 0 km/h
Sensor: Nr:Datum:Temp:Abs-Feuchte:Windchill:Wind:
Aussen-T/F 26 16-11-2010 05:04:01 5.3 C 6.03 g/m*3 5.3 C 0 km/h
27 16-11-2010 05:16:02 5.2 C 5.99 g/m*3 5.2 C 0 km/h
28 16-11-2010 05:28:02 5.7 C 6.19 g/m*3 5.7 C 0 km/h
29 16-11-2010 05:40:02 5.7 C 6.12 g/m*3 5.7 C 0 km/h
30 16-11-2010 05:52:02 5.6 C 6.01 g/m*3 5.6 C 0 km/h
31 16-11-2010 06:04:02 5.2 C 5.78 g/m*3 5.2 C 0 km/h
32 16-11-2010 06:16:02 5.1 C 5.81 g/m*3 5.1 C 0 km/h
33 16-11-2010 06:28:02 5.2 C 5.85 g/m*3 5.2 C 0 km/h
34 16-11-2010 06:40:03 5.3 C 5.89 g/m*3 5.3 C 0 km/h
35 16-11-2010 06:52:02 5.3 C 5.82 g/m*3 5.3 C 0 km/h
36 16-11-2010 07:04:01 5.2 C 5.78 g/m*3 5.2 C 0 km/h
37 16-11-2010 07:16:02 5.2 C 5.78 g/m*3 5.2 C 0 km/h
38 16-11-2010 07:28:03 5.2 C 5.78 g/m*3 5.2 C 0 km/h
39 16-11-2010 07:40:01 5.1 C 5.75 g/m*3 5.1 C 0 km/h
40 16-11-2010 07:52:01 5.2 C 5.85 g/m*3 5.2 C 0 km/h
41 16-11-2010 08:04:01 5.3 C 5.82 g/m*3 5.3 C 0 km/h
42 16-11-2010 08:16:02 5.4 C 5.86 g/m*3 5.4 C 0 km/h
43 16-11-2010 08:28:02 5.4 C 5.79 g/m*3 5.4 C 0 km/h
44 16-11-2010 08:40:01 5.4 C 5.79 g/m*3 5.4 C 0 km/h
45 16-11-2010 08:52:03 5.6 C 5.87 g/m*3 5.6 C 0 km/h
46 16-11-2010 09:04:02 5.7 C 5.84 g/m*3 5.7 C 0 km/h
47 16-11-2010 09:16:02 5.8 C 5.87 g/m*3 5.8 C 0 km/h
48 16-11-2010 09:28:02 5.9 C 5.84 g/m*3 5.9 C 0 km/h
49 16-11-2010 09:40:02 6 C 5.81 g/m*3 6 C 0 km/h
50 16-11-2010 09:52:02 6 C 5.73 g/m*3 6 C 0 km/h
Sensor: Nr:Datum:Temp:Abs-Feuchte:Windchill:Wind:
Aussen-T/F 51 16-11-2010 10:04:01 5.9 C 5.7 g/m*3 5.9 C 0 km/h
52 16-11-2010 10:16:02 6.2 C 5.81 g/m*3 6.2 C 0 km/h
53 16-11-2010 10:28:02 6.2 C 5.74 g/m*3 6.2 C 0 km/h
54 16-11-2010 10:40:01 6.7 C 5.85 g/m*3 6.7 C 0 km/h
55 16-11-2010 10:52:02 6.3 C 5.63 g/m*3 6.3 C 0 km/h
56 16-11-2010 11:04:02 6.4 C 5.66 g/m*3 6.4 C 0 km/h
57 16-11-2010 11:16:02 6.3 C 5.63 g/m*3 6.3 C 0 km/h
58 16-11-2010 11:28:02 6.8 C 5.74 g/m*3 6.8 C 0 km/h
59 16-11-2010 11:40:02 6.4 C 5.51 g/m*3 6.4 C 0 km/h
60 16-11-2010 11:52:02 6.9 C 5.7 g/m*3 6.9 C 0 km/h
61 16-11-2010 12:04:02 7.4 C 5.65 g/m*3 7.4 C 0 km/h
62 16-11-2010 12:16:01 7.5 C 5.52 g/m*3 7.5 C 0 km/h
63 16-11-2010 12:28:01 7.4 C 5.49 g/m*3 7.4 C 0 km/h
64 16-11-2010 12:40:02 7.1 C 5.46 g/m*3 7.1 C 0 km/h
65 16-11-2010 12:52:02 7.3 C 5.53 g/m*3 7.3 C 0 km/h
66 16-11-2010 13:04:02 7.4 C 5.57 g/m*3 7.4 C 0 km/h
67 16-11-2010 13:16:01 7.5 C 5.6 g/m*3 7.5 C 0 km/h
68 16-11-2010 13:28:01 7.7 C 5.59 g/m*3 7.7 C 0 km/h
69 16-11-2010 13:40:01 7.3 C 5.45 g/m*3 7.3 C 0 km/h
70 16-11-2010 13:52:02 7.8 C 5.71 g/m*3 7.8 C 0 km/h
71 16-11-2010 14:04:01 7.8 C 5.63 g/m*3 7.8 C 0 km/h
72 16-11-2010 14:16:02 7.6 C 5.56 g/m*3 7.6 C 0 km/h
73 16-11-2010 14:28:02 7.8 C 5.55 g/m*3 7.8 C 0 km/h
74 16-11-2010 14:40:02 7.6 C 5.4 g/m*3 7.6 C 0 km/h
75 16-11-2010 14:52:01 7.6 C 5.48 g/m*3 7.6 C 0 km/h
Sensor: Nr:Datum:Temp:Abs-Feuchte:Windchill:Wind:
Aussen-T/F 76 16-11-2010 15:04:02 7.5 C 5.52 g/m*3 7.5 C 0 km/h
77 16-11-2010 15:16:03 7.3 C 5.45 g/m*3 7.3 C 0 km/h
78 16-11-2010 15:28:03 7.2 C 5.49 g/m*3 7.2 C 0 km/h
79 16-11-2010 15:40:01 7.1 C 5.54 g/m*3 7.1 C 0 km/h
80 16-11-2010 15:52:01 7.1 C 5.54 g/m*3 7.1 C 0 km/h
81 16-11-2010 16:04:02 7.1 C 5.54 g/m*3 7.1 C 0 km/h
82 16-11-2010 16:16:01 7.1 C 5.54 g/m*3 7.1 C 0 km/h
83 16-11-2010 16:28:01 7.1 C 5.54 g/m*3 7.1 C 0 km/h
84 16-11-2010 16:40:01 7.1 C 5.54 g/m*3 7.1 C 0 km/h
85 16-11-2010 16:52:02 7 C 5.5 g/m*3 7 C 0 km/h
86 16-11-2010 17:04:02 6.9 C 5.62 g/m*3 6.9 C 0 km/h
87 16-11-2010 17:16:02 6.9 C 5.7 g/m*3 6.9 C 0 km/h
88 16-11-2010 17:28:02 6.8 C 5.66 g/m*3 6.8 C 0 km/h
89 16-11-2010 17:40:02 6.8 C 5.66 g/m*3 6.8 C 0 km/h
90 16-11-2010 17:52:02 6.6 C 5.59 g/m*3 6.6 C 0 km/h
91 16-11-2010 18:04:02 6.5 C 5.62 g/m*3 6.5 C 0 km/h
92 16-11-2010 18:16:02 6 C 5.52 g/m*3 6 C 0 km/h
93 16-11-2010 18:28:02 6.2 C 5.74 g/m*3 6.2 C 0 km/h
94 16-11-2010 18:40:02 6.2 C 5.74 g/m*3 6.2 C 0 km/h
95 16-11-2010 18:52:02 6.2 C 5.74 g/m*3 6.2 C 0 km/h
96 16-11-2010 19:04:02 6.2 C 5.74 g/m*3 6.2 C 0 km/h
97 16-11-2010 19:16:02 5.9 C 5.7 g/m*3 5.9 C 0 km/h
98 16-11-2010 19:28:03 5.9 C 5.77 g/m*3 5.9 C 0 km/h
99 16-11-2010 19:40:01 5.8 C 5.73 g/m*3 5.8 C 0 km/h
100 16-11-2010 19:52:02 5.8 C 5.8 g/m*3 5.8 C 0 km/h
Sensor: Nr:Datum:Temp:Abs-Feuchte:Windchill:Wind:
Aussen-T/F 101 16-11-2010 20:04:01 5.7 C 5.76 g/m*3 5.7 C 0 km/h
102 16-11-2010 20:16:02 5.6 C 5.73 g/m*3 5.6 C 0 km/h
103 16-11-2010 20:28:03 5.5 C 5.69 g/m*3 5.5 C 0 km/h
104 16-11-2010 20:40:01 5.5 C 5.69 g/m*3 5.5 C 0 km/h
105 16-11-2010 20:52:02 5.5 C 5.69 g/m*3 5.5 C 0 km/h
106 16-11-2010 21:04:01 5.4 C 5.65 g/m*3 5.4 C 0 km/h
107 16-11-2010 21:16:01 5.5 C 5.69 g/m*3 5.5 C 0 km/h
108 16-11-2010 21:28:01 5.5 C 5.69 g/m*3 5.5 C 0 km/h
109 16-11-2010 21:40:02 5.4 C 5.65 g/m*3 5.4 C 0 km/h
110 16-11-2010 21:52:02 5.3 C 5.61 g/m*3 5.3 C 0 km/h
111 16-11-2010 22:04:02 5.2 C 5.58 g/m*3 5.2 C 0 km/h
112 16-11-2010 22:16:01 5.2 C 5.58 g/m*3 5.2 C 0 km/h
113 16-11-2010 22:28:01 5.3 C 5.68 g/m*3 5.3 C 0 km/h
114 16-11-2010 22:41:04 5.3 C 5.61 g/m*3 5.3 C 0 km/h
115 16-11-2010 22:53:04 5.2 C 5.58 g/m*3 5.2 C 0 km/h
116 16-11-2010 23:05:04 5.1 C 5.61 g/m*3 5.1 C 0 km/h
117 16-11-2010 23:17:04 4.4 C 5.42 g/m*3 4.4 C 0 km/h
118 16-11-2010 23:29:04 4.4 C 5.55 g/m*3 4.4 C 0 km/h
119 16-11-2010 23:41:04 4.5 C 5.65 g/m*3 4.5 C 0 km/h
120 16-11-2010 23:53:04 4.6 C 5.69 g/m*3 4.6 C 0 km/h
121 17-11-2010 00:05:04 4.7 C 5.73 g/m*3 4.7 C 0 km/h
122 17-11-2010 00:17:04 4.7 C 5.73 g/m*3 4.7 C 0 km/h
123 17-11-2010 00:29:04 4.7 C 5.73 g/m*3 4.7 C 0 km/h
124 17-11-2010 00:41:04 4.8 C 5.7 g/m*3 4.8 C 0 km/h
125 17-11-2010 00:53:04 5 C 5.71 g/m*3 5 C 0 km/h
Sensor: Nr:Datum:Temp:Abs-Feuchte:Windchill:Wind:
Aussen-T/F 126 17-11-2010 01:05:05 5.1 C 5.68 g/m*3 5.1 C 0 km/h
127 17-11-2010 01:17:05 5 C 5.57 g/m*3 5 C 0 km/h
128 17-11-2010 01:29:05 5 C 5.57 g/m*3 5 C 0 km/h
129 17-11-2010 01:41:05 5.1 C 5.61 g/m*3 5.1 C 0 km/h
130 17-11-2010 01:53:05 5.2 C 5.65 g/m*3 5.2 C 0 km/h
131 17-11-2010 02:05:05 5.1 C 5.61 g/m*3 5.1 C 0 km/h
132 17-11-2010 02:17:05 5 C 5.57 g/m*3 5 C 0 km/h
133 17-11-2010 02:29:05 5 C 5.57 g/m*3 5 C 0 km/h
134 17-11-2010 02:41:05 5 C 5.57 g/m*3 5 C 0 km/h
135 17-11-2010 02:53:05 4.9 C 5.6 g/m*3 4.9 C 0 km/h
136 17-11-2010 03:05:05 5 C 5.64 g/m*3 5 C 0 km/h
137 17-11-2010 03:17:05 4.9 C 5.67 g/m*3 4.9 C 0 km/h
138 17-11-2010 03:29:05 4.9 C 5.67 g/m*3 4.9 C 0 km/h
139 17-11-2010 03:41:05 4.9 C 5.67 g/m*3 4.9 C 0 km/h
140 17-11-2010 03:53:05 4.9 C 5.67 g/m*3 4.9 C 0 km/h
141 17-11-2010 04:05:05 4.9 C 5.67 g/m*3 4.9 C 0 km/h
142 17-11-2010 04:17:05 4.8 C 5.63 g/m*3 4.8 C 0 km/h
143 17-11-2010 04:29:05 4.8 C 5.63 g/m*3 4.8 C 0 km/h
144 17-11-2010 04:41:05 4.7 C 5.6 g/m*3 4.7 C 0 km/h
145 17-11-2010 04:53:05 4.8 C 5.7 g/m*3 4.8 C 0 km/h
146 17-11-2010 05:05:06 4.7 C 5.66 g/m*3 4.7 C 0 km/h
147 17-11-2010 05:17:06 4.7 C 5.66 g/m*3 4.7 C 0 km/h
148 17-11-2010 05:29:06 4.8 C 5.77 g/m*3 4.8 C 0 km/h
149 17-11-2010 05:41:06 4.8 C 5.77 g/m*3 4.8 C 0 km/h
150 17-11-2010 05:53:06 4.7 C 5.73 g/m*3 4.7 C 0 km/h
Sensor: Nr:Datum:Temp:Abs-Feuchte:Windchill:Wind:
Aussen-T/F 151 17-11-2010 06:05:06 4.7 C 5.73 g/m*3 4.7 C 0 km/h
152 17-11-2010 06:17:06 4.7 C 5.73 g/m*3 4.7 C 0 km/h
153 17-11-2010 06:29:06 4.7 C 5.73 g/m*3 4.7 C 0 km/h
154 17-11-2010 06:41:06 4.7 C 5.73 g/m*3 4.7 C 0 km/h
155 17-11-2010 06:53:02 4.7 C 5.73 g/m*3 4.7 C 0 km/h
156 17-11-2010 07:05:02 4.7 C 5.73 g/m*3 4.7 C 0 km/h
157 17-11-2010 07:17:02 4.7 C 5.73 g/m*3 4.7 C 0 km/h
158 17-11-2010 07:29:02 4.7 C 5.73 g/m*3 4.7 C 0 km/h
159 17-11-2010 07:41:01 4.7 C 5.66 g/m*3 4.7 C 0 km/h
160 17-11-2010 07:53:02 4.8 C 5.5 g/m*3 4.8 C 0 km/h
161 17-11-2010 08:05:01 4.9 C 5.27 g/m*3 4.9 C 0 km/h
162 17-11-2010 08:17:01 4.9 C 5.13 g/m*3 4.9 C 0 km/h
163 17-11-2010 08:29:01 5.1 C 4.92 g/m*3 5.1 C 0 km/h
164 17-11-2010 08:41:02 5.2 C 4.89 g/m*3 5.2 C 0 km/h
165 17-11-2010 08:53:02 5.4 C 4.67 g/m*3 5.4 C 0 km/h
166 17-11-2010 09:05:02 5.5 C 4.64 g/m*3 5.5 C 0 km/h
167 17-11-2010 09:17:02 5.4 C 4.67 g/m*3 5.4 C 0 km/h
168 17-11-2010 09:29:02 5.6 C 4.67 g/m*3 5.6 C 0 km/h
169 17-11-2010 09:41:02 5.6 C 4.6 g/m*3 5.6 C 0 km/h
170 17-11-2010 09:53:02 5.7 C 4.63 g/m*3 5.7 C 0 km/h
171 17-11-2010 10:05:02 5.7 C 4.7 g/m*3 5.7 C 0 km/h
172 17-11-2010 10:17:02 5.7 C 4.63 g/m*3 5.7 C 0 km/h
173 17-11-2010 10:29:02 5.8 C 4.66 g/m*3 5.8 C 0 km/h
174 17-11-2010 10:41:02 5.8 C 4.66 g/m*3 5.8 C 0 km/h
175 17-11-2010 10:53:02 5.9 C 4.69 g/m*3 5.9 C 0 km/h
Sensor: Nr:Datum:Temp:Abs-Feuchte:Windchill:Wind:
Aussen-T/F 176 17-11-2010 11:05:02 6 C 4.57 g/m*3 6 C 0 km/h
177 17-11-2010 11:17:03 6 C 4.57 g/m*3 6 C 0 km/h
178 17-11-2010 11:29:03 5.9 C 4.61 g/m*3 5.9 C 0 km/h
179 17-11-2010 11:41:02 6.1 C 4.6 g/m*3 6.1 C 0 km/h
180 17-11-2010 11:53:02 6.2 C 4.63 g/m*3 6.2 C 0 km/h
181 17-11-2010 12:05:02 6.4 C 4.62 g/m*3 6.4 C 0 km/h
182 17-11-2010 12:17:02 6.3 C 4.52 g/m*3 6.3 C 0 km/h
183 17-11-2010 12:29:02 6.1 C 4.6 g/m*3 6.1 C 0 km/h
184 17-11-2010 12:41:02 6.3 C 4.66 g/m*3 6.3 C 0 km/h
185 17-11-2010 12:53:02 6.3 C 4.59 g/m*3 6.3 C 0 km/h
186 17-11-2010 13:05:02 6.3 C 4.66 g/m*3 6.3 C 0 km/h
187 17-11-2010 13:17:02 6.7 C 4.71 g/m*3 6.7 C 0 km/h
188 17-11-2010 13:29:02 6.7 C 4.64 g/m*3 6.7 C 0 km/h
189 17-11-2010 13:41:01 6.5 C 4.57 g/m*3 6.5 C 0 km/h
190 17-11-2010 13:53:02 6.5 C 4.57 g/m*3 6.5 C 0 km/h
191 17-11-2010 14:05:01 6.4 C 4.62 g/m*3 6.4 C 0 km/h
192 17-11-2010 14:17:01 6.3 C 4.59 g/m*3 6.3 C 0 km/h
193 17-11-2010 14:29:01 6.1 C 4.46 g/m*3 6.1 C 0 km/h
194 17-11-2010 14:41:02 6.1 C 4.53 g/m*3 6.1 C 0 km/h
195 17-11-2010 14:53:02 6 C 4.57 g/m*3 6 C 0 km/h
196 17-11-2010 15:05:02 5.9 C 4.54 g/m*3 5.9 C 0 km/h
197 17-11-2010 15:17:02 5.9 C 4.61 g/m*3 5.9 C 0 km/h
198 17-11-2010 15:29:02 5.9 C 4.69 g/m*3 5.9 C 0 km/h
199 17-11-2010 15:41:02 5.8 C 4.73 g/m*3 5.8 C 0 km/h
200 17-11-2010 15:53:02 5.8 C 4.8 g/m*3 5.8 C 0 km/h
Sensor: Nr:Datum:Temp:Abs-Feuchte:Windchill:Wind:
Aussen-T/F 201 17-11-2010 16:05:02 5.7 C 4.77 g/m*3 5.7 C 0 km/h
202 17-11-2010 16:17:02 5.6 C 4.81 g/m*3 5.6 C 0 km/h
203 17-11-2010 16:29:02 5.5 C 4.78 g/m*3 5.5 C 0 km/h
204 17-11-2010 16:41:02 5.5 C 4.85 g/m*3 5.5 C 0 km/h
205 17-11-2010 16:53:01 5.4 C 4.81 g/m*3 5.4 C 0 km/h
206 17-11-2010 17:05:01 5.4 C 4.88 g/m*3 5.4 C 0 km/h
207 17-11-2010 17:17:02 5.3 C 4.85 g/m*3 5.3 C 0 km/h
208 17-11-2010 17:29:02 5.2 C 4.89 g/m*3 5.2 C 0 km/h
209 17-11-2010 17:41:01 5.2 C 4.96 g/m*3 5.2 C 0 km/h
210 17-11-2010 17:53:02 5.2 C 4.96 g/m*3 5.2 C 0 km/h
211 17-11-2010 18:05:02 5.2 C 4.96 g/m*3 5.2 C 0 km/h
212 17-11-2010 18:17:03 5.2 C 4.96 g/m*3 5.2 C 0 km/h
213 17-11-2010 18:29:03 5.2 C 5.03 g/m*3 5.2 C 0 km/h
214 17-11-2010 18:41:02 5.2 C 4.96 g/m*3 5.2 C 0 km/h
215 17-11-2010 18:53:01 5.2 C 4.96 g/m*3 5.2 C 0 km/h
216 17-11-2010 19:05:01 5.3 C 4.99 g/m*3 5.3 C 0 km/h
217 17-11-2010 19:17:02 5.3 C 4.99 g/m*3 5.3 C 0 km/h
218 17-11-2010 19:29:02 5.3 C 4.99 g/m*3 5.3 C 0 km/h
219 17-11-2010 19:41:01 5.3 C 4.99 g/m*3 5.3 C 0 km/h
220 17-11-2010 19:53:01 5.3 C 4.99 g/m*3 5.3 C 0 km/h
221 17-11-2010 20:05:01 5.3 C 5.06 g/m*3 5.3 C 0 km/h
222 17-11-2010 20:17:02 5.3 C 5.13 g/m*3 5.3 C 0 km/h
223 17-11-2010 20:29:02 5.3 C 5.13 g/m*3 5.3 C 0 km/h
224 17-11-2010 20:41:56 5.3 C 5.13 g/m*3 5.3 C 0 km/h
225 17-11-2010 20:53:56 5.3 C 5.13 g/m*3 5.3 C 0 km/h
Sensor: Nr:Datum:Temp:Abs-Feuchte:Windchill:Wind:
Aussen-T/F 226 17-11-2010 21:05:56 5.3 C 5.2 g/m*3 5.3 C 0 km/h
227 17-11-2010 21:17:02 5.3 C 5.13 g/m*3 5.3 C 0 km/h
228 17-11-2010 21:29:02 5.3 C 5.2 g/m*3 5.3 C 0 km/h
229 17-11-2010 21:41:02 5.2 C 5.23 g/m*3 5.2 C 0 km/h
230 17-11-2010 21:53:01 5.2 C 5.3 g/m*3 5.2 C 0 km/h
231 17-11-2010 22:05:01 5.2 C 5.3 g/m*3 5.2 C 0 km/h
232 17-11-2010 22:17:02 5.1 C 5.27 g/m*3 5.1 C 0 km/h
233 17-11-2010 22:29:02 5.1 C 5.34 g/m*3 5.1 C 0 km/h
234 17-11-2010 22:42:03 5 C 5.37 g/m*3 5 C 0 km/h
235 17-11-2010 22:54:03 4.8 C 5.43 g/m*3 4.8 C 0 km/h
236 17-11-2010 23:06:03 4.6 C 5.49 g/m*3 4.6 C 0 km/h
237 17-11-2010 23:18:03 4.5 C 5.52 g/m*3 4.5 C 0 km/h
238 17-11-2010 23:30:03 4.5 C 5.59 g/m*3 4.5 C 0 km/h
239 17-11-2010 23:42:03 4.5 C 5.65 g/m*3 4.5 C 0 km/h
240 17-11-2010 23:54:03 4.5 C 5.65 g/m*3 4.5 C 0 km/h
241 18-11-2010 00:06:03 4.6 C 5.76 g/m*3 4.6 C 0 km/h
242 18-11-2010 00:18:03 4.7 C 5.8 g/m*3 4.7 C 0 km/h
243 18-11-2010 00:30:03 4.6 C 5.76 g/m*3 4.6 C 0 km/h
244 18-11-2010 00:42:03 4.5 C 5.72 g/m*3 4.5 C 0 km/h
245 18-11-2010 00:54:03 4.4 C 5.68 g/m*3 4.4 C 0 km/h
246 18-11-2010 01:06:03 4.3 C 5.71 g/m*3 4.3 C 0 km/h
247 18-11-2010 01:18:04 4.3 C 5.71 g/m*3 4.3 C 0 km/h
248 18-11-2010 01:30:04 4.3 C 5.71 g/m*3 4.3 C 0 km/h
249 18-11-2010 01:42:04 4.3 C 5.71 g/m*3 4.3 C 0 km/h
250 18-11-2010 01:54:04 4.2 C 5.73 g/m*3 4.2 C 0 km/h
Sensor: Nr:Datum:Temp:Abs-Feuchte:Windchill:Wind:
Aussen-T/F 251 18-11-2010 02:06:04 4.2 C 5.73 g/m*3 4.2 C 0 km/h
252 18-11-2010 02:18:04 4.3 C 5.77 g/m*3 4.3 C 0 km/h
253 18-11-2010 02:30:04 4.5 C 5.85 g/m*3 4.5 C 0 km/h
254 18-11-2010 02:42:04 4.4 C 5.81 g/m*3 4.4 C 0 km/h
255 18-11-2010 02:54:04 4 C 5.66 g/m*3 4 C 0 km/h
256 18-11-2010 03:06:04 3.9 C 5.68 g/m*3 3.9 C 0 km/h
257 18-11-2010 03:18:04 4 C 5.72 g/m*3 4 C 0 km/h
258 18-11-2010 03:30:04 4 C 5.72 g/m*3 4 C 0 km/h
259 18-11-2010 03:42:04 4.2 C 5.8 g/m*3 4.2 C 0 km/h
260 18-11-2010 03:54:04 4.2 C 5.8 g/m*3 4.2 C 0 km/h
261 18-11-2010 04:06:04 4.2 C 5.8 g/m*3 4.2 C 0 km/h
262 18-11-2010 04:18:04 4.3 C 5.9 g/m*3 4.3 C 0 km/h
263 18-11-2010 04:30:04 4.3 C 5.9 g/m*3 4.3 C 0 km/h
264 18-11-2010 04:42:04 4.3 C 5.9 g/m*3 4.3 C 0 km/h
265 18-11-2010 04:54:04 4.3 C 5.9 g/m*3 4.3 C 0 km/h
266 18-11-2010 05:06:04 4.3 C 5.9 g/m*3 4.3 C 0 km/h
267 18-11-2010 05:18:05 4.4 C 5.94 g/m*3 4.4 C 0 km/h
268 18-11-2010 05:30:05 4.3 C 5.9 g/m*3 4.3 C 0 km/h
269 18-11-2010 05:42:05 4.2 C 5.86 g/m*3 4.2 C 0 km/h
270 18-11-2010 05:54:05 4.2 C 5.86 g/m*3 4.2 C 0 km/h
271 18-11-2010 06:06:05 4.2 C 5.86 g/m*3 4.2 C 0 km/h
272 18-11-2010 06:18:05 3.9 C 5.81 g/m*3 3.9 C 0 km/h
273 18-11-2010 06:30:05 3.9 C 5.81 g/m*3 3.9 C 0 km/h
274 18-11-2010 06:42:05 3.8 C 5.77 g/m*3 3.8 C 0 km/h
275 18-11-2010 06:54:05 3.8 C 5.77 g/m*3 3.8 C 0 km/h
Sensor: Nr:Datum:Temp:Abs-Feuchte:Windchill:Wind:
Aussen-T/F 276 18-11-2010 07:06:05 3.8 C 5.77 g/m*3 3.8 C 0 km/h
277 18-11-2010 07:18:03 3.9 C 5.81 g/m*3 3.9 C 0 km/h
278 18-11-2010 07:30:03 4 C 5.85 g/m*3 4 C 0 km/h
279 18-11-2010 07:42:03 4 C 5.85 g/m*3 4 C 0 km/h
280 18-11-2010 07:54:02 4.2 C 5.93 g/m*3 4.2 C 0 km/h
281 18-11-2010 08:06:02 4.1 C 5.89 g/m*3 4.1 C 0 km/h
282 18-11-2010 08:18:01 4.2 C 5.93 g/m*3 4.2 C 0 km/h
283 18-11-2010 08:30:01 4.2 C 5.93 g/m*3 4.2 C 0 km/h
284 18-11-2010 08:42:02 4.2 C 5.93 g/m*3 4.2 C 0 km/h
285 18-11-2010 08:54:01 4.4 C 6.01 g/m*3 4.4 C 0 km/h
286 18-11-2010 09:06:02 4.5 C 6.05 g/m*3 4.5 C 0 km/h
287 18-11-2010 09:18:01 4.8 C 6.17 g/m*3 4.8 C 0 km/h
288 18-11-2010 09:30:01 4.8 C 6.17 g/m*3 4.8 C 0 km/h
289 18-11-2010 09:42:02 5.2 C 6.27 g/m*3 5.2 C 0 km/h
290 18-11-2010 09:54:01 5.4 C 6.35 g/m*3 5.4 C 0 km/h
291 18-11-2010 10:06:02 5.4 C 6.28 g/m*3 5.4 C 0 km/h
292 18-11-2010 10:18:02 5.8 C 6.38 g/m*3 5.8 C 0 km/h
293 18-11-2010 10:30:02 6 C 6.24 g/m*3 6 C 0 km/h
294 18-11-2010 10:42:01 6.1 C 6.14 g/m*3 6.1 C 0 km/h
295 18-11-2010 10:54:02 6.5 C 6.15 g/m*3 6.5 C 0 km/h
296 18-11-2010 11:06:01 6.5 C 6.07 g/m*3 6.5 C 0 km/h
297 18-11-2010 11:18:01 6.6 C 5.96 g/m*3 6.6 C 0 km/h
298 18-11-2010 11:30:02 6.8 C 5.97 g/m*3 6.8 C 0 km/h
299 18-11-2010 11:42:01 7.2 C 6.04 g/m*3 7.2 C 0 km/h
300 18-11-2010 11:54:02 7.4 C 6.04 g/m*3 7.4 C 0 km/h
Sensor: Nr:Datum:Temp:Abs-Feuchte:Windchill:Wind:
Aussen-T/F 301 18-11-2010 12:06:01 7.4 C 6.04 g/m*3 7.4 C 0 km/h
302 18-11-2010 12:18:02 7.6 C 6.04 g/m*3 7.6 C 0 km/h
303 18-11-2010 12:30:02 7.6 C 5.96 g/m*3 7.6 C 0 km/h
304 18-11-2010 12:42:02 7.4 C 5.73 g/m*3 7.4 C 0 km/h
305 18-11-2010 12:54:01 7.7 C 5.84 g/m*3 7.7 C 0 km/h
306 18-11-2010 13:06:01 8 C 5.7 g/m*3 8 C 0 km/h
307 18-11-2010 13:18:01 8.5 C 5.81 g/m*3 8.5 C 0 km/h
308 18-11-2010 13:30:01 8.4 C 5.6 g/m*3 8.4 C 0 km/h
309 18-11-2010 13:42:02 8.3 C 5.65 g/m*3 8.3 C 0 km/h
310 18-11-2010 13:54:02 8.6 C 5.76 g/m*3 8.6 C 0 km/h
311 18-11-2010 14:06:02 8.5 C 5.46 g/m*3 8.5 C 0 km/h
312 18-11-2010 14:18:01 8.2 C 5.28 g/m*3 8.2 C 0 km/h
313 18-11-2010 14:30:01 8 C 5.37 g/m*3 8 C 0 km/h
314 18-11-2010 14:42:02 8 C 5.29 g/m*3 8 C 0 km/h
315 18-11-2010 14:54:02 8 C 5.21 g/m*3 8 C 0 km/h
316 18-11-2010 15:06:02 7.8 C 5.3 g/m*3 7.8 C 0 km/h
317 18-11-2010 15:18:01 7.9 C 5.34 g/m*3 7.9 C 0 km/h
318 18-11-2010 15:30:01 7.8 C 5.39 g/m*3 7.8 C 0 km/h
319 18-11-2010 15:42:02 7.7 C 5.43 g/m*3 7.7 C 0 km/h
320 18-11-2010 15:54:01 7.6 C 5.48 g/m*3 7.6 C 0 km/h
321 18-11-2010 16:06:02 7.3 C 5.61 g/m*3 7.3 C 0 km/h
322 18-11-2010 16:18:02 7.1 C 5.77 g/m*3 7.1 C 0 km/h
323 18-11-2010 16:30:02 6.9 C 5.93 g/m*3 6.9 C 0 km/h
324 18-11-2010 16:42:01 6.8 C 5.89 g/m*3 6.8 C 0 km/h
325 18-11-2010 16:54:02 6.4 C 5.66 g/m*3 6.4 C 0 km/h
Sensor: Nr:Datum:Temp:Abs-Feuchte:Windchill:Wind:
Aussen-T/F 326 18-11-2010 17:06:01 6 C 5.66 g/m*3 6 C 0 km/h
327 18-11-2010 17:18:02 6.1 C 5.84 g/m*3 6.1 C 0 km/h
328 18-11-2010 17:30:02 6.1 C 5.92 g/m*3 6.1 C 0 km/h
329 18-11-2010 17:42:01 6.2 C 5.96 g/m*3 6.2 C 0 km/h
330 18-11-2010 17:54:02 6.2 C 5.96 g/m*3 6.2 C 0 km/h
331 18-11-2010 18:06:02 6.2 C 5.96 g/m*3 6.2 C 0 km/h
332 18-11-2010 18:18:02 6.2 C 6.03 g/m*3 6.2 C 0 km/h
333 18-11-2010 18:30:02 6.2 C 6.03 g/m*3 6.2 C 0 km/h
334 18-11-2010 18:42:02 6.2 C 6.03 g/m*3 6.2 C 0 km/h
335 18-11-2010 18:54:02 6.2 C 6.03 g/m*3 6.2 C 0 km/h
336 18-11-2010 19:06:01 6.3 C 6.07 g/m*3 6.3 C 0 km/h
337 18-11-2010 19:18:02 6.2 C 5.88 g/m*3 6.2 C 0 km/h
338 18-11-2010 19:30:02 5.8 C 5.95 g/m*3 5.8 C 0 km/h
339 18-11-2010 19:42:02 5.7 C 6.05 g/m*3 5.7 C 0 km/h
340 18-11-2010 19:54:02 5.7 C 6.12 g/m*3 5.7 C 0 km/h
341 18-11-2010 20:06:02 5.6 C 6.15 g/m*3 5.6 C 0 km/h
342 18-11-2010 20:18:02 5.6 C 6.22 g/m*3 5.6 C 0 km/h
343 18-11-2010 20:30:02 5.6 C 6.22 g/m*3 5.6 C 0 km/h
344 18-11-2010 20:42:02 5.6 C 6.29 g/m*3 5.6 C 0 km/h
345 18-11-2010 20:54:01 5.5 C 6.25 g/m*3 5.5 C 0 km/h
346 18-11-2010 21:06:02 5.5 C 6.25 g/m*3 5.5 C 0 km/h
347 18-11-2010 21:18:01 5.5 C 6.25 g/m*3 5.5 C 0 km/h
348 18-11-2010 21:30:01 5.5 C 6.25 g/m*3 5.5 C 0 km/h
349 18-11-2010 21:42:01 5.5 C 6.25 g/m*3 5.5 C 0 km/h
350 18-11-2010 21:54:01 5.6 C 6.36 g/m*3 5.6 C 0 km/h
Sensor: Nr:Datum:Temp:Abs-Feuchte:Windchill:Wind:
Aussen-T/F 351 18-11-2010 22:06:01 5.5 C 6.32 g/m*3 5.5 C 0 km/h
352 18-11-2010 22:18:02 5.5 C 6.32 g/m*3 5.5 C 0 km/h
353 18-11-2010 22:30:02 5.5 C 6.32 g/m*3 5.5 C 0 km/h
354 18-11-2010 22:42:01 5.5 C 6.32 g/m*3 5.5 C 0 km/h
355 18-11-2010 22:55:03 5.5 C 6.32 g/m*3 5.5 C 0 km/h
356 18-11-2010 23:07:03 5.6 C 6.43 g/m*3 5.6 C 0 km/h
357 18-11-2010 23:19:03 5.6 C 6.43 g/m*3 5.6 C 0 km/h
358 18-11-2010 23:31:03 5.7 C 6.48 g/m*3 5.7 C 0 km/h
359 18-11-2010 23:43:03 5.7 C 6.4 g/m*3 5.7 C 0 km/h
360 18-11-2010 23:55:04 5.6 C 6.36 g/m*3 5.6 C 0 km/h
361 19-11-2010 00:07:04 5.5 C 6.32 g/m*3 5.5 C 0 km/h
362 19-11-2010 00:19:04 5.6 C 6.29 g/m*3 5.6 C 0 km/h
363 19-11-2010 00:31:04 5.7 C 6.26 g/m*3 5.7 C 0 km/h
364 19-11-2010 00:43:04 5.7 C 6.26 g/m*3 5.7 C 0 km/h
365 19-11-2010 00:55:04 5.8 C 6.16 g/m*3 5.8 C 0 km/h
366 19-11-2010 01:07:04 5.8 C 6.09 g/m*3 5.8 C 0 km/h
367 19-11-2010 01:19:04 5.6 C 6.01 g/m*3 5.6 C 0 km/h
368 19-11-2010 01:31:04 5.5 C 6.11 g/m*3 5.5 C 0 km/h
369 19-11-2010 01:43:04 5.5 C 6.18 g/m*3 5.5 C 0 km/h
370 19-11-2010 01:55:04 5.5 C 6.18 g/m*3 5.5 C 0 km/h
371 19-11-2010 02:07:04 5.4 C 6.14 g/m*3 5.4 C 0 km/h
372 19-11-2010 02:19:04 5.4 C 6.21 g/m*3 5.4 C 0 km/h
373 19-11-2010 02:31:04 5.3 C 6.17 g/m*3 5.3 C 0 km/h
374 19-11-2010 02:43:04 5.3 C 6.17 g/m*3 5.3 C 0 km/h
375 19-11-2010 02:55:04 5.3 C 6.17 g/m*3 5.3 C 0 km/h
Sensor: Nr:Datum:Temp:Abs-Feuchte:Windchill:Wind:
Aussen-T/F 376 19-11-2010 03:07:04 5.2 C 6.06 g/m*3 5.2 C 0 km/h
377 19-11-2010 03:19:04 5.2 C 6.13 g/m*3 5.2 C 0 km/h
378 19-11-2010 03:31:04 5.1 C 6.09 g/m*3 5.1 C 0 km/h
379 19-11-2010 03:43:04 5.1 C 6.09 g/m*3 5.1 C 0 km/h
380 19-11-2010 03:55:04 5 C 6.05 g/m*3 5 C 0 km/h
381 19-11-2010 04:07:05 5 C 6.05 g/m*3 5 C 0 km/h
382 19-11-2010 04:19:05 5 C 6.05 g/m*3 5 C 0 km/h
383 19-11-2010 04:31:05 5.1 C 6.09 g/m*3 5.1 C 0 km/h
384 19-11-2010 04:43:05 5.1 C 6.09 g/m*3 5.1 C 0 km/h
385 19-11-2010 04:55:05 5 C 5.98 g/m*3 5 C 0 km/h
386 19-11-2010 05:07:05 4.9 C 6.01 g/m*3 4.9 C 0 km/h
387 19-11-2010 05:19:05 4.9 C 6.01 g/m*3 4.9 C 0 km/h
388 19-11-2010 05:31:05 4.9 C 6.08 g/m*3 4.9 C 0 km/h
389 19-11-2010 05:43:05 5 C 6.05 g/m*3 5 C 0 km/h
390 19-11-2010 05:55:05 5 C 6.05 g/m*3 5 C 0 km/h
391 19-11-2010 06:07:05 4.9 C 6.01 g/m*3 4.9 C 0 km/h
392 19-11-2010 06:19:05 4.8 C 5.97 g/m*3 4.8 C 0 km/h
393 19-11-2010 06:31:05 4.8 C 6.04 g/m*3 4.8 C 0 km/h
394 19-11-2010 06:43:05 5 C 6.05 g/m*3 5 C 0 km/h
395 19-11-2010 06:55:02 5 C 6.05 g/m*3 5 C 0 km/h
396 19-11-2010 07:07:02 5.1 C 6.09 g/m*3 5.1 C 0 km/h
397 19-11-2010 07:19:02 5.2 C 6.13 g/m*3 5.2 C 0 km/h
398 19-11-2010 07:31:02 5.2 C 6.13 g/m*3 5.2 C 0 km/h
399 19-11-2010 07:43:02 5.1 C 6.09 g/m*3 5.1 C 0 km/h
400 19-11-2010 07:55:02 5.1 C 6.09 g/m*3 5.1 C 0 km/h
Sensor: Nr:Datum:Temp:Abs-Feuchte:Windchill:Wind:
Aussen-T/F 401 19-11-2010 08:07:01 5.2 C 6.13 g/m*3 5.2 C 0 km/h
402 19-11-2010 08:19:02 5.3 C 6.17 g/m*3 5.3 C 0 km/h
403 19-11-2010 08:31:02 5.4 C 6.21 g/m*3 5.4 C 0 km/h
404 19-11-2010 08:43:02 5.5 C 6.25 g/m*3 5.5 C 0 km/h
405 19-11-2010 08:55:02 5.8 C 6.38 g/m*3 5.8 C 0 km/h
406 19-11-2010 09:07:02 6 C 6.31 g/m*3 6 C 0 km/h
407 19-11-2010 09:19:02 6.2 C 6.32 g/m*3 6.2 C 0 km/h
408 19-11-2010 09:31:03 6.4 C 6.33 g/m*3 6.4 C 0 km/h
409 19-11-2010 09:43:03 6.4 C 6.18 g/m*3 6.4 C 0 km/h
410 19-11-2010 09:55:02 6.6 C 6.11 g/m*3 6.6 C 0 km/h
411 19-11-2010 10:07:02 6.9 C 6.24 g/m*3 6.9 C 0 km/h
412 19-11-2010 10:19:01 7.1 C 6.16 g/m*3 7.1 C 0 km/h
413 19-11-2010 10:31:02 7.6 C 6.28 g/m*3 7.6 C 0 km/h
414 19-11-2010 10:43:03 7.9 C 6.32 g/m*3 7.9 C 0 km/h
415 19-11-2010 10:55:02 8.6 C 6.36 g/m*3 8.6 C 0 km/h
416 19-11-2010 11:07:02 8.7 C 6.23 g/m*3 8.7 C 0 km/h
417 19-11-2010 11:19:02 8.9 C 6.13 g/m*3 8.9 C 0 km/h
418 19-11-2010 11:31:02 8.8 C 6.01 g/m*3 8.8 C 0 km/h
419 19-11-2010 11:43:02 8.8 C 6.01 g/m*3 8.8 C 0 km/h
420 19-11-2010 11:55:02 9 C 5.91 g/m*3 9 C 0 km/h
421 19-11-2010 12:07:02 9.2 C 5.98 g/m*3 9.2 C 0 km/h
422 19-11-2010 12:19:03 9.5 C 5.92 g/m*3 9.5 C 0 km/h
423 19-11-2010 12:31:02 9.5 C 5.83 g/m*3 9.5 C 0 km/h
424 19-11-2010 12:43:02 9.4 C 5.79 g/m*3 9.4 C 0 km/h
425 19-11-2010 12:55:02 10 C 5.73 g/m*3 10 C 0 km/h
Sensor: Nr:Datum:Temp:Abs-Feuchte:Windchill:Wind:
Aussen-T/F 426 19-11-2010 13:07:02 10.2 C 5.8 g/m*3 10.2 C 0 km/h
427 19-11-2010 13:19:02 9.7 C 5.81 g/m*3 9.7 C 0 km/h
428 19-11-2010 13:31:02 9.5 C 5.83 g/m*3 9.5 C 0 km/h
429 19-11-2010 13:43:02 9.5 C 5.92 g/m*3 9.5 C 0 km/h
430 19-11-2010 13:55:02 9.8 C 5.75 g/m*3 9.8 C 0 km/h
431 19-11-2010 14:07:01 10.2 C 5.61 g/m*3 10.2 C 0 km/h
432 19-11-2010 14:19:02 10.1 C 5.67 g/m*3 10.1 C 0 km/h
433 19-11-2010 14:31:02 9.9 C 5.7 g/m*3 9.9 C 0 km/h
434 19-11-2010 14:43:02 9.8 C 5.75 g/m*3 9.8 C 0 km/h
435 19-11-2010 14:55:01 9.7 C 5.72 g/m*3 9.7 C 0 km/h
436 19-11-2010 15:07:01 9.7 C 5.81 g/m*3 9.7 C 0 km/h
437 19-11-2010 15:19:01 9.2 C 5.8 g/m*3 9.2 C 0 km/h
438 19-11-2010 15:31:02 8.6 C 5.84 g/m*3 8.6 C 0 km/h
439 19-11-2010 15:43:02 7.7 C 6 g/m*3 7.7 C 0 km/h
440 19-11-2010 15:55:02 7.3 C 6.08 g/m*3 7.3 C 0 km/h
441 19-11-2010 16:07:02 6.9 C 6.08 g/m*3 6.9 C 0 km/h
442 19-11-2010 16:19:01 6.8 C 6.12 g/m*3 6.8 C 0 km/h
443 19-11-2010 16:31:02 6.8 C 6.19 g/m*3 6.8 C 0 km/h
444 19-11-2010 16:43:02 7.2 C 6.36 g/m*3 7.2 C 0 km/h
445 19-11-2010 16:55:02 7.5 C 6.4 g/m*3 7.5 C 0 km/h
446 19-11-2010 17:07:02 7.6 C 6.28 g/m*3 7.6 C 0 km/h
447 19-11-2010 17:19:01 7.6 C 6.28 g/m*3 7.6 C 0 km/h
448 19-11-2010 17:31:02 7.7 C 6.32 g/m*3 7.7 C 0 km/h
449 19-11-2010 17:43:02 7.5 C 6.32 g/m*3 7.5 C 0 km/h
450 19-11-2010 17:55:02 7.5 C 6.32 g/m*3 7.5 C 0 km/h
Sensor: Nr:Datum:Temp:Abs-Feuchte:Windchill:Wind:
Aussen-T/F 451 19-11-2010 18:07:02 7.5 C 6.4 g/m*3 7.5 C 0 km/h
452 19-11-2010 18:19:02 7.6 C 6.36 g/m*3 7.6 C 0 km/h
453 19-11-2010 18:31:02 7.7 C 6.32 g/m*3 7.7 C 0 km/h
454 19-11-2010 18:43:02 7.8 C 6.28 g/m*3 7.8 C 0 km/h
455 19-11-2010 18:55:02 7.5 C 6.24 g/m*3 7.5 C 0 km/h
456 19-11-2010 19:07:02 7.5 C 6.32 g/m*3 7.5 C 0 km/h
457 19-11-2010 19:19:02 7.3 C 6.24 g/m*3 7.3 C 0 km/h
458 19-11-2010 19:31:01 7 C 6.2 g/m*3 7 C 0 km/h
459 19-11-2010 19:43:01 6.7 C 6.23 g/m*3 6.7 C 0 km/h
460 19-11-2010 19:55:02 6.3 C 6.14 g/m*3 6.3 C 0 km/h
461 19-11-2010 20:07:01 5.9 C 6.13 g/m*3 5.9 C 0 km/h
462 19-11-2010 20:19:02 5.4 C 6 g/m*3 5.4 C 0 km/h
463 19-11-2010 20:31:01 5 C 5.84 g/m*3 5 C 0 km/h
464 19-11-2010 20:43:01 4.6 C 5.76 g/m*3 4.6 C 0 km/h
465 19-11-2010 20:55:01 4.6 C 5.82 g/m*3 4.6 C 0 km/h
466 19-11-2010 21:07:02 4.1 C 5.63 g/m*3 4.1 C 0 km/h
467 19-11-2010 21:19:02 3.9 C 5.62 g/m*3 3.9 C 0 km/h
468 19-11-2010 21:31:01 4 C 5.66 g/m*3 4 C 0 km/h
469 19-11-2010 21:43:01 3.8 C 5.65 g/m*3 3.8 C 0 km/h
470 19-11-2010 21:55:01 3.5 C 5.53 g/m*3 3.5 C 0 km/h
471 19-11-2010 22:07:01 3.4 C 5.5 g/m*3 3.4 C 0 km/h
472 19-11-2010 22:19:01 3.4 C 5.56 g/m*3 3.4 C 0 km/h
473 19-11-2010 22:31:01 4.4 C 5.94 g/m*3 4.4 C 0 km/h
474 19-11-2010 22:43:01 4.3 C 5.9 g/m*3 4.3 C 0 km/h
475 19-11-2010 22:55:01 4.1 C 5.82 g/m*3 4.1 C 0 km/h
Sensor: Nr:Datum:Temp:Abs-Feuchte:Windchill:Wind:
Aussen-T/F 476 19-11-2010 23:07:01 4 C 5.79 g/m*3 4 C 0 km/h
477 19-11-2010 23:19:02 4.3 C 5.9 g/m*3 4.3 C 0 km/h
478 19-11-2010 23:32:02 4.6 C 6.09 g/m*3 4.6 C 0 km/h
479 19-11-2010 23:44:02 4.8 C 6.17 g/m*3 4.8 C 0 km/h
480 19-11-2010 23:56:02 5 C 6.18 g/m*3 5 C 0 km/h
481 20-11-2010 00:08:02 4.7 C 6.13 g/m*3 4.7 C 0 km/h
482 20-11-2010 00:20:02 3.9 C 5.81 g/m*3 3.9 C 0 km/h
483 20-11-2010 00:32:02 3.2 C 5.54 g/m*3 3.2 C 0 km/h
484 20-11-2010 00:44:02 3.8 C 5.77 g/m*3 3.8 C 0 km/h
485 20-11-2010 00:56:02 4.6 C 6.09 g/m*3 4.6 C 0 km/h
486 20-11-2010 01:08:02 4.6 C 6.09 g/m*3 4.6 C 0 km/h
487 20-11-2010 01:20:02 4.9 C 6.21 g/m*3 4.9 C 0 km/h
488 20-11-2010 01:32:02 4.6 C 6.09 g/m*3 4.6 C 0 km/h
489 20-11-2010 01:44:02 3.7 C 5.73 g/m*3 3.7 C 0 km/h
490 20-11-2010 01:56:03 3.1 C 5.51 g/m*3 3.1 C 0 km/h
491 20-11-2010 02:08:03 2.4 C 5.25 g/m*3 2.4 C 0 km/h
492 20-11-2010 02:20:03 2.1 C 5.15 g/m*3 2.1 C 0 km/h
493 20-11-2010 02:32:03 1.7 C 5.06 g/m*3 1.7 C 0 km/h
494 20-11-2010 02:44:03 2 C 5.11 g/m*3 2 C 0 km/h
495 20-11-2010 02:56:03 1.5 C 4.99 g/m*3 1.5 C 0 km/h
496 20-11-2010 03:08:03 1.4 C 4.96 g/m*3 1.4 C 0 km/h
497 20-11-2010 03:20:03 1.2 C 4.84 g/m*3 1.2 C 0 km/h
498 20-11-2010 03:32:03 1.1 C 4.81 g/m*3 1.1 C 0 km/h
499 20-11-2010 03:44:03 1.3 C 4.87 g/m*3 1.3 C 0 km/h
500 20-11-2010 03:56:03 1.7 C 5.06 g/m*3 1.7 C 0 km/h
Sensor: Nr:Datum:Temp:Abs-Feuchte:Windchill:Wind:
Aussen-T/F 501 20-11-2010 04:08:03 2.1 C 5.15 g/m*3 2.1 C 0 km/h
502 20-11-2010 04:20:03 2.5 C 5.35 g/m*3 2.5 C 0 km/h
503 20-11-2010 04:32:03 2.8 C 5.46 g/m*3 2.8 C 0 km/h
504 20-11-2010 04:44:03 2.8 C 5.46 g/m*3 2.8 C 0 km/h
505 20-11-2010 04:56:03 3 C 5.47 g/m*3 3 C 0 km/h
506 20-11-2010 05:08:03 3.1 C 5.51 g/m*3 3.1 C 0 km/h
507 20-11-2010 05:20:03 3.2 C 5.6 g/m*3 3.2 C 0 km/h
508 20-11-2010 05:32:03 3.4 C 5.68 g/m*3 3.4 C 0 km/h
509 20-11-2010 05:44:03 3.4 C 5.68 g/m*3 3.4 C 0 km/h
510 20-11-2010 05:56:03 3.6 C 5.76 g/m*3 3.6 C 0 km/h
511 20-11-2010 06:08:03 3.6 C 5.76 g/m*3 3.6 C 0 km/h
512 20-11-2010 06:20:03 3.7 C 5.8 g/m*3 3.7 C 0 km/h
513 20-11-2010 06:32:04 3.8 C 5.83 g/m*3 3.8 C 0 km/h
514 20-11-2010 06:44:04 3.8 C 5.83 g/m*3 3.8 C 0 km/h
515 20-11-2010 06:56:04 3.9 C 5.87 g/m*3 3.9 C 0 km/h
516 20-11-2010 07:08:04 4 C 5.91 g/m*3 4 C 0 km/h
517 20-11-2010 07:20:04 4 C 5.91 g/m*3 4 C 0 km/h
518 20-11-2010 07:32:04 4.1 C 5.95 g/m*3 4.1 C 0 km/h
519 20-11-2010 07:44:04 4.1 C 5.95 g/m*3 4.1 C 0 km/h
520 20-11-2010 07:56:04 4.1 C 5.95 g/m*3 4.1 C 0 km/h
521 20-11-2010 08:08:02 4.2 C 5.99 g/m*3 4.2 C 0 km/h
522 20-11-2010 08:20:01 4.3 C 6.03 g/m*3 4.3 C 0 km/h
523 20-11-2010 08:32:02 4.4 C 6.07 g/m*3 4.4 C 0 km/h
524 20-11-2010 08:44:02 4.5 C 6.11 g/m*3 4.5 C 0 km/h
525 20-11-2010 08:56:02 4.6 C 6.15 g/m*3 4.6 C 0 km/h
Sensor: Nr:Datum:Temp:Abs-Feuchte:Windchill:Wind:
Aussen-T/F 526 20-11-2010 09:08:02 4.7 C 6.19 g/m*3 4.7 C 0 km/h
527 20-11-2010 09:20:01 4.9 C 6.28 g/m*3 4.9 C 0 km/h
528 20-11-2010 09:32:02 5 C 6.25 g/m*3 5 C 0 km/h
529 20-11-2010 09:44:02 5.2 C 6.4 g/m*3 5.2 C 0 km/h
530 20-11-2010 09:56:02 5.4 C 6.49 g/m*3 5.4 C 0 km/h
531 20-11-2010 10:08:02 5.5 C 6.46 g/m*3 5.5 C 0 km/h
532 20-11-2010 10:20:02 5.6 C 6.5 g/m*3 5.6 C 0 km/h
533 20-11-2010 10:32:02 6 C 6.6 g/m*3 6 C 0 km/h
534 20-11-2010 10:44:02 6.5 C 6.82 g/m*3 6.5 C 0 km/h
535 20-11-2010 10:56:02 6.5 C 6.75 g/m*3 6.5 C 0 km/h
536 20-11-2010 11:08:01 6.8 C 6.81 g/m*3 6.8 C 0 km/h
537 20-11-2010 11:20:02 6.9 C 6.7 g/m*3 6.9 C 0 km/h
538 20-11-2010 11:32:01 7.2 C 6.67 g/m*3 7.2 C 0 km/h
539 20-11-2010 11:44:01 8 C 6.78 g/m*3 8 C 0 km/h
540 20-11-2010 11:56:02 8.4 C 6.79 g/m*3 8.4 C 0 km/h
541 20-11-2010 12:08:01 8.8 C 6.88 g/m*3 8.8 C 0 km/h
542 20-11-2010 12:20:01 8.9 C 6.83 g/m*3 8.9 C 0 km/h
543 20-11-2010 12:32:02 9.2 C 6.61 g/m*3 9.2 C 0 km/h
544 20-11-2010 12:44:02 9.3 C 6.56 g/m*3 9.3 C 0 km/h
545 20-11-2010 12:56:02 9.3 C 6.47 g/m*3 9.3 C 0 km/h
546 20-11-2010 13:08:02 8.9 C 6.31 g/m*3 8.9 C 0 km/h
547 20-11-2010 13:20:01 8.7 C 6.4 g/m*3 8.7 C 0 km/h
548 20-11-2010 13:32:02 8.5 C 6.32 g/m*3 8.5 C 0 km/h
549 20-11-2010 13:44:03 9.1 C 6.48 g/m*3 9.1 C 0 km/h
550 20-11-2010 13:56:02 9.2 C 6.34 g/m*3 9.2 C 0 km/h
Sensor: Nr:Datum:Temp:Abs-Feuchte:Windchill:Wind:
Aussen-T/F 551 20-11-2010 14:08:02 9 C 6.26 g/m*3 9 C 0 km/h
552 20-11-2010 14:20:01 8.9 C 6.31 g/m*3 8.9 C 0 km/h
553 20-11-2010 14:32:02 8.8 C 6.35 g/m*3 8.8 C 0 km/h
554 20-11-2010 14:44:02 8.7 C 6.31 g/m*3 8.7 C 0 km/h
555 20-11-2010 14:56:02 8.5 C 6.23 g/m*3 8.5 C 0 km/h
556 20-11-2010 15:08:02 8.3 C 6.15 g/m*3 8.3 C 0 km/h
557 20-11-2010 15:20:02 8.1 C 6.24 g/m*3 8.1 C 0 km/h
558 20-11-2010 15:32:02 7.9 C 6.24 g/m*3 7.9 C 0 km/h
559 20-11-2010 15:44:02 7.6 C 6.2 g/m*3 7.6 C 0 km/h
560 20-11-2010 15:56:02 6.9 C 6.08 g/m*3 6.9 C 0 km/h
561 20-11-2010 16:08:02 6.2 C 5.96 g/m*3 6.2 C 0 km/h
562 20-11-2010 16:20:02 5.7 C 5.91 g/m*3 5.7 C 0 km/h
563 20-11-2010 16:32:01 5.2 C 5.78 g/m*3 5.2 C 0 km/h
564 20-11-2010 16:44:01 4.8 C 5.77 g/m*3 4.8 C 0 km/h
565 20-11-2010 16:56:02 4.8 C 5.9 g/m*3 4.8 C 0 km/h
566 20-11-2010 17:08:01 4.6 C 5.82 g/m*3 4.6 C 0 km/h
567 20-11-2010 17:20:02 4.6 C 5.89 g/m*3 4.6 C 0 km/h
568 20-11-2010 17:32:02 4.6 C 5.89 g/m*3 4.6 C 0 km/h
569 20-11-2010 17:44:02 4.7 C 6 g/m*3 4.7 C 0 km/h
570 20-11-2010 17:56:02 4.5 C 5.92 g/m*3 4.5 C 0 km/h
571 20-11-2010 18:08:02 4.5 C 5.92 g/m*3 4.5 C 0 km/h
572 20-11-2010 18:20:02 4.5 C 5.92 g/m*3 4.5 C 0 km/h
573 20-11-2010 18:32:02 4.4 C 5.88 g/m*3 4.4 C 0 km/h
574 20-11-2010 18:44:02 4.4 C 5.94 g/m*3 4.4 C 0 km/h
575 20-11-2010 18:56:01 4.2 C 5.86 g/m*3 4.2 C 0 km/h
Sensor: Nr:Datum:Temp:Abs-Feuchte:Windchill:Wind:
Aussen-T/F 576 20-11-2010 19:08:02 4.4 C 5.94 g/m*3 4.4 C 0 km/h
577 20-11-2010 19:20:01 3.9 C 5.75 g/m*3 3.9 C 0 km/h
578 20-11-2010 19:32:02 3.9 C 5.75 g/m*3 3.9 C 0 km/h
579 20-11-2010 19:44:02 3.8 C 5.71 g/m*3 3.8 C 0 km/h
580 20-11-2010 19:56:02 3.6 C 5.63 g/m*3 3.6 C 0 km/h
581 20-11-2010 20:08:02 3.6 C 5.63 g/m*3 3.6 C 0 km/h
582 20-11-2010 20:20:02 3.5 C 5.66 g/m*3 3.5 C 0 km/h
583 20-11-2010 20:32:02 3.4 C 5.62 g/m*3 3.4 C 0 km/h
584 20-11-2010 20:44:03 3.1 C 5.45 g/m*3 3.1 C 0 km/h
585 20-11-2010 20:56:02 2.8 C 5.4 g/m*3 2.8 C 0 km/h
586 20-11-2010 21:08:02 2.8 C 5.4 g/m*3 2.8 C 0 km/h
587 20-11-2010 21:20:02 2.8 C 5.4 g/m*3 2.8 C 0 km/h
588 20-11-2010 21:32:02 3.2 C 5.54 g/m*3 3.2 C 0 km/h
589 20-11-2010 21:44:02 3.6 C 5.69 g/m*3 3.6 C 0 km/h
590 20-11-2010 21:56:02 3.9 C 5.81 g/m*3 3.9 C 0 km/h
591 20-11-2010 22:08:03 4.1 C 5.89 g/m*3 4.1 C 0 km/h
592 20-11-2010 22:20:02 4.3 C 5.97 g/m*3 4.3 C 0 km/h
593 20-11-2010 22:32:02 4.4 C 6.01 g/m*3 4.4 C 0 km/h
594 20-11-2010 22:44:02 4.4 C 6.01 g/m*3 4.4 C 0 km/h
595 20-11-2010 22:56:01 4.4 C 6.01 g/m*3 4.4 C 0 km/h
596 20-11-2010 23:09:02 4 C 5.85 g/m*3 4 C 0 km/h
597 20-11-2010 23:21:02 4 C 5.85 g/m*3 4 C 0 km/h
598 20-11-2010 23:33:02 4.1 C 5.89 g/m*3 4.1 C 0 km/h
599 20-11-2010 23:45:02 4.3 C 6.03 g/m*3 4.3 C 0 km/h
600 20-11-2010 23:57:02 4.2 C 5.99 g/m*3 4.2 C 0 km/h
Sensor: Nr:Datum:Temp:Abs-Feuchte:Windchill:Wind:
Aussen-T/F 601 21-11-2010 00:09:02 4.3 C 5.97 g/m*3 4.3 C 0 km/h
602 21-11-2010 00:21:03 4.3 C 5.97 g/m*3 4.3 C 0 km/h
603 21-11-2010 00:33:03 4.3 C 5.97 g/m*3 4.3 C 0 km/h
604 21-11-2010 00:45:03 4.3 C 5.97 g/m*3 4.3 C 0 km/h
605 21-11-2010 00:57:03 4.4 C 5.94 g/m*3 4.4 C 0 km/h
606 21-11-2010 01:09:03 4.4 C 5.88 g/m*3 4.4 C 0 km/h
607 21-11-2010 01:21:03 4.5 C 5.78 g/m*3 4.5 C 0 km/h
608 21-11-2010 01:33:03 4.5 C 5.72 g/m*3 4.5 C 0 km/h
609 21-11-2010 01:45:03 4.5 C 5.72 g/m*3 4.5 C 0 km/h
610 21-11-2010 01:57:03 4.5 C 5.65 g/m*3 4.5 C 0 km/h
611 21-11-2010 02:09:03 4.5 C 5.59 g/m*3 4.5 C 0 km/h
612 21-11-2010 02:21:03 4.4 C 5.48 g/m*3 4.4 C 0 km/h
613 21-11-2010 02:33:03 4.4 C 5.35 g/m*3 4.4 C 0 km/h
614 21-11-2010 02:45:03 4.4 C 5.35 g/m*3 4.4 C 0 km/h
615 21-11-2010 02:57:03 4.5 C 5.39 g/m*3 4.5 C 0 km/h
616 21-11-2010 03:09:03 4.5 C 5.39 g/m*3 4.5 C 0 km/h
617 21-11-2010 03:21:03 4.5 C 5.32 g/m*3 4.5 C 0 km/h
618 21-11-2010 03:33:03 4.4 C 5.29 g/m*3 4.4 C 0 km/h
619 21-11-2010 03:45:03 4.5 C 5.26 g/m*3 4.5 C 0 km/h
620 21-11-2010 03:57:03 4.6 C 5.16 g/m*3 4.6 C 0 km/h
621 21-11-2010 04:09:03 4.6 C 5.16 g/m*3 4.6 C 0 km/h
622 21-11-2010 04:21:03 4.6 C 5.1 g/m*3 4.6 C 0 km/h
623 21-11-2010 04:33:03 4.6 C 5.03 g/m*3 4.6 C 0 km/h
624 21-11-2010 04:45:04 4.5 C 5 g/m*3 4.5 C 0 km/h
625 21-11-2010 04:57:04 4.5 C 5 g/m*3 4.5 C 0 km/h
Sensor: Nr:Datum:Temp:Abs-Feuchte:Windchill:Wind:
Aussen-T/F 626 21-11-2010 05:09:04 4.5 C 5 g/m*3 4.5 C 0 km/h
627 21-11-2010 05:21:04 4.6 C 4.96 g/m*3 4.6 C 0 km/h
628 21-11-2010 05:33:04 4.5 C 4.93 g/m*3 4.5 C 0 km/h
629 21-11-2010 05:45:04 4.5 C 4.93 g/m*3 4.5 C 0 km/h
630 21-11-2010 05:57:04 4.4 C 4.9 g/m*3 4.4 C 0 km/h
631 21-11-2010 06:09:04 4.4 C 4.9 g/m*3 4.4 C 0 km/h
632 21-11-2010 06:21:04 4.5 C 4.86 g/m*3 4.5 C 0 km/h
633 21-11-2010 06:33:04 4.4 C 4.9 g/m*3 4.4 C 0 km/h
634 21-11-2010 06:45:04 4.4 C 4.96 g/m*3 4.4 C 0 km/h
635 21-11-2010 06:57:04 4.3 C 4.99 g/m*3 4.3 C 0 km/h
636 21-11-2010 07:09:04 4.3 C 4.99 g/m*3 4.3 C 0 km/h
637 21-11-2010 07:21:04 4.4 C 5.03 g/m*3 4.4 C 0 km/h
638 21-11-2010 07:33:04 4.4 C 5.03 g/m*3 4.4 C 0 km/h
639 21-11-2010 07:45:04 4.4 C 5.09 g/m*3 4.4 C 0 km/h
640 21-11-2010 07:57:04 4.4 C 5.09 g/m*3 4.4 C 0 km/h
641 21-11-2010 08:09:04 4.5 C 5.19 g/m*3 4.5 C 0 km/h
642 21-11-2010 08:21:04 4.6 C 5.23 g/m*3 4.6 C 0 km/h
643 21-11-2010 08:33:04 4.7 C 5.13 g/m*3 4.7 C 0 km/h
644 21-11-2010 08:45:04 4.8 C 5.1 g/m*3 4.8 C 0 km/h
645 21-11-2010 08:57:04 4.9 C 5.06 g/m*3 4.9 C 0 km/h
646 21-11-2010 09:09:05 5.1 C 4.99 g/m*3 5.1 C 0 km/h
647 21-11-2010 09:21:05 5.1 C 4.92 g/m*3 5.1 C 0 km/h
648 21-11-2010 09:33:02 5 C 4.89 g/m*3 5 C 0 km/h
649 21-11-2010 09:45:02 4.9 C 4.86 g/m*3 4.9 C 0 km/h
650 21-11-2010 09:57:02 4.9 C 4.93 g/m*3 4.9 C 0 km/h
Sensor: Nr:Datum:Temp:Abs-Feuchte:Windchill:Wind:
Aussen-T/F 651 21-11-2010 10:09:02 5 C 4.89 g/m*3 5 C 0 km/h
652 21-11-2010 10:21:02 5.2 C 4.82 g/m*3 5.2 C 0 km/h
653 21-11-2010 10:33:02 5.4 C 4.81 g/m*3 5.4 C 0 km/h
654 21-11-2010 10:45:01 5.6 C 4.81 g/m*3 5.6 C 0 km/h
655 21-11-2010 10:57:01 5.6 C 4.74 g/m*3 5.6 C 0 km/h
656 21-11-2010 11:09:01 5.6 C 4.67 g/m*3 5.6 C 0 km/h
657 21-11-2010 11:21:02 5.3 C 4.64 g/m*3 5.3 C 0 km/h
658 21-11-2010 11:33:01 5.1 C 4.58 g/m*3 5.1 C 0 km/h
659 21-11-2010 11:45:03 5.2 C 4.61 g/m*3 5.2 C 0 km/h
660 21-11-2010 11:57:03 5.3 C 4.64 g/m*3 5.3 C 0 km/h
661 21-11-2010 12:09:02 5.1 C 4.58 g/m*3 5.1 C 0 km/h
662 21-11-2010 12:21:02 5 C 4.55 g/m*3 5 C 0 km/h
663 21-11-2010 12:33:02 5 C 4.48 g/m*3 5 C 0 km/h
664 21-11-2010 12:45:02 5.1 C 4.51 g/m*3 5.1 C 0 km/h
665 21-11-2010 12:57:02 5.3 C 4.51 g/m*3 5.3 C 0 km/h
666 21-11-2010 13:09:02 5.3 C 4.51 g/m*3 5.3 C 0 km/h
667 21-11-2010 13:21:02 5.1 C 4.45 g/m*3 5.1 C 0 km/h
668 21-11-2010 13:33:02 5.1 C 4.45 g/m*3 5.1 C 0 km/h
669 21-11-2010 13:45:02 5.1 C 4.45 g/m*3 5.1 C 0 km/h
670 21-11-2010 13:57:02 5 C 4.42 g/m*3 5 C 0 km/h
671 21-11-2010 14:09:02 5 C 4.42 g/m*3 5 C 0 km/h
672 21-11-2010 14:21:01 4.9 C 4.46 g/m*3 4.9 C 0 km/h
673 21-11-2010 14:33:02 4.9 C 4.46 g/m*3 4.9 C 0 km/h
674 21-11-2010 14:45:02 4.8 C 4.43 g/m*3 4.8 C 0 km/h
675 21-11-2010 14:57:02 4.8 C 4.36 g/m*3 4.8 C 0 km/h
Sensor: Nr:Datum:Temp:Abs-Feuchte:Windchill:Wind:
Aussen-T/F 676 21-11-2010 15:09:02 4.6 C 4.3 g/m*3 4.6 C 0 km/h
677 21-11-2010 15:21:01 4.5 C 4.27 g/m*3 4.5 C 0 km/h
678 21-11-2010 15:33:02 4.4 C 4.24 g/m*3 4.4 C 0 km/h
679 21-11-2010 15:45:02 4.4 C 4.31 g/m*3 4.4 C 0 km/h
680 21-11-2010 15:57:02 4.3 C 4.28 g/m*3 4.3 C 0 km/h
681 21-11-2010 16:09:02 4.3 C 4.28 g/m*3 4.3 C 0 km/h
682 21-11-2010 16:21:02 4.2 C 4.32 g/m*3 4.2 C 0 km/h
683 21-11-2010 16:33:02 4.2 C 4.45 g/m*3 4.2 C 0 km/h
684 21-11-2010 16:45:02 4.1 C 4.42 g/m*3 4.1 C 0 km/h
685 21-11-2010 16:57:02 4 C 4.45 g/m*3 4 C 0 km/h
686 21-11-2010 17:09:02 3.9 C 4.48 g/m*3 3.9 C 0 km/h
687 21-11-2010 17:21:02 3.9 C 4.55 g/m*3 3.9 C 0 km/h
688 21-11-2010 17:33:02 4 C 4.51 g/m*3 4 C 0 km/h
689 21-11-2010 17:45:02 4 C 4.45 g/m*3 4 C 0 km/h
690 21-11-2010 17:57:02 4 C 4.51 g/m*3 4 C 0 km/h
691 21-11-2010 18:09:01 4 C 4.51 g/m*3 4 C 0 km/h
692 21-11-2010 18:21:02 4 C 4.51 g/m*3 4 C 0 km/h
693 21-11-2010 18:33:02 4 C 4.51 g/m*3 4 C 0 km/h
694 21-11-2010 18:45:02 3.9 C 4.61 g/m*3 3.9 C 0 km/h
695 21-11-2010 18:57:02 3.9 C 4.67 g/m*3 3.9 C 0 km/h
696 21-11-2010 19:09:03 3.9 C 4.67 g/m*3 3.9 C 0 km/h
697 21-11-2010 19:21:02 4 C 4.64 g/m*3 4 C 0 km/h
698 21-11-2010 19:33:02 4.1 C 4.61 g/m*3 4.1 C 0 km/h
699 21-11-2010 19:45:02 4.1 C 4.54 g/m*3 4.1 C 0 km/h
700 21-11-2010 19:57:02 4.2 C 4.57 g/m*3 4.2 C 0 km/h
Sensor: Nr:Datum:Temp:Abs-Feuchte:Windchill:Wind:
Aussen-T/F 701 21-11-2010 20:09:02 4.3 C 4.61 g/m*3 4.3 C 0 km/h
702 21-11-2010 20:21:02 4.3 C 4.61 g/m*3 4.3 C 0 km/h
703 21-11-2010 20:33:02 4.3 C 4.54 g/m*3 4.3 C 0 km/h
704 21-11-2010 20:45:02 4.3 C 4.54 g/m*3 4.3 C 0 km/h
705 21-11-2010 20:57:02 4.3 C 4.48 g/m*3 4.3 C 0 km/h
706 21-11-2010 21:09:03 4.3 C 4.48 g/m*3 4.3 C 0 km/h
707 21-11-2010 21:21:02 4.3 C 4.48 g/m*3 4.3 C 0 km/h
708 21-11-2010 21:33:03 4.1 C 4.48 g/m*3 4.1 C 0 km/h
709 21-11-2010 21:45:02 4 C 4.51 g/m*3 4 C 0 km/h
710 21-11-2010 21:57:03 4.1 C 4.54 g/m*3 4.1 C 0 km/h
711 21-11-2010 22:09:02 3.9 C 4.55 g/m*3 3.9 C 0 km/h
712 21-11-2010 22:21:02 3.7 C 4.61 g/m*3 3.7 C 0 km/h
713 21-11-2010 22:33:01 3.8 C 4.71 g/m*3 3.8 C 0 km/h
714 21-11-2010 22:45:02 3.7 C 4.74 g/m*3 3.7 C 0 km/h
715 21-11-2010 22:57:02 3.7 C 4.67 g/m*3 3.7 C 0 km/h
716 21-11-2010 23:10:04 3.7 C 4.74 g/m*3 3.7 C 0 km/h
717 21-11-2010 23:22:04 3.7 C 4.8 g/m*3 3.7 C 0 km/h
718 21-11-2010 23:34:04 3.8 C 4.83 g/m*3 3.8 C 0 km/h
719 21-11-2010 23:46:04 3.8 C 4.83 g/m*3 3.8 C 0 km/h
720 21-11-2010 23:58:04 3.8 C 4.83 g/m*3 3.8 C 0 km/h
721 22-11-2010 00:10:04 3.9 C 4.93 g/m*3 3.9 C 0 km/h
722 22-11-2010 00:22:04 4.1 C 4.93 g/m*3 4.1 C 0 km/h
723 22-11-2010 00:34:04 4.1 C 4.93 g/m*3 4.1 C 0 km/h
724 22-11-2010 00:46:04 4.1 C 4.93 g/m*3 4.1 C 0 km/h
725 22-11-2010 00:58:04 4.1 C 4.93 g/m*3 4.1 C 0 km/h
Sensor: Nr:Datum:Temp:Abs-Feuchte:Windchill:Wind:
Aussen-T/F 726 22-11-2010 01:10:04 4.1 C 4.93 g/m*3 4.1 C 0 km/h
727 22-11-2010 01:22:04 4.1 C 4.93 g/m*3 4.1 C 0 km/h
728 22-11-2010 01:34:04 4.1 C 4.93 g/m*3 4.1 C 0 km/h
729 22-11-2010 01:46:04 4.1 C 4.93 g/m*3 4.1 C 0 km/h
730 22-11-2010 01:58:04 4 C 4.9 g/m*3 4 C 0 km/h
731 22-11-2010 02:10:04 4.1 C 4.93 g/m*3 4.1 C 0 km/h
732 22-11-2010 02:22:04 4.1 C 4.93 g/m*3 4.1 C 0 km/h
733 22-11-2010 02:34:04 4.2 C 5.03 g/m*3 4.2 C 0 km/h
734 22-11-2010 02:46:04 4.2 C 4.96 g/m*3 4.2 C 0 km/h
735 22-11-2010 02:58:04 4.2 C 5.03 g/m*3 4.2 C 0 km/h
736 22-11-2010 03:10:04 4.2 C 5.03 g/m*3 4.2 C 0 km/h
737 22-11-2010 03:22:05 4.3 C 5.06 g/m*3 4.3 C 0 km/h
738 22-11-2010 03:34:05 4.4 C 5.09 g/m*3 4.4 C 0 km/h
739 22-11-2010 03:46:05 4.6 C 5.1 g/m*3 4.6 C 0 km/h
740 22-11-2010 03:58:05 4.8 C 5.03 g/m*3 4.8 C 0 km/h
741 22-11-2010 04:10:05 4.9 C 5 g/m*3 4.9 C 0 km/h
742 22-11-2010 04:22:05 4.9 C 5 g/m*3 4.9 C 0 km/h
743 22-11-2010 04:34:05 4.9 C 5 g/m*3 4.9 C 0 km/h
744 22-11-2010 04:46:05 4.8 C 5.03 g/m*3 4.8 C 0 km/h
745 22-11-2010 04:58:05 4.8 C 5.03 g/m*3 4.8 C 0 km/h
746 22-11-2010 05:10:05 4.9 C 5 g/m*3 4.9 C 0 km/h
747 22-11-2010 05:22:05 4.9 C 5 g/m*3 4.9 C 0 km/h
748 22-11-2010 05:34:05 4.9 C 4.93 g/m*3 4.9 C 0 km/h
749 22-11-2010 05:46:05 4.9 C 4.93 g/m*3 4.9 C 0 km/h
750 22-11-2010 05:58:05 4.8 C 4.9 g/m*3 4.8 C 0 km/h
Sensor: Nr:Datum:Temp:Abs-Feuchte:Windchill:Wind:
Aussen-T/F 751 22-11-2010 06:10:05 4.7 C 4.86 g/m*3 4.7 C 0 km/h
752 22-11-2010 06:22:05 4.7 C 4.86 g/m*3 4.7 C 0 km/h
753 22-11-2010 06:34:05 4.7 C 4.86 g/m*3 4.7 C 0 km/h
754 22-11-2010 06:46:05 4.7 C 4.86 g/m*3 4.7 C 0 km/h
755 22-11-2010 06:58:05 4.7 C 4.86 g/m*3 4.7 C 0 km/h
756 22-11-2010 07:10:05 4.7 C 4.86 g/m*3 4.7 C 0 km/h
757 22-11-2010 07:22:03 4.7 C 4.8 g/m*3 4.7 C 0 km/h
758 22-11-2010 07:34:04 4.6 C 4.76 g/m*3 4.6 C 0 km/h
759 22-11-2010 07:46:02 4.6 C 4.76 g/m*3 4.6 C 0 km/h
760 22-11-2010 07:58:02 4.6 C 4.76 g/m*3 4.6 C 0 km/h
761 22-11-2010 08:10:02 4.6 C 4.83 g/m*3 4.6 C 0 km/h
762 22-11-2010 08:22:02 4.6 C 4.83 g/m*3 4.6 C 0 km/h
763 22-11-2010 08:34:02 4.6 C 4.76 g/m*3 4.6 C 0 km/h
764 22-11-2010 08:46:02 4.7 C 4.8 g/m*3 4.7 C 0 km/h
765 22-11-2010 08:58:02 4.7 C 4.8 g/m*3 4.7 C 0 km/h
766 22-11-2010 09:10:02 4.7 C 4.8 g/m*3 4.7 C 0 km/h
767 22-11-2010 09:22:02 4.7 C 4.8 g/m*3 4.7 C 0 km/h
768 22-11-2010 09:34:02 4.7 C 4.8 g/m*3 4.7 C 0 km/h
769 22-11-2010 09:46:01 4.8 C 4.83 g/m*3 4.8 C 0 km/h
770 22-11-2010 09:58:01 4.8 C 4.83 g/m*3 4.8 C 0 km/h
771 22-11-2010 10:10:02 4.9 C 4.86 g/m*3 4.9 C 0 km/h
772 22-11-2010 10:22:01 4.9 C 4.86 g/m*3 4.9 C 0 km/h
773 22-11-2010 10:34:01 4.8 C 4.83 g/m*3 4.8 C 0 km/h
774 22-11-2010 10:46:01 4.8 C 4.9 g/m*3 4.8 C 0 km/h
775 22-11-2010 10:58:01 4.7 C 4.86 g/m*3 4.7 C 0 km/h
Sensor: Nr:Datum:Temp:Abs-Feuchte:Windchill:Wind:
Aussen-T/F 776 22-11-2010 11:10:02 4.7 C 4.86 g/m*3 4.7 C 0 km/h
777 22-11-2010 11:22:01 4.6 C 4.9 g/m*3 4.6 C 0 km/h
778 22-11-2010 11:34:01 4.5 C 4.93 g/m*3 4.5 C 0 km/h
779 22-11-2010 11:46:01 4.3 C 4.99 g/m*3 4.3 C 0 km/h
780 22-11-2010 11:58:01 4.3 C 5.06 g/m*3 4.3 C 0 km/h
781 22-11-2010 12:10:01 4.3 C 5.19 g/m*3 4.3 C 0 km/h
782 22-11-2010 12:22:02 4.2 C 5.15 g/m*3 4.2 C 0 km/h
783 22-11-2010 12:34:01 4.2 C 5.22 g/m*3 4.2 C 0 km/h
784 22-11-2010 12:46:02 4.1 C 5.18 g/m*3 4.1 C 0 km/h
785 22-11-2010 12:58:02 4.2 C 5.28 g/m*3 4.2 C 0 km/h
786 22-11-2010 13:10:02 4.2 C 5.35 g/m*3 4.2 C 0 km/h
787 22-11-2010 13:22:02 4.2 C 5.35 g/m*3 4.2 C 0 km/h
788 22-11-2010 13:34:01 4.2 C 5.41 g/m*3 4.2 C 0 km/h
789 22-11-2010 13:46:02 4.2 C 5.35 g/m*3 4.2 C 0 km/h
790 22-11-2010 13:58:02 4.4 C 5.42 g/m*3 4.4 C 0 km/h
791 22-11-2010 14:10:01 4.5 C 5.39 g/m*3 4.5 C 0 km/h
792 22-11-2010 14:22:02 4.6 C 5.29 g/m*3 4.6 C 0 km/h
793 22-11-2010 14:34:02 4.8 C 5.3 g/m*3 4.8 C 0 km/h
794 22-11-2010 14:46:02 5 C 5.23 g/m*3 5 C 0 km/h
795 22-11-2010 14:58:02 5 C 5.03 g/m*3 5 C 0 km/h
796 22-11-2010 15:10:02 5 C 5.03 g/m*3 5 C 0 km/h
797 22-11-2010 15:22:02 5 C 5.03 g/m*3 5 C 0 km/h
798 22-11-2010 15:34:02 4.9 C 5.06 g/m*3 4.9 C 0 km/h
799 22-11-2010 15:46:02 4.8 C 5.03 g/m*3 4.8 C 0 km/h
800 22-11-2010 15:58:02 4.8 C 4.96 g/m*3 4.8 C 0 km/h
Sensor: Nr:Datum:Temp:Abs-Feuchte:Windchill:Wind:
Aussen-T/F 801 22-11-2010 16:10:02 4.6 C 4.9 g/m*3 4.6 C 0 km/h
802 22-11-2010 16:22:02 4.5 C 4.86 g/m*3 4.5 C 0 km/h
803 22-11-2010 16:34:02 4.3 C 4.86 g/m*3 4.3 C 0 km/h
804 22-11-2010 16:46:02 4.2 C 4.96 g/m*3 4.2 C 0 km/h
805 22-11-2010 16:58:02 4 C 4.96 g/m*3 4 C 0 km/h
806 22-11-2010 17:10:02 4 C 4.96 g/m*3 4 C 0 km/h
807 22-11-2010 17:22:02 3.9 C 4.99 g/m*3 3.9 C 0 km/h
808 22-11-2010 17:34:02 4 C 5.02 g/m*3 4 C 0 km/h
809 22-11-2010 17:46:02 4.1 C 4.99 g/m*3 4.1 C 0 km/h
810 22-11-2010 17:58:02 4.2 C 4.96 g/m*3 4.2 C 0 km/h
811 22-11-2010 18:10:02 4.2 C 4.96 g/m*3 4.2 C 0 km/h
812 22-11-2010 18:22:02 4.3 C 4.99 g/m*3 4.3 C 0 km/h
813 22-11-2010 18:34:01 4.3 C 4.93 g/m*3 4.3 C 0 km/h
814 22-11-2010 18:46:02 4.3 C 4.93 g/m*3 4.3 C 0 km/h
815 22-11-2010 18:58:02 4.3 C 4.93 g/m*3 4.3 C 0 km/h
816 22-11-2010 19:10:01 4.4 C 4.96 g/m*3 4.4 C 0 km/h
817 22-11-2010 19:22:02 4.4 C 4.9 g/m*3 4.4 C 0 km/h
818 22-11-2010 19:34:02 4.4 C 4.9 g/m*3 4.4 C 0 km/h
819 22-11-2010 19:46:02 4.4 C 4.83 g/m*3 4.4 C 0 km/h
820 22-11-2010 19:58:02 4.3 C 4.8 g/m*3 4.3 C 0 km/h
821 22-11-2010 20:10:02 4.4 C 4.83 g/m*3 4.4 C 0 km/h
822 22-11-2010 20:22:02 4.4 C 4.83 g/m*3 4.4 C 0 km/h
823 22-11-2010 20:34:02 4.4 C 4.77 g/m*3 4.4 C 0 km/h
824 22-11-2010 20:46:01 4.4 C 4.77 g/m*3 4.4 C 0 km/h
825 22-11-2010 20:58:01 4.5 C 4.8 g/m*3 4.5 C 0 km/h
Sensor: Nr:Datum:Temp:Abs-Feuchte:Windchill:Wind:
Aussen-T/F 826 22-11-2010 21:10:02 4.4 C 4.77 g/m*3 4.4 C 0 km/h
827 22-11-2010 21:22:01 4.4 C 4.83 g/m*3 4.4 C 0 km/h
828 22-11-2010 21:34:02 4.4 C 4.83 g/m*3 4.4 C 0 km/h
829 22-11-2010 21:46:01 4.4 C 4.83 g/m*3 4.4 C 0 km/h
830 22-11-2010 21:58:01 4.4 C 4.83 g/m*3 4.4 C 0 km/h
831 22-11-2010 22:10:02 4.5 C 4.86 g/m*3 4.5 C 0 km/h
832 22-11-2010 22:22:02 4.5 C 4.86 g/m*3 4.5 C 0 km/h
833 22-11-2010 22:34:01 4.5 C 4.93 g/m*3 4.5 C 0 km/h
834 22-11-2010 22:47:03 4.5 C 4.86 g/m*3 4.5 C 0 km/h
835 22-11-2010 22:59:03 4.5 C 4.93 g/m*3 4.5 C 0 km/h
836 22-11-2010 23:11:03 4.4 C 4.9 g/m*3 4.4 C 0 km/h
837 22-11-2010 23:23:03 4.5 C 4.93 g/m*3 4.5 C 0 km/h
838 22-11-2010 23:35:03 4.4 C 4.96 g/m*3 4.4 C 0 km/h
839 22-11-2010 23:47:04 4.3 C 4.93 g/m*3 4.3 C 0 km/h
840 22-11-2010 23:59:04 4.4 C 4.96 g/m*3 4.4 C 0 km/h
841 23-11-2010 00:11:04 4.4 C 4.96 g/m*3 4.4 C 0 km/h
842 23-11-2010 00:23:04 4.4 C 4.96 g/m*3 4.4 C 0 km/h
843 23-11-2010 00:35:04 4.5 C 4.93 g/m*3 4.5 C 0 km/h
844 23-11-2010 00:47:04 4.5 C 4.93 g/m*3 4.5 C 0 km/h
845 23-11-2010 00:59:04 4.4 C 4.9 g/m*3 4.4 C 0 km/h
846 23-11-2010 01:11:04 4.5 C 4.93 g/m*3 4.5 C 0 km/h
847 23-11-2010 01:23:04 4.5 C 4.86 g/m*3 4.5 C 0 km/h
848 23-11-2010 01:35:04 4.5 C 4.86 g/m*3 4.5 C 0 km/h
849 23-11-2010 01:47:04 4.4 C 4.83 g/m*3 4.4 C 0 km/h
850 23-11-2010 01:59:04 4.4 C 4.77 g/m*3 4.4 C 0 km/h
Sensor: Nr:Datum:Temp:Abs-Feuchte:Windchill:Wind:
Aussen-T/F 851 23-11-2010 02:11:04 4.3 C 4.74 g/m*3 4.3 C 0 km/h
852 23-11-2010 02:23:04 4.3 C 4.8 g/m*3 4.3 C 0 km/h
853 23-11-2010 02:35:04 4.3 C 4.61 g/m*3 4.3 C 0 km/h
854 23-11-2010 02:47:04 4.2 C 4.51 g/m*3 4.2 C 0 km/h
855 23-11-2010 02:59:04 4.2 C 4.45 g/m*3 4.2 C 0 km/h
856 23-11-2010 03:11:04 4.2 C 4.45 g/m*3 4.2 C 0 km/h
857 23-11-2010 03:23:04 4.1 C 4.42 g/m*3 4.1 C 0 km/h
858 23-11-2010 03:35:04 4.2 C 4.38 g/m*3 4.2 C 0 km/h
859 23-11-2010 03:47:04 4 C 4.39 g/m*3 4 C 0 km/h
860 23-11-2010 03:59:04 3.9 C 4.48 g/m*3 3.9 C 0 km/h
861 23-11-2010 04:11:04 3.8 C 4.39 g/m*3 3.8 C 0 km/h
862 23-11-2010 04:23:05 3.8 C 4.45 g/m*3 3.8 C 0 km/h
863 23-11-2010 04:35:05 3.7 C 4.55 g/m*3 3.7 C 0 km/h
864 23-11-2010 04:47:05 3.6 C 4.58 g/m*3 3.6 C 0 km/h
865 23-11-2010 04:59:05 3.5 C 4.61 g/m*3 3.5 C 0 km/h
866 23-11-2010 05:11:05 3.5 C 4.55 g/m*3 3.5 C 0 km/h
867 23-11-2010 05:23:05 3.5 C 4.61 g/m*3 3.5 C 0 km/h
868 23-11-2010 05:35:05 3.4 C 4.58 g/m*3 3.4 C 0 km/h
869 23-11-2010 05:47:05 2.9 C 4.67 g/m*3 2.9 C 0 km/h
870 23-11-2010 05:59:05 2.7 C 4.84 g/m*3 2.7 C 0 km/h
871 23-11-2010 06:11:05 2.6 C 4.92 g/m*3 2.6 C 0 km/h
872 23-11-2010 06:23:05 2.7 C 4.95 g/m*3 2.7 C 0 km/h
873 23-11-2010 06:35:05 2.6 C 5.03 g/m*3 2.6 C 0 km/h
874 23-11-2010 06:47:05 2.7 C 5.07 g/m*3 2.7 C 0 km/h
875 23-11-2010 06:59:05 2.7 C 5.07 g/m*3 2.7 C 0 km/h
Sensor: Nr:Datum:Temp:Abs-Feuchte:Windchill:Wind:
Aussen-T/F 876 23-11-2010 07:11:05 2.6 C 5.09 g/m*3 2.6 C 0 km/h
877 23-11-2010 07:23:02 2.8 C 5.16 g/m*3 2.8 C 0 km/h
878 23-11-2010 07:35:03 3.1 C 5.09 g/m*3 3.1 C 0 km/h
879 23-11-2010 07:47:02 3.2 C 5.06 g/m*3 3.2 C 0 km/h
880 23-11-2010 07:59:02 3.1 C 4.97 g/m*3 3.1 C 0 km/h
881 23-11-2010 08:11:02 3.1 C 4.91 g/m*3 3.1 C 0 km/h
882 23-11-2010 08:23:01 3 C 4.88 g/m*3 3 C 0 km/h
883 23-11-2010 08:35:02 3.1 C 4.97 g/m*3 3.1 C 0 km/h
884 23-11-2010 08:47:02 3.3 C 4.85 g/m*3 3.3 C 0 km/h
885 23-11-2010 08:59:02 3.4 C 4.83 g/m*3 3.4 C 0 km/h
886 23-11-2010 09:11:03 3.6 C 4.77 g/m*3 3.6 C 0 km/h
887 23-11-2010 09:23:02 3.7 C 4.74 g/m*3 3.7 C 0 km/h
888 23-11-2010 09:35:02 3.6 C 4.77 g/m*3 3.6 C 0 km/h
889 23-11-2010 09:47:01 3.7 C 4.8 g/m*3 3.7 C 0 km/h
890 23-11-2010 09:59:01 3.8 C 4.71 g/m*3 3.8 C 0 km/h
891 23-11-2010 10:11:02 4 C 4.64 g/m*3 4 C 0 km/h
892 23-11-2010 10:23:01 4.1 C 4.61 g/m*3 4.1 C 0 km/h
893 23-11-2010 10:35:01 4.3 C 4.54 g/m*3 4.3 C 0 km/h
894 23-11-2010 10:47:01 4.4 C 4.57 g/m*3 4.4 C 0 km/h
895 23-11-2010 10:59:01 4.5 C 4.54 g/m*3 4.5 C 0 km/h
896 23-11-2010 11:11:02 4.4 C 4.57 g/m*3 4.4 C 0 km/h
897 23-11-2010 11:23:02 4.7 C 4.73 g/m*3 4.7 C 0 km/h
898 23-11-2010 11:35:01 4.8 C 4.76 g/m*3 4.8 C 0 km/h
899 23-11-2010 11:47:01 4.9 C 4.66 g/m*3 4.9 C 0 km/h
900 23-11-2010 11:59:01 4.8 C 4.56 g/m*3 4.8 C 0 km/h
Sensor: Nr:Datum:Temp:Abs-Feuchte:Windchill:Wind:
Aussen-T/F 901 23-11-2010 12:11:01 5.2 C 4.61 g/m*3 5.2 C 0 km/h
902 23-11-2010 12:23:01 5.2 C 4.48 g/m*3 5.2 C 0 km/h
903 23-11-2010 12:35:01 5.1 C 4.38 g/m*3 5.1 C 0 km/h
904 23-11-2010 12:47:01 5.4 C 4.47 g/m*3 5.4 C 0 km/h
905 23-11-2010 12:59:01 5.5 C 4.42 g/m*3 5.5 C 0 km/h
906 23-11-2010 13:11:02 5.8 C 4.44 g/m*3 5.8 C 0 km/h
907 23-11-2010 13:23:01 6 C 4.43 g/m*3 6 C 0 km/h
908 23-11-2010 13:35:02 6.2 C 4.34 g/m*3 6.2 C 0 km/h
909 23-11-2010 13:47:01 6.1 C 4.31 g/m*3 6.1 C 0 km/h
910 23-11-2010 13:59:01 6.1 C 4.31 g/m*3 6.1 C 0 km/h
911 23-11-2010 14:11:02 5.9 C 4.25 g/m*3 5.9 C 0 km/h
912 23-11-2010 14:23:01 5.8 C 4.23 g/m*3 5.8 C 0 km/h
913 23-11-2010 14:35:02 5.7 C 4.27 g/m*3 5.7 C 0 km/h
914 23-11-2010 14:47:01 5.7 C 4.27 g/m*3 5.7 C 0 km/h
915 23-11-2010 14:59:01 5.6 C 4.24 g/m*3 5.6 C 0 km/h
916 23-11-2010 15:11:02 5.7 C 4.2 g/m*3 5.7 C 0 km/h
917 23-11-2010 15:23:02 5.6 C 4.17 g/m*3 5.6 C 0 km/h
918 23-11-2010 15:35:01 5.6 C 4.24 g/m*3 5.6 C 0 km/h
919 23-11-2010 15:47:02 5.5 C 4.28 g/m*3 5.5 C 0 km/h
920 23-11-2010 15:59:02 5.3 C 4.37 g/m*3 5.3 C 0 km/h
921 23-11-2010 16:11:01 5.3 C 4.44 g/m*3 5.3 C 0 km/h
922 23-11-2010 16:23:02 5.4 C 4.47 g/m*3 5.4 C 0 km/h
923 23-11-2010 16:35:01 5.4 C 4.47 g/m*3 5.4 C 0 km/h
924 23-11-2010 16:47:03 5.5 C 4.49 g/m*3 5.5 C 0 km/h
925 23-11-2010 16:59:03 5.3 C 4.51 g/m*3 5.3 C 0 km/h
Sensor: Nr:Datum:Temp:Abs-Feuchte:Windchill:Wind:
Aussen-T/F 926 23-11-2010 17:11:02 5.3 C 4.51 g/m*3 5.3 C 0 km/h
927 23-11-2010 17:23:02 5.3 C 4.51 g/m*3 5.3 C 0 km/h
928 23-11-2010 17:35:02 5.3 C 4.44 g/m*3 5.3 C 0 km/h
929 23-11-2010 17:47:02 5.4 C 4.4 g/m*3 5.4 C 0 km/h
930 23-11-2010 17:59:03 5.3 C 4.44 g/m*3 5.3 C 0 km/h
931 23-11-2010 18:11:01 5.2 C 4.48 g/m*3 5.2 C 0 km/h
932 23-11-2010 18:23:02 5.4 C 4.47 g/m*3 5.4 C 0 km/h
933 23-11-2010 18:35:02 5.2 C 4.41 g/m*3 5.2 C 0 km/h
934 23-11-2010 18:47:02 5.4 C 4.33 g/m*3 5.4 C 0 km/h
935 23-11-2010 18:59:02 5.2 C 4.41 g/m*3 5.2 C 0 km/h
936 23-11-2010 19:11:03 5.2 C 4.48 g/m*3 5.2 C 0 km/h
937 23-11-2010 19:23:02 5.3 C 4.51 g/m*3 5.3 C 0 km/h
938 23-11-2010 19:35:02 5.2 C 4.48 g/m*3 5.2 C 0 km/h
939 23-11-2010 19:47:01 5.1 C 4.51 g/m*3 5.1 C 0 km/h
940 23-11-2010 19:59:01 5.2 C 4.54 g/m*3 5.2 C 0 km/h
941 23-11-2010 20:11:02 5 C 4.48 g/m*3 5 C 0 km/h
942 23-11-2010 20:23:01 5.2 C 4.48 g/m*3 5.2 C 0 km/h
943 23-11-2010 20:35:02 5.2 C 4.41 g/m*3 5.2 C 0 km/h
944 23-11-2010 20:47:01 5.2 C 4.34 g/m*3 5.2 C 0 km/h
945 23-11-2010 20:59:01 5.1 C 4.58 g/m*3 5.1 C 0 km/h
946 23-11-2010 21:11:02 4.8 C 4.49 g/m*3 4.8 C 0 km/h
947 23-11-2010 21:23:01 5.1 C 4.31 g/m*3 5.1 C 0 km/h
948 23-11-2010 21:35:02 5 C 4.28 g/m*3 5 C 0 km/h
949 23-11-2010 21:47:01 5 C 4.28 g/m*3 5 C 0 km/h
950 23-11-2010 21:59:01 5 C 4.28 g/m*3 5 C 0 km/h
Sensor: Nr:Datum:Temp:Abs-Feuchte:Windchill:Wind:
Aussen-T/F 951 23-11-2010 22:12:03 5 C 4.28 g/m*3 5 C 0 km/h
952 23-11-2010 22:24:03 5 C 4.28 g/m*3 5 C 0 km/h
953 23-11-2010 22:36:03 4.9 C 4.39 g/m*3 4.9 C 0 km/h
954 23-11-2010 22:48:03 4.9 C 4.39 g/m*3 4.9 C 0 km/h
955 23-11-2010 23:00:03 4.8 C 4.36 g/m*3 4.8 C 0 km/h
956 23-11-2010 23:12:03 4.8 C 4.36 g/m*3 4.8 C 0 km/h
957 23-11-2010 23:24:03 4.6 C 4.37 g/m*3 4.6 C 0 km/h
958 23-11-2010 23:36:03 4.6 C 4.43 g/m*3 4.6 C 0 km/h
959 23-11-2010 23:48:03 4.4 C 4.44 g/m*3 4.4 C 0 km/h
960 24-11-2010 00:00:03 4.2 C 4.45 g/m*3 4.2 C 0 km/h
961 24-11-2010 00:12:03 4.4 C 4.51 g/m*3 4.4 C 0 km/h
962 24-11-2010 00:24:03 4.4 C 4.44 g/m*3 4.4 C 0 km/h
963 24-11-2010 00:36:03 4.3 C 4.41 g/m*3 4.3 C 0 km/h
964 24-11-2010 00:48:04 4.3 C 4.41 g/m*3 4.3 C 0 km/h
965 24-11-2010 01:00:04 4.3 C 4.41 g/m*3 4.3 C 0 km/h
966 24-11-2010 01:12:04 4.3 C 4.41 g/m*3 4.3 C 0 km/h
967 24-11-2010 01:24:04 3.6 C 4.39 g/m*3 3.6 C 0 km/h
968 24-11-2010 01:36:04 3.6 C 4.52 g/m*3 3.6 C 0 km/h
969 24-11-2010 01:48:04 4 C 4.58 g/m*3 4 C 0 km/h
970 24-11-2010 02:00:04 3.5 C 4.49 g/m*3 3.5 C 0 km/h
971 24-11-2010 02:12:04 3.4 C 4.52 g/m*3 3.4 C 0 km/h
972 24-11-2010 02:24:04 3.5 C 4.55 g/m*3 3.5 C 0 km/h
973 24-11-2010 02:36:04 3.3 C 4.43 g/m*3 3.3 C 0 km/h
974 24-11-2010 02:48:04 3.4 C 4.52 g/m*3 3.4 C 0 km/h
975 24-11-2010 03:00:04 3.5 C 4.49 g/m*3 3.5 C 0 km/h
Sensor: Nr:Datum:Temp:Abs-Feuchte:Windchill:Wind:
Aussen-T/F 976 24-11-2010 03:12:04 3.5 C 4.61 g/m*3 3.5 C 0 km/h
977 24-11-2010 03:24:04 3.5 C 4.61 g/m*3 3.5 C 0 km/h
978 24-11-2010 03:36:04 3.5 C 4.67 g/m*3 3.5 C 0 km/h
979 24-11-2010 03:48:04 3.6 C 4.7 g/m*3 3.6 C 0 km/h
980 24-11-2010 04:00:04 3.6 C 4.7 g/m*3 3.6 C 0 km/h
981 24-11-2010 04:12:04 3.5 C 4.67 g/m*3 3.5 C 0 km/h
982 24-11-2010 04:24:04 3.5 C 4.73 g/m*3 3.5 C 0 km/h
983 24-11-2010 04:36:04 3.4 C 4.7 g/m*3 3.4 C 0 km/h
984 24-11-2010 04:48:05 3.3 C 4.79 g/m*3 3.3 C 0 km/h
985 24-11-2010 05:00:05 3.1 C 4.85 g/m*3 3.1 C 0 km/h
986 24-11-2010 05:12:05 2.9 C 4.96 g/m*3 2.9 C 0 km/h
987 24-11-2010 05:24:05 2.9 C 5.02 g/m*3 2.9 C 0 km/h
988 24-11-2010 05:36:05 2.8 C 5.04 g/m*3 2.8 C 0 km/h
989 24-11-2010 05:48:05 2.9 C 5.14 g/m*3 2.9 C 0 km/h
990 24-11-2010 06:00:05 3 C 5.11 g/m*3 3 C 0 km/h
991 24-11-2010 06:12:05 3.2 C 5.12 g/m*3 3.2 C 0 km/h
992 24-11-2010 06:24:05 3.2 C 5.06 g/m*3 3.2 C 0 km/h
993 24-11-2010 06:36:05 3.3 C 5.04 g/m*3 3.3 C 0 km/h
994 24-11-2010 06:48:05 3.3 C 5.04 g/m*3 3.3 C 0 km/h
995 24-11-2010 07:00:05 3.4 C 5.01 g/m*3 3.4 C 0 km/h
996 24-11-2010 07:12:02 3.4 C 5.01 g/m*3 3.4 C 0 km/h
997 24-11-2010 07:24:03 3.3 C 5.04 g/m*3 3.3 C 0 km/h
998 24-11-2010 07:36:03 3.2 C 5 g/m*3 3.2 C 0 km/h
999 24-11-2010 07:48:01 3.4 C 5.01 g/m*3 3.4 C 0 km/h
1000 24-11-2010 08:00:01 3.5 C 5.04 g/m*3 3.5 C 0 km/h
Sensor: Nr:Datum:Temp:Abs-Feuchte:Windchill:Wind:
Aussen-T/F 1001 24-11-2010 08:12:01 3.4 C 4.95 g/m*3 3.4 C 0 km/h
1002 24-11-2010 08:24:01 3.3 C 5.04 g/m*3 3.3 C 0 km/h
1003 24-11-2010 08:36:02 3.3 C 5.1 g/m*3 3.3 C 0 km/h
1004 24-11-2010 08:48:02 3.6 C 5.26 g/m*3 3.6 C 0 km/h
1005 24-11-2010 09:00:02 3.6 C 5.14 g/m*3 3.6 C 0 km/h
1006 24-11-2010 09:12:02 4.1 C 5.06 g/m*3 4.1 C 0 km/h
1007 24-11-2010 09:24:01 4.3 C 4.93 g/m*3 4.3 C 0 km/h
1008 24-11-2010 09:36:02 4.5 C 4.93 g/m*3 4.5 C 0 km/h
1009 24-11-2010 09:48:02 4.6 C 4.9 g/m*3 4.6 C 0 km/h
1010 24-11-2010 10:00:02 4.8 C 4.83 g/m*3 4.8 C 0 km/h
1011 24-11-2010 10:12:02 5.1 C 4.72 g/m*3 5.1 C 0 km/h
1012 24-11-2010 10:24:02 5.2 C 4.68 g/m*3 5.2 C 0 km/h
1013 24-11-2010 10:36:01 5.4 C 4.67 g/m*3 5.4 C 0 km/h
1014 24-11-2010 10:48:02 5.6 C 4.6 g/m*3 5.6 C 0 km/h
1015 24-11-2010 11:00:02 5.7 C 4.63 g/m*3 5.7 C 0 km/h
1016 24-11-2010 11:12:01 4.9 C 4.73 g/m*3 4.9 C 0 km/h
1017 24-11-2010 11:24:01 4.9 C 4.86 g/m*3 4.9 C 0 km/h
1018 24-11-2010 11:36:02 5 C 4.89 g/m*3 5 C 0 km/h
1019 24-11-2010 11:48:02 5.6 C 4.81 g/m*3 5.6 C 0 km/h
1020 24-11-2010 12:00:02 5.6 C 4.6 g/m*3 5.6 C 0 km/h
1021 24-11-2010 12:12:01 5.8 C 4.58 g/m*3 5.8 C 0 km/h
1022 24-11-2010 12:24:02 6.1 C 4.53 g/m*3 6.1 C 0 km/h
1023 24-11-2010 12:36:02 5.9 C 4.61 g/m*3 5.9 C 0 km/h
1024 24-11-2010 12:48:01 5.6 C 4.52 g/m*3 5.6 C 0 km/h
1025 24-11-2010 13:00:01 5.6 C 4.6 g/m*3 5.6 C 0 km/h
Sensor: Nr:Datum:Temp:Abs-Feuchte:Windchill:Wind:
Aussen-T/F 1026 24-11-2010 13:12:02 5.6 C 4.67 g/m*3 5.6 C 0 km/h
1027 24-11-2010 13:24:01 5.4 C 4.54 g/m*3 5.4 C 0 km/h
1028 24-11-2010 13:36:01 5.1 C 4.58 g/m*3 5.1 C 0 km/h
1029 24-11-2010 13:48:01 5.1 C 4.65 g/m*3 5.1 C 0 km/h
1030 24-11-2010 14:00:01 4.9 C 4.73 g/m*3 4.9 C 0 km/h
1031 24-11-2010 14:12:02 4.7 C 5 g/m*3 4.7 C 0 km/h
1032 24-11-2010 14:24:01 4.5 C 5.19 g/m*3 4.5 C 0 km/h
1033 24-11-2010 14:36:01 4.3 C 5.25 g/m*3 4.3 C 0 km/h
1034 24-11-2010 14:48:01 4 C 5.21 g/m*3 4 C 0 km/h
1035 24-11-2010 15:00:01 3.5 C 5.04 g/m*3 3.5 C 0 km/h
1036 24-11-2010 15:12:02 3.4 C 5.13 g/m*3 3.4 C 0 km/h
1037 24-11-2010 15:24:02 3.5 C 5.29 g/m*3 3.5 C 0 km/h
1038 24-11-2010 15:36:01 3.5 C 5.35 g/m*3 3.5 C 0 km/h
1039 24-11-2010 15:48:02 3.5 C 5.41 g/m*3 3.5 C 0 km/h
1040 24-11-2010 16:00:02 3.5 C 5.41 g/m*3 3.5 C 0 km/h
1041 24-11-2010 16:12:01 3.5 C 5.35 g/m*3 3.5 C 0 km/h
1042 24-11-2010 16:24:02 3.3 C 5.16 g/m*3 3.3 C 0 km/h
1043 24-11-2010 16:36:01 3.1 C 5.09 g/m*3 3.1 C 0 km/h
1044 24-11-2010 16:48:02 3.1 C 5.09 g/m*3 3.1 C 0 km/h
1045 24-11-2010 17:00:02 3 C 5.05 g/m*3 3 C 0 km/h
1046 24-11-2010 17:12:02 3 C 5.05 g/m*3 3 C 0 km/h
1047 24-11-2010 17:24:02 2.4 C 4.91 g/m*3 2.4 C 0 km/h
1048 24-11-2010 17:36:02 1.6 C 4.7 g/m*3 1.6 C 0 km/h
1049 24-11-2010 17:48:02 1.4 C 4.69 g/m*3 1.4 C 0 km/h
1050 24-11-2010 18:00:02 1.4 C 4.75 g/m*3 1.4 C 0 km/h
Sensor: Nr:Datum:Temp:Abs-Feuchte:Windchill:Wind:
Aussen-T/F 1051 24-11-2010 18:12:01 1.5 C 4.83 g/m*3 1.5 C 0 km/h
1052 24-11-2010 18:24:01 1.6 C 4.92 g/m*3 1.6 C 0 km/h
1053 24-11-2010 18:36:02 1.7 C 4.95 g/m*3 1.7 C 0 km/h
1054 24-11-2010 18:48:02 2 C 5.06 g/m*3 2 C 0 km/h
1055 24-11-2010 19:00:02 2 C 5.06 g/m*3 2 C 0 km/h
1056 24-11-2010 19:12:02 2.2 C 5.13 g/m*3 2.2 C 0 km/h
1057 24-11-2010 19:24:02 2.1 C 5.09 g/m*3 2.1 C 0 km/h
1058 24-11-2010 19:36:02 1.9 C 5.08 g/m*3 1.9 C 0 km/h
1059 24-11-2010 19:48:02 1.9 C 5.08 g/m*3 1.9 C 0 km/h
1060 24-11-2010 20:00:02 1.5 C 4.94 g/m*3 1.5 C 0 km/h
1061 24-11-2010 20:12:02 1.3 C 4.87 g/m*3 1.3 C 0 km/h
1062 24-11-2010 20:24:02 1.4 C 4.91 g/m*3 1.4 C 0 km/h
1063 24-11-2010 20:36:02 1.3 C 4.87 g/m*3 1.3 C 0 km/h
1064 24-11-2010 20:48:02 1.6 C 4.97 g/m*3 1.6 C 0 km/h
1065 24-11-2010 21:00:02 1.9 C 5.08 g/m*3 1.9 C 0 km/h
1066 24-11-2010 21:12:02 1.3 C 4.87 g/m*3 1.3 C 0 km/h
1067 24-11-2010 21:24:02 1 C 4.78 g/m*3 1 C 0 km/h
1068 24-11-2010 21:36:03 1.2 C 4.84 g/m*3 1.2 C 0 km/h
1069 24-11-2010 21:49:04 1.7 C 5.01 g/m*3 1.7 C 0 km/h
1070 24-11-2010 22:01:04 2 C 5.11 g/m*3 2 C 0 km/h
1071 24-11-2010 22:13:04 2.2 C 5.18 g/m*3 2.2 C 0 km/h
1072 24-11-2010 22:25:04 2.3 C 5.22 g/m*3 2.3 C 0 km/h
1073 24-11-2010 22:37:05 2.1 C 5.09 g/m*3 2.1 C 0 km/h
1074 24-11-2010 22:49:05 2.1 C 5.04 g/m*3 2.1 C 0 km/h
1075 24-11-2010 23:01:05 2.1 C 5.04 g/m*3 2.1 C 0 km/h
Sensor: Nr:Datum:Temp:Abs-Feuchte:Windchill:Wind:
Aussen-T/F 1076 24-11-2010 23:13:05 2.1 C 4.98 g/m*3 2.1 C 0 km/h
1077 24-11-2010 23:25:05 2.6 C 5.15 g/m*3 2.6 C 0 km/h
1078 24-11-2010 23:37:05 2.6 C 5.09 g/m*3 2.6 C 0 km/h
1079 24-11-2010 23:49:05 2.6 C 5.03 g/m*3 2.6 C 0 km/h
1080 25-11-2010 00:01:05 2.4 C 4.91 g/m*3 2.4 C 0 km/h
1081 25-11-2010 00:13:05 2.6 C 4.98 g/m*3 2.6 C 0 km/h
1082 25-11-2010 00:25:05 2.4 C 4.91 g/m*3 2.4 C 0 km/h
1083 25-11-2010 00:37:05 2.5 C 4.94 g/m*3 2.5 C 0 km/h
1084 25-11-2010 00:49:05 2.6 C 4.92 g/m*3 2.6 C 0 km/h
1085 25-11-2010 01:01:05 2.6 C 4.92 g/m*3 2.6 C 0 km/h
1086 25-11-2010 01:13:05 3.1 C 4.97 g/m*3 3.1 C 0 km/h
1087 25-11-2010 01:25:05 3 C 4.76 g/m*3 3 C 0 km/h
1088 25-11-2010 01:37:05 2.9 C 4.78 g/m*3 2.9 C 0 km/h
1089 25-11-2010 01:49:05 3.1 C 4.67 g/m*3 3.1 C 0 km/h
1090 25-11-2010 02:01:05 3 C 4.52 g/m*3 3 C 0 km/h
1091 25-11-2010 02:13:05 2.9 C 4.55 g/m*3 2.9 C 0 km/h
1092 25-11-2010 02:25:05 2.7 C 4.54 g/m*3 2.7 C 0 km/h
1093 25-11-2010 02:37:05 2.6 C 4.57 g/m*3 2.6 C 0 km/h
1094 25-11-2010 02:49:06 2.6 C 4.57 g/m*3 2.6 C 0 km/h
1095 25-11-2010 03:01:06 2.5 C 4.6 g/m*3 2.5 C 0 km/h
1096 25-11-2010 03:13:06 3 C 4.52 g/m*3 3 C 0 km/h
1097 25-11-2010 03:25:06 3.1 C 4.37 g/m*3 3.1 C 0 km/h
1098 25-11-2010 03:37:06 2.9 C 4.31 g/m*3 2.9 C 0 km/h
1099 25-11-2010 03:49:06 2.6 C 4.34 g/m*3 2.6 C 0 km/h
1100 25-11-2010 04:01:06 2.5 C 4.31 g/m*3 2.5 C 0 km/h
Sensor: Nr:Datum:Temp:Abs-Feuchte:Windchill:Wind:
Aussen-T/F 1101 25-11-2010 04:13:06 2 C 4.17 g/m*3 2 C 0 km/h
1102 25-11-2010 04:25:06 1.9 C 4.19 g/m*3 1.9 C 0 km/h
1103 25-11-2010 04:37:06 1.7 C 4.14 g/m*3 1.7 C 0 km/h
1104 25-11-2010 04:49:06 2 C 4.17 g/m*3 2 C 0 km/h
1105 25-11-2010 05:01:06 1.5 C 4.03 g/m*3 1.5 C 0 km/h
1106 25-11-2010 05:13:06 1.4 C 4.11 g/m*3 1.4 C 0 km/h
1107 25-11-2010 05:25:06 1.7 C 4.19 g/m*3 1.7 C 0 km/h
1108 25-11-2010 05:37:06 0.9 C 4.02 g/m*3 0.9 C 0 km/h
1109 25-11-2010 05:49:06 1 C 4.05 g/m*3 1 C 0 km/h
1110 25-11-2010 06:01:06 0.9 C 4.02 g/m*3 0.9 C 0 km/h
1111 25-11-2010 06:13:06 1.4 C 4.21 g/m*3 1.4 C 0 km/h
1112 25-11-2010 06:25:06 0.7 C 4.12 g/m*3 0.7 C 0 km/h
1113 25-11-2010 06:37:06 0.1 C 4.05 g/m*3 0.1 C 0 km/h
1114 25-11-2010 06:49:06 0.2 C 4.18 g/m*3 0.2 C 0 km/h
1115 25-11-2010 07:01:07 0.3 C 4.25 g/m*3 0.3 C 0 km/h
1116 25-11-2010 07:13:07 0.3 C 4.3 g/m*3 0.3 C 0 km/h
1117 25-11-2010 07:25:04 0.2 C 4.27 g/m*3 0.2 C 0 km/h
1118 25-11-2010 07:37:04 -0.2 C 4.21 g/m*3 -0.2 C 0 km/h
1119 25-11-2010 07:49:02 -0.3 C 4.18 g/m*3 -0.3 C 0 km/h
1120 25-11-2010 08:01:01 -0.4 C 4.15 g/m*3 -0.4 C 0 km/h
1121 25-11-2010 08:13:01 -0.2 C 4.25 g/m*3 -0.2 C 0 km/h
1122 25-11-2010 08:25:02 -0.4 C 4.19 g/m*3 -0.4 C 0 km/h
1123 25-11-2010 08:37:02 -0.4 C 4.19 g/m*3 -0.4 C 0 km/h
1124 25-11-2010 08:49:02 0 C 4.36 g/m*3 0 C 0 km/h
1125 25-11-2010 09:01:02 0.4 C 4.48 g/m*3 0.4 C 0 km/h
Sensor: Nr:Datum:Temp:Abs-Feuchte:Windchill:Wind:
Aussen-T/F 1126 25-11-2010 09:13:02 0.5 C 4.46 g/m*3 0.5 C 0 km/h
1127 25-11-2010 09:25:01 0.7 C 4.47 g/m*3 0.7 C 0 km/h
1128 25-11-2010 09:37:01 0.7 C 4.42 g/m*3 0.7 C 0 km/h
1129 25-11-2010 09:49:03 0.6 C 4.39 g/m*3 0.6 C 0 km/h
1130 25-11-2010 10:01:02 0.4 C 4.28 g/m*3 0.4 C 0 km/h
1131 25-11-2010 10:13:02 0.6 C 4.39 g/m*3 0.6 C 0 km/h
1132 25-11-2010 10:25:02 0.9 C 4.48 g/m*3 0.9 C 0 km/h
1133 25-11-2010 10:37:02 1 C 4.46 g/m*3 1 C 0 km/h
1134 25-11-2010 10:49:02 1.1 C 4.49 g/m*3 1.1 C 0 km/h
1135 25-11-2010 11:01:01 1.2 C 4.47 g/m*3 1.2 C 0 km/h
1136 25-11-2010 11:13:01 1.4 C 4.53 g/m*3 1.4 C 0 km/h
1137 25-11-2010 11:25:02 1.9 C 4.58 g/m*3 1.9 C 0 km/h
1138 25-11-2010 11:37:02 2.2 C 4.56 g/m*3 2.2 C 0 km/h
1139 25-11-2010 11:49:02 2.1 C 4.48 g/m*3 2.1 C 0 km/h
1140 25-11-2010 12:01:02 1.7 C 4.41 g/m*3 1.7 C 0 km/h
1141 25-11-2010 12:13:02 1.5 C 4.4 g/m*3 1.5 C 0 km/h
1142 25-11-2010 12:25:02 1.4 C 4.43 g/m*3 1.4 C 0 km/h
1143 25-11-2010 12:37:02 2.4 C 4.74 g/m*3 2.4 C 0 km/h
1144 25-11-2010 12:49:01 3 C 4.58 g/m*3 3 C 0 km/h
1145 25-11-2010 13:01:02 3.3 C 4.43 g/m*3 3.3 C 0 km/h
1146 25-11-2010 13:13:03 3.4 C 4.28 g/m*3 3.4 C 0 km/h
1147 25-11-2010 13:25:01 3.6 C 4.15 g/m*3 3.6 C 0 km/h
1148 25-11-2010 13:37:01 3.5 C 4.12 g/m*3 3.5 C 0 km/h
1149 25-11-2010 13:49:01 3.6 C 4.15 g/m*3 3.6 C 0 km/h
1150 25-11-2010 14:01:01 3.6 C 4.09 g/m*3 3.6 C 0 km/h
Sensor: Nr:Datum:Temp:Abs-Feuchte:Windchill:Wind:
Aussen-T/F 1151 25-11-2010 14:13:01 3.7 C 4.11 g/m*3 3.7 C 0 km/h
1152 25-11-2010 14:25:02 3.7 C 4.05 g/m*3 3.7 C 0 km/h
1153 25-11-2010 14:37:01 3.6 C 4.09 g/m*3 3.6 C 0 km/h
1154 25-11-2010 14:49:02 3.7 C 3.8 g/m*3 3.7 C 0 km/h
1155 25-11-2010 15:01:01 3.8 C 3.89 g/m*3 3.8 C 0 km/h
1156 25-11-2010 15:13:01 3.8 C 3.89 g/m*3 3.8 C 0 km/h
1157 25-11-2010 15:25:01 3.5 C 3.75 g/m*3 3.5 C 0 km/h
1158 25-11-2010 15:37:01 2.9 C 4.07 g/m*3 2.9 C 0 km/h
1159 25-11-2010 15:49:02 2.4 C 4.17 g/m*3 2.4 C 0 km/h
1160 25-11-2010 16:01:02 2.2 C 4.17 g/m*3 2.2 C 0 km/h
1161 25-11-2010 16:13:02 2 C 4.17 g/m*3 2 C 0 km/h
1162 25-11-2010 16:25:02 1.8 C 4.22 g/m*3 1.8 C 0 km/h
1163 25-11-2010 16:37:02 2.1 C 4.25 g/m*3 2.1 C 0 km/h
1164 25-11-2010 16:49:02 2.1 C 4.25 g/m*3 2.1 C 0 km/h
1165 25-11-2010 17:01:02 2.1 C 4.25 g/m*3 2.1 C 0 km/h
1166 25-11-2010 17:13:02 2.1 C 4.36 g/m*3 2.1 C 0 km/h
1167 25-11-2010 17:25:01 2 C 4.39 g/m*3 2 C 0 km/h
1168 25-11-2010 17:37:02 2 C 4.33 g/m*3 2 C 0 km/h
1169 25-11-2010 17:49:02 2 C 4.39 g/m*3 2 C 0 km/h
1170 25-11-2010 18:01:02 2 C 4.39 g/m*3 2 C 0 km/h
1171 25-11-2010 18:13:02 1.8 C 4.39 g/m*3 1.8 C 0 km/h
1172 25-11-2010 18:25:02 1.9 C 4.53 g/m*3 1.9 C 0 km/h
1173 25-11-2010 18:37:02 1.8 C 4.49 g/m*3 1.8 C 0 km/h
1174 25-11-2010 18:49:02 1.2 C 4.31 g/m*3 1.2 C 0 km/h
1175 25-11-2010 19:01:02 0.9 C 4.28 g/m*3 0.9 C 0 km/h
Sensor: Nr:Datum:Temp:Abs-Feuchte:Windchill:Wind:
Aussen-T/F 1176 25-11-2010 19:13:02 0.8 C 4.3 g/m*3 0.8 C 0 km/h
1177 25-11-2010 19:25:01 0.9 C 4.38 g/m*3 0.9 C 0 km/h
1178 25-11-2010 19:37:02 1.1 C 4.49 g/m*3 1.1 C 0 km/h
1179 25-11-2010 19:49:01 1.2 C 4.47 g/m*3 1.2 C 0 km/h
1180 25-11-2010 20:01:02 0.8 C 4.4 g/m*3 0.8 C 0 km/h
1181 25-11-2010 20:13:03 0.8 C 4.4 g/m*3 0.8 C 0 km/h
1182 25-11-2010 20:25:01 0.7 C 4.42 g/m*3 0.7 C 0 km/h
1183 25-11-2010 20:37:02 0.5 C 4.36 g/m*3 0.5 C 0 km/h
1184 25-11-2010 20:50:04 0.7 C 4.42 g/m*3 0.7 C 0 km/h
1185 25-11-2010 21:02:04 0.9 C 4.48 g/m*3 0.9 C 0 km/h
1186 25-11-2010 21:14:04 1.2 C 4.53 g/m*3 1.2 C 0 km/h
1187 25-11-2010 21:26:04 1.4 C 4.53 g/m*3 1.4 C 0 km/h
1188 25-11-2010 21:38:04 1.4 C 4.48 g/m*3 1.4 C 0 km/h
1189 25-11-2010 21:50:04 1.3 C 4.45 g/m*3 1.3 C 0 km/h
1190 25-11-2010 22:02:04 1.4 C 4.48 g/m*3 1.4 C 0 km/h
1191 25-11-2010 22:14:04 1.3 C 4.45 g/m*3 1.3 C 0 km/h
1192 25-11-2010 22:26:04 1.3 C 4.5 g/m*3 1.3 C 0 km/h
1193 25-11-2010 22:38:05 1.3 C 4.5 g/m*3 1.3 C 0 km/h
1194 25-11-2010 22:50:05 1.4 C 4.53 g/m*3 1.4 C 0 km/h
1195 25-11-2010 23:02:05 1.2 C 4.47 g/m*3 1.2 C 0 km/h
1196 25-11-2010 23:14:05 1.3 C 4.5 g/m*3 1.3 C 0 km/h
1197 25-11-2010 23:26:05 1.4 C 4.53 g/m*3 1.4 C 0 km/h
1198 25-11-2010 23:38:05 1.5 C 4.57 g/m*3 1.5 C 0 km/h
1199 25-11-2010 23:50:05 1.4 C 4.53 g/m*3 1.4 C 0 km/h
1200 26-11-2010 00:02:05 1.4 C 4.53 g/m*3 1.4 C 0 km/h
Sensor: Nr:Datum:Temp:Abs-Feuchte:Windchill:Wind:
Aussen-T/F 1201 26-11-2010 00:14:05 1.6 C 4.6 g/m*3 1.6 C 0 km/h
1202 26-11-2010 00:26:05 1.6 C 4.6 g/m*3 1.6 C 0 km/h
1203 26-11-2010 00:38:05 1.4 C 4.48 g/m*3 1.4 C 0 km/h
1204 26-11-2010 00:50:05 1 C 4.36 g/m*3 1 C 0 km/h
1205 26-11-2010 01:02:05 0.9 C 4.43 g/m*3 0.9 C 0 km/h
1206 26-11-2010 01:14:05 1.1 C 4.49 g/m*3 1.1 C 0 km/h
1207 26-11-2010 01:26:05 1.1 C 4.55 g/m*3 1.1 C 0 km/h
1208 26-11-2010 01:38:05 1.2 C 4.53 g/m*3 1.2 C 0 km/h
1209 26-11-2010 01:50:05 1 C 4.46 g/m*3 1 C 0 km/h
1210 26-11-2010 02:02:05 1 C 4.46 g/m*3 1 C 0 km/h
1211 26-11-2010 02:14:05 1.1 C 4.49 g/m*3 1.1 C 0 km/h
1212 26-11-2010 02:26:05 1 C 4.46 g/m*3 1 C 0 km/h
1213 26-11-2010 02:38:05 1.1 C 4.49 g/m*3 1.1 C 0 km/h
1214 26-11-2010 02:50:06 1.1 C 4.44 g/m*3 1.1 C 0 km/h
1215 26-11-2010 03:02:06 1.1 C 4.49 g/m*3 1.1 C 0 km/h
1216 26-11-2010 03:14:06 1.2 C 4.47 g/m*3 1.2 C 0 km/h
1217 26-11-2010 03:26:06 0.6 C 4.29 g/m*3 0.6 C 0 km/h
1218 26-11-2010 03:38:06 0.4 C 4.28 g/m*3 0.4 C 0 km/h
1219 26-11-2010 03:50:06 0.4 C 4.33 g/m*3 0.4 C 0 km/h
1220 26-11-2010 04:02:06 0.4 C 4.38 g/m*3 0.4 C 0 km/h
1221 26-11-2010 04:14:06 0.3 C 4.35 g/m*3 0.3 C 0 km/h
1222 26-11-2010 04:26:06 0.3 C 4.4 g/m*3 0.3 C 0 km/h
1223 26-11-2010 04:38:06 0.3 C 4.4 g/m*3 0.3 C 0 km/h
1224 26-11-2010 04:50:06 0.3 C 4.45 g/m*3 0.3 C 0 km/h
1225 26-11-2010 05:02:06 0.3 C 4.45 g/m*3 0.3 C 0 km/h
Sensor: Nr:Datum:Temp:Abs-Feuchte:Windchill:Wind:
Aussen-T/F 1226 26-11-2010 05:14:06 0.1 C 4.39 g/m*3 0.1 C 0 km/h
1227 26-11-2010 05:26:06 0.2 C 4.47 g/m*3 0.2 C 0 km/h
1228 26-11-2010 05:38:06 0.3 C 4.5 g/m*3 0.3 C 0 km/h
1229 26-11-2010 05:50:06 0.4 C 4.53 g/m*3 0.4 C 0 km/h
1230 26-11-2010 06:02:06 0.4 C 4.53 g/m*3 0.4 C 0 km/h
1231 26-11-2010 06:14:06 0.4 C 4.53 g/m*3 0.4 C 0 km/h
1232 26-11-2010 06:26:06 0.2 C 4.47 g/m*3 0.2 C 0 km/h
1233 26-11-2010 06:38:06 0.1 C 4.44 g/m*3 0.1 C 0 km/h
1234 26-11-2010 06:50:07 0 C 4.46 g/m*3 0 C 0 km/h
1235 26-11-2010 07:02:03 0 C 4.46 g/m*3 0 C 0 km/h
1236 26-11-2010 07:14:03 0 C 4.46 g/m*3 0 C 0 km/h
1237 26-11-2010 07:26:03 0 C 4.46 g/m*3 0 C 0 km/h
1238 26-11-2010 07:38:03 0 C 4.46 g/m*3 0 C 0 km/h
1239 26-11-2010 07:50:01 0 C 4.46 g/m*3 0 C 0 km/h
1240 26-11-2010 08:02:02 0 C 4.46 g/m*3 0 C 0 km/h
1241 26-11-2010 08:14:02 0 C 4.46 g/m*3 0 C 0 km/h
1242 26-11-2010 08:26:01 0 C 4.46 g/m*3 0 C 0 km/h
1243 26-11-2010 08:38:01 0.1 C 4.54 g/m*3 0.1 C 0 km/h
1244 26-11-2010 08:50:01 0.1 C 4.54 g/m*3 0.1 C 0 km/h
1245 26-11-2010 09:02:01 0.1 C 4.54 g/m*3 0.1 C 0 km/h
1246 26-11-2010 09:14:01 0.1 C 4.54 g/m*3 0.1 C 0 km/h
1247 26-11-2010 09:26:01 0.1 C 4.54 g/m*3 0.1 C 0 km/h
1248 26-11-2010 09:38:02 0.2 C 4.57 g/m*3 0.2 C 0 km/h
1249 26-11-2010 09:50:02 0.2 C 4.57 g/m*3 0.2 C 0 km/h
1250 26-11-2010 10:02:01 0.4 C 4.63 g/m*3 0.4 C 0 km/h
Sensor: Nr:Datum:Temp:Abs-Feuchte:Windchill:Wind:
Aussen-T/F 1251 26-11-2010 10:14:01 0.4 C 4.63 g/m*3 0.4 C 0 km/h
1252 26-11-2010 10:26:02 0.5 C 4.61 g/m*3 0.5 C 0 km/h
1253 26-11-2010 10:38:02 0.7 C 4.68 g/m*3 0.7 C 0 km/h
1254 26-11-2010 10:50:01 0.9 C 4.74 g/m*3 0.9 C 0 km/h
1255 26-11-2010 11:02:02 1 C 4.67 g/m*3 1 C 0 km/h
1256 26-11-2010 11:14:02 1 C 4.62 g/m*3 1 C 0 km/h
1257 26-11-2010 11:26:01 1.2 C 4.63 g/m*3 1.2 C 0 km/h
1258 26-11-2010 11:38:01 1.2 C 4.58 g/m*3 1.2 C 0 km/h
1259 26-11-2010 11:50:01 1.2 C 4.53 g/m*3 1.2 C 0 km/h
1260 26-11-2010 12:02:02 1.1 C 4.49 g/m*3 1.1 C 0 km/h
1261 26-11-2010 12:14:02 1.1 C 4.49 g/m*3 1.1 C 0 km/h
1262 26-11-2010 12:26:01 0.8 C 4.4 g/m*3 0.8 C 0 km/h
1263 26-11-2010 12:38:02 0.7 C 4.37 g/m*3 0.7 C 0 km/h
1264 26-11-2010 12:50:01 0.5 C 4.31 g/m*3 0.5 C 0 km/h
1265 26-11-2010 13:02:02 0.4 C 4.28 g/m*3 0.4 C 0 km/h
1266 26-11-2010 13:14:02 0.6 C 4.34 g/m*3 0.6 C 0 km/h
1267 26-11-2010 13:26:02 1 C 4.46 g/m*3 1 C 0 km/h
1268 26-11-2010 13:38:01 1.3 C 4.5 g/m*3 1.3 C 0 km/h
1269 26-11-2010 13:50:01 1.2 C 4.26 g/m*3 1.2 C 0 km/h
1270 26-11-2010 14:02:01 1.4 C 4.21 g/m*3 1.4 C 0 km/h
1271 26-11-2010 14:14:01 1.5 C 4.19 g/m*3 1.5 C 0 km/h
1272 26-11-2010 14:26:02 1.5 C 4.14 g/m*3 1.5 C 0 km/h
1273 26-11-2010 14:38:01 1.8 C 4.17 g/m*3 1.8 C 0 km/h
1274 26-11-2010 14:50:03 1.8 C 4.17 g/m*3 1.8 C 0 km/h
1275 26-11-2010 15:02:02 1.4 C 3.79 g/m*3 1.4 C 0 km/h
Sensor: Nr:Datum:Temp:Abs-Feuchte:Windchill:Wind:
Aussen-T/F 1276 26-11-2010 15:14:02 1 C 3.74 g/m*3 1 C 0 km/h
1277 26-11-2010 15:26:02 0.9 C 3.81 g/m*3 0.9 C 0 km/h
1278 26-11-2010 15:38:02 0.7 C 3.86 g/m*3 0.7 C 0 km/h
1279 26-11-2010 15:50:02 0 C 3.78 g/m*3 0 C 0 km/h
1280 26-11-2010 16:02:01 -0.8 C 3.71 g/m*3 -0.8 C 0 km/h
1281 26-11-2010 16:14:01 -1.1 C 3.73 g/m*3 -1.1 C 0 km/h
1282 26-11-2010 16:26:02 -1.6 C 3.68 g/m*3 -1.6 C 0 km/h
1283 26-11-2010 16:38:02 -1.8 C 3.68 g/m*3 -1.8 C 0 km/h
1284 26-11-2010 16:50:02 -2.1 C 3.64 g/m*3 -2.1 C 0 km/h
1285 26-11-2010 17:02:03 -2.2 C 3.66 g/m*3 -2.2 C 0 km/h
1286 26-11-2010 17:14:03 -2.4 C 3.61 g/m*3 -2.4 C 0 km/h
1287 26-11-2010 17:26:02 -2.5 C 3.62 g/m*3 -2.5 C 0 km/h
1288 26-11-2010 17:38:02 -2.5 C 3.62 g/m*3 -2.5 C 0 km/h
1289 26-11-2010 17:50:01 -2.2 C 3.74 g/m*3 -2.2 C 0 km/h
1290 26-11-2010 18:02:02 -1.5 C 3.93 g/m*3 -1.5 C 0 km/h
1291 26-11-2010 18:14:02 -1.3 C 4.03 g/m*3 -1.3 C 0 km/h
1292 26-11-2010 18:26:01 -1.3 C 4.03 g/m*3 -1.3 C 0 km/h
1293 26-11-2010 18:38:01 -1.4 C 4 g/m*3 -1.4 C 0 km/h
1294 26-11-2010 18:50:01 -1.4 C 4 g/m*3 -1.4 C 0 km/h
1295 26-11-2010 19:02:02 -1.4 C 4 g/m*3 -1.4 C 0 km/h
1296 26-11-2010 19:14:02 -1.4 C 4 g/m*3 -1.4 C 0 km/h
1297 26-11-2010 19:26:01 -1.4 C 4 g/m*3 -1.4 C 0 km/h
1298 26-11-2010 19:38:01 -1.6 C 3.94 g/m*3 -1.6 C 0 km/h
1299 26-11-2010 19:50:02 -1.9 C 3.86 g/m*3 -1.9 C 0 km/h
1300 26-11-2010 20:02:02 -1.8 C 3.89 g/m*3 -1.8 C 0 km/h
Sensor: Nr:Datum:Temp:Abs-Feuchte:Windchill:Wind:
Aussen-T/F 1301 26-11-2010 20:14:02 -1.9 C 3.86 g/m*3 -1.9 C 0 km/h
1302 26-11-2010 20:26:02 -1.7 C 3.92 g/m*3 -1.7 C 0 km/h
1303 26-11-2010 20:38:02 -1.9 C 3.86 g/m*3 -1.9 C 0 km/h
1304 26-11-2010 20:50:02 -2.5 C 3.7 g/m*3 -2.5 C 0 km/h
1305 26-11-2010 21:02:01 -2.2 C 3.78 g/m*3 -2.2 C 0 km/h
1306 26-11-2010 21:14:01 -2 C 3.84 g/m*3 -2 C 0 km/h
1307 26-11-2010 21:26:02 -2.3 C 3.76 g/m*3 -2.3 C 0 km/h
1308 26-11-2010 21:38:02 -2.6 C 3.68 g/m*3 -2.6 C 0 km/h
1309 26-11-2010 21:50:02 -2.6 C 3.68 g/m*3 -2.6 C 0 km/h
1310 26-11-2010 22:02:02 -3 C 3.57 g/m*3 -3 C 0 km/h
1311 26-11-2010 22:14:02 -3.3 C 3.46 g/m*3 -3.3 C 0 km/h
1312 26-11-2010 22:26:02 -3.1 C 3.55 g/m*3 -3.1 C 0 km/h
1313 26-11-2010 22:38:02 -3.2 C 3.52 g/m*3 -3.2 C 0 km/h
1314 26-11-2010 22:50:02 -3.6 C 3.39 g/m*3 -3.6 C 0 km/h
1315 26-11-2010 23:03:02 -3.8 C 3.34 g/m*3 -3.8 C 0 km/h
1316 26-11-2010 23:15:02 -3.8 C 3.34 g/m*3 -3.8 C 0 km/h
1317 26-11-2010 23:27:02 -3.9 C 3.32 g/m*3 -3.9 C 0 km/h
1318 26-11-2010 23:39:02 -3.7 C 3.36 g/m*3 -3.7 C 0 km/h
1319 26-11-2010 23:51:02 -3.6 C 3.39 g/m*3 -3.6 C 0 km/h
1320 27-11-2010 00:03:02 -4 C 3.29 g/m*3 -4 C 0 km/h
1321 27-11-2010 00:15:02 -4.1 C 3.27 g/m*3 -4.1 C 0 km/h
1322 27-11-2010 00:27:02 -4.2 C 3.25 g/m*3 -4.2 C 0 km/h
1323 27-11-2010 00:39:02 -4.1 C 3.27 g/m*3 -4.1 C 0 km/h
1324 27-11-2010 00:51:02 -4 C 3.29 g/m*3 -4 C 0 km/h
1325 27-11-2010 01:03:02 -3.1 C 3.51 g/m*3 -3.1 C 0 km/h
Sensor: Nr:Datum:Temp:Abs-Feuchte:Windchill:Wind:
Aussen-T/F 1326 27-11-2010 01:15:02 -2.7 C 3.61 g/m*3 -2.7 C 0 km/h
1327 27-11-2010 01:27:02 -3.7 C 3.36 g/m*3 -3.7 C 0 km/h
1328 27-11-2010 01:39:02 -4.3 C 3.19 g/m*3 -4.3 C 0 km/h
1329 27-11-2010 01:51:03 -3.9 C 3.28 g/m*3 -3.9 C 0 km/h
1330 27-11-2010 02:03:03 -3.9 C 3.28 g/m*3 -3.9 C 0 km/h
1331 27-11-2010 02:15:03 -4.1 C 3.2 g/m*3 -4.1 C 0 km/h
1332 27-11-2010 02:27:03 -4.5 C 3.11 g/m*3 -4.5 C 0 km/h
1333 27-11-2010 02:39:03 -4 C 3.22 g/m*3 -4 C 0 km/h
1334 27-11-2010 02:51:03 -3.2 C 3.45 g/m*3 -3.2 C 0 km/h
1335 27-11-2010 03:03:03 -2.8 C 3.55 g/m*3 -2.8 C 0 km/h
1336 27-11-2010 03:15:03 -2.7 C 3.61 g/m*3 -2.7 C 0 km/h
1337 27-11-2010 03:27:03 -2.9 C 3.52 g/m*3 -2.9 C 0 km/h
1338 27-11-2010 03:39:03 -3.5 C 3.37 g/m*3 -3.5 C 0 km/h
1339 27-11-2010 03:51:03 -3.9 C 3.24 g/m*3 -3.9 C 0 km/h
1340 27-11-2010 04:03:03 -4.1 C 3.2 g/m*3 -4.1 C 0 km/h
1341 27-11-2010 04:15:03 -4 C 3.22 g/m*3 -4 C 0 km/h
1342 27-11-2010 04:27:03 -4.1 C 3.2 g/m*3 -4.1 C 0 km/h
1343 27-11-2010 04:39:03 -4 C 3.22 g/m*3 -4 C 0 km/h
1344 27-11-2010 04:51:03 -4.4 C 3.13 g/m*3 -4.4 C 0 km/h
1345 27-11-2010 05:03:03 -4.5 C 3.11 g/m*3 -4.5 C 0 km/h
1346 27-11-2010 05:15:03 -4.7 C 3.03 g/m*3 -4.7 C 0 km/h
1347 27-11-2010 05:27:03 -4.4 C 3.13 g/m*3 -4.4 C 0 km/h
1348 27-11-2010 05:39:03 -4 C 3.22 g/m*3 -4 C 0 km/h
1349 27-11-2010 05:51:03 -3.8 C 3.27 g/m*3 -3.8 C 0 km/h
1350 27-11-2010 06:03:04 -3.7 C 3.29 g/m*3 -3.7 C 0 km/h
Sensor: Nr:Datum:Temp:Abs-Feuchte:Windchill:Wind:
Aussen-T/F 1351 27-11-2010 06:15:04 -3.4 C 3.4 g/m*3 -3.4 C 0 km/h
1352 27-11-2010 06:27:04 -3.4 C 3.4 g/m*3 -3.4 C 0 km/h
1353 27-11-2010 06:39:04 -3.5 C 3.34 g/m*3 -3.5 C 0 km/h
1354 27-11-2010 06:51:04 -3.6 C 3.31 g/m*3 -3.6 C 0 km/h
1355 27-11-2010 07:03:04 -3.8 C 3.27 g/m*3 -3.8 C 0 km/h
1356 27-11-2010 07:15:04 -3.4 C 3.36 g/m*3 -3.4 C 0 km/h
1357 27-11-2010 07:27:04 -3.5 C 3.34 g/m*3 -3.5 C 0 km/h
1358 27-11-2010 07:39:04 -3.6 C 3.31 g/m*3 -3.6 C 0 km/h
1359 27-11-2010 07:51:04 -3.4 C 3.36 g/m*3 -3.4 C 0 km/h
1360 27-11-2010 08:03:04 -3.5 C 3.34 g/m*3 -3.5 C 0 km/h
1361 27-11-2010 08:15:04 -3.4 C 3.36 g/m*3 -3.4 C 0 km/h
1362 27-11-2010 08:27:04 -2.9 C 3.52 g/m*3 -2.9 C 0 km/h
1363 27-11-2010 08:39:04 -2.6 C 3.6 g/m*3 -2.6 C 0 km/h
1364 27-11-2010 08:51:04 -2.6 C 3.6 g/m*3 -2.6 C 0 km/h
1365 27-11-2010 09:03:04 -2.3 C 3.67 g/m*3 -2.3 C 0 km/h
1366 27-11-2010 09:15:04 -2 C 3.75 g/m*3 -2 C 0 km/h
1367 27-11-2010 09:27:04 -1.9 C 3.78 g/m*3 -1.9 C 0 km/h
1368 27-11-2010 09:39:04 -1.7 C 3.83 g/m*3 -1.7 C 0 km/h
1369 27-11-2010 09:51:04 -1.1 C 4 g/m*3 -1.1 C 0 km/h
1370 27-11-2010 10:03:02 -0.8 C 4.13 g/m*3 -0.8 C 0 km/h
1371 27-11-2010 10:15:02 -0.8 C 4.08 g/m*3 -0.8 C 0 km/h
1372 27-11-2010 10:27:02 -1 C 4.02 g/m*3 -1 C 0 km/h
1373 27-11-2010 10:39:01 -1 C 3.98 g/m*3 -1 C 0 km/h
1374 27-11-2010 10:51:02 -0.6 C 4.09 g/m*3 -0.6 C 0 km/h
1375 27-11-2010 11:03:01 -0.4 C 4.15 g/m*3 -0.4 C 0 km/h
Sensor: Nr:Datum:Temp:Abs-Feuchte:Windchill:Wind:
Aussen-T/F 1376 27-11-2010 11:15:02 -0.4 C 4.15 g/m*3 -0.4 C 0 km/h
1377 27-11-2010 11:27:02 -0.3 C 4.18 g/m*3 -0.3 C 0 km/h
1378 27-11-2010 11:39:01 0 C 4.26 g/m*3 0 C 0 km/h
1379 27-11-2010 11:51:02 0.1 C 4.2 g/m*3 0.1 C 0 km/h
1380 27-11-2010 12:03:02 0.2 C 4.13 g/m*3 0.2 C 0 km/h
1381 27-11-2010 12:15:02 0.3 C 4.06 g/m*3 0.3 C 0 km/h
1382 27-11-2010 12:27:02 0.4 C 4.03 g/m*3 0.4 C 0 km/h
1383 27-11-2010 12:39:03 0.6 C 3.99 g/m*3 0.6 C 0 km/h
1384 27-11-2010 12:51:02 0.4 C 3.79 g/m*3 0.4 C 0 km/h
1385 27-11-2010 13:03:02 0.7 C 3.86 g/m*3 0.7 C 0 km/h
1386 27-11-2010 13:15:02 0.7 C 3.86 g/m*3 0.7 C 0 km/h
1387 27-11-2010 13:27:02 0.7 C 3.92 g/m*3 0.7 C 0 km/h
1388 27-11-2010 13:39:02 1 C 4 g/m*3 1 C 0 km/h
1389 27-11-2010 13:51:02 1.2 C 3.89 g/m*3 1.2 C 0 km/h
1390 27-11-2010 14:03:02 1.4 C 3.95 g/m*3 1.4 C 0 km/h
1391 27-11-2010 14:15:02 1.5 C 3.87 g/m*3 1.5 C 0 km/h
1392 27-11-2010 14:27:02 1.5 C 3.71 g/m*3 1.5 C 0 km/h
1393 27-11-2010 14:39:02 1.7 C 3.7 g/m*3 1.7 C 0 km/h
1394 27-11-2010 14:51:01 1.3 C 3.71 g/m*3 1.3 C 0 km/h
1395 27-11-2010 15:03:02 1 C 3.74 g/m*3 1 C 0 km/h
1396 27-11-2010 15:15:01 1 C 3.84 g/m*3 1 C 0 km/h
1397 27-11-2010 15:27:01 0.8 C 3.79 g/m*3 0.8 C 0 km/h
1398 27-11-2010 15:39:01 0.7 C 3.81 g/m*3 0.7 C 0 km/h
1399 27-11-2010 15:51:01 0.3 C 3.81 g/m*3 0.3 C 0 km/h
1400 27-11-2010 16:03:01 -0.3 C 3.56 g/m*3 -0.3 C 0 km/h
Sensor: Nr:Datum:Temp:Abs-Feuchte:Windchill:Wind:
Aussen-T/F 1401 27-11-2010 16:15:02 -0.5 C 3.6 g/m*3 -0.5 C 0 km/h
1402 27-11-2010 16:27:02 -0.7 C 3.6 g/m*3 -0.7 C 0 km/h
1403 27-11-2010 16:39:01 -1 C 3.57 g/m*3 -1 C 0 km/h
1404 27-11-2010 16:51:02 -1.1 C 3.59 g/m*3 -1.1 C 0 km/h
1405 27-11-2010 17:03:01 -1 C 3.66 g/m*3 -1 C 0 km/h
1406 27-11-2010 17:15:02 -0.7 C 3.69 g/m*3 -0.7 C 0 km/h
1407 27-11-2010 17:27:02 -0.7 C 3.65 g/m*3 -0.7 C 0 km/h
1408 27-11-2010 17:39:01 -0.8 C 3.67 g/m*3 -0.8 C 0 km/h
1409 27-11-2010 17:51:02 -1.1 C 3.59 g/m*3 -1.1 C 0 km/h
1410 27-11-2010 18:03:02 -1.6 C 3.51 g/m*3 -1.6 C 0 km/h
1411 27-11-2010 18:15:02 -1.8 C 3.51 g/m*3 -1.8 C 0 km/h
1412 27-11-2010 18:27:02 -1.8 C 3.55 g/m*3 -1.8 C 0 km/h
1413 27-11-2010 18:39:02 -1.7 C 3.62 g/m*3 -1.7 C 0 km/h
1414 27-11-2010 18:51:02 -1 C 3.8 g/m*3 -1 C 0 km/h
1415 27-11-2010 19:03:01 -0.9 C 3.78 g/m*3 -0.9 C 0 km/h
1416 27-11-2010 19:15:02 -1 C 3.71 g/m*3 -1 C 0 km/h
1417 27-11-2010 19:27:02 -1.1 C 3.73 g/m*3 -1.1 C 0 km/h
1418 27-11-2010 19:39:02 -0.9 C 3.78 g/m*3 -0.9 C 0 km/h
1419 27-11-2010 19:51:02 -0.7 C 3.78 g/m*3 -0.7 C 0 km/h
1420 27-11-2010 20:03:03 -0.7 C 3.78 g/m*3 -0.7 C 0 km/h
1421 27-11-2010 20:15:02 -0.7 C 3.74 g/m*3 -0.7 C 0 km/h
1422 27-11-2010 20:27:02 -1.2 C 3.52 g/m*3 -1.2 C 0 km/h
1423 27-11-2010 20:39:02 -2.2 C 3.33 g/m*3 -2.2 C 0 km/h
1424 27-11-2010 20:51:01 -2.7 C 3.25 g/m*3 -2.7 C 0 km/h
1425 27-11-2010 21:03:02 -3 C 3.22 g/m*3 -3 C 0 km/h
Sensor: Nr:Datum:Temp:Abs-Feuchte:Windchill:Wind:
Aussen-T/F 1426 27-11-2010 21:15:01 -3 C 3.3 g/m*3 -3 C 0 km/h
1427 27-11-2010 21:27:01 -3 C 3.3 g/m*3 -3 C 0 km/h
1428 27-11-2010 21:39:01 -3.2 C 3.25 g/m*3 -3.2 C 0 km/h
1429 27-11-2010 21:51:01 -3.3 C 3.27 g/m*3 -3.3 C 0 km/h
1430 27-11-2010 22:03:02 -3.8 C 3.15 g/m*3 -3.8 C 0 km/h
1431 27-11-2010 22:15:01 -3.8 C 3.19 g/m*3 -3.8 C 0 km/h
1432 27-11-2010 22:27:01 -3.2 C 3.37 g/m*3 -3.2 C 0 km/h
1433 27-11-2010 22:40:03 -3.3 C 3.31 g/m*3 -3.3 C 0 km/h
1434 27-11-2010 22:52:03 -2.7 C 3.49 g/m*3 -2.7 C 0 km/h
1435 27-11-2010 23:04:03 -2.8 C 3.43 g/m*3 -2.8 C 0 km/h
1436 27-11-2010 23:16:03 -2.8 C 3.43 g/m*3 -2.8 C 0 km/h
1437 27-11-2010 23:28:03 -3 C 3.38 g/m*3 -3 C 0 km/h
1438 27-11-2010 23:40:03 -3.6 C 3.2 g/m*3 -3.6 C 0 km/h
1439 27-11-2010 23:52:03 -3.9 C 3.13 g/m*3 -3.9 C 0 km/h
1440 28-11-2010 00:04:03 -3.9 C 3.17 g/m*3 -3.9 C 0 km/h
1441 28-11-2010 00:16:03 -3.8 C 3.19 g/m*3 -3.8 C 0 km/h
1442 28-11-2010 00:28:03 -3.7 C 3.21 g/m*3 -3.7 C 0 km/h
1443 28-11-2010 00:40:03 -3.8 C 3.19 g/m*3 -3.8 C 0 km/h
1444 28-11-2010 00:52:03 -3.6 C 3.24 g/m*3 -3.6 C 0 km/h
1445 28-11-2010 01:04:03 -3.4 C 3.32 g/m*3 -3.4 C 0 km/h
1446 28-11-2010 01:16:03 -3 C 3.42 g/m*3 -3 C 0 km/h
1447 28-11-2010 01:28:03 -2.7 C 3.53 g/m*3 -2.7 C 0 km/h
1448 28-11-2010 01:40:03 -2.4 C 3.61 g/m*3 -2.4 C 0 km/h
1449 28-11-2010 01:52:03 -2.3 C 3.63 g/m*3 -2.3 C 0 km/h
1450 28-11-2010 02:04:03 -2.1 C 3.64 g/m*3 -2.1 C 0 km/h
Sensor: Nr:Datum:Temp:Abs-Feuchte:Windchill:Wind:
Aussen-T/F 1451 28-11-2010 02:16:03 -2.2 C 3.62 g/m*3 -2.2 C 0 km/h
1452 28-11-2010 02:28:04 -2.1 C 3.64 g/m*3 -2.1 C 0 km/h
1453 28-11-2010 02:40:04 -2.1 C 3.6 g/m*3 -2.1 C 0 km/h
1454 28-11-2010 02:52:04 -2.4 C 3.52 g/m*3 -2.4 C 0 km/h
1455 28-11-2010 03:04:04 -2.6 C 3.43 g/m*3 -2.6 C 0 km/h
1456 28-11-2010 03:16:04 -3.3 C 3.23 g/m*3 -3.3 C 0 km/h
1457 28-11-2010 03:28:04 -3.8 C 3.12 g/m*3 -3.8 C 0 km/h
1458 28-11-2010 03:40:04 -3.6 C 3.16 g/m*3 -3.6 C 0 km/h
1459 28-11-2010 03:52:04 -3.7 C 3.18 g/m*3 -3.7 C 0 km/h
1460 28-11-2010 04:04:04 -3.2 C 3.33 g/m*3 -3.2 C 0 km/h
1461 28-11-2010 04:16:04 -2.8 C 3.43 g/m*3 -2.8 C 0 km/h
1462 28-11-2010 04:28:04 -2.5 C 3.5 g/m*3 -2.5 C 0 km/h
1463 28-11-2010 04:40:04 -2.4 C 3.52 g/m*3 -2.4 C 0 km/h
1464 28-11-2010 04:52:04 -2.3 C 3.55 g/m*3 -2.3 C 0 km/h
1465 28-11-2010 05:04:04 -2.3 C 3.55 g/m*3 -2.3 C 0 km/h
1466 28-11-2010 05:16:04 -2.6 C 3.48 g/m*3 -2.6 C 0 km/h
1467 28-11-2010 05:28:04 -3 C 3.34 g/m*3 -3 C 0 km/h
1468 28-11-2010 05:40:04 -3 C 3.34 g/m*3 -3 C 0 km/h
1469 28-11-2010 05:52:04 -2.7 C 3.41 g/m*3 -2.7 C 0 km/h
1470 28-11-2010 06:04:04 -2.5 C 3.5 g/m*3 -2.5 C 0 km/h
1471 28-11-2010 06:16:04 -2.3 C 3.55 g/m*3 -2.3 C 0 km/h
1472 28-11-2010 06:28:04 -2.1 C 3.6 g/m*3 -2.1 C 0 km/h
1473 28-11-2010 06:40:04 -2 C 3.58 g/m*3 -2 C 0 km/h
1474 28-11-2010 06:52:05 -2 C 3.58 g/m*3 -2 C 0 km/h
1475 28-11-2010 07:04:05 -2 C 3.58 g/m*3 -2 C 0 km/h
Sensor: Nr:Datum:Temp:Abs-Feuchte:Windchill:Wind:
Aussen-T/F 1476 28-11-2010 07:16:05 -1.9 C 3.57 g/m*3 -1.9 C 0 km/h
1477 28-11-2010 07:28:05 -1.9 C 3.57 g/m*3 -1.9 C 0 km/h
1478 28-11-2010 07:40:05 -1.8 C 3.59 g/m*3 -1.8 C 0 km/h
1479 28-11-2010 07:52:05 -1.8 C 3.59 g/m*3 -1.8 C 0 km/h
1480 28-11-2010 08:04:05 -1.8 C 3.55 g/m*3 -1.8 C 0 km/h
1481 28-11-2010 08:16:05 -1.7 C 3.62 g/m*3 -1.7 C 0 km/h
1482 28-11-2010 08:28:05 -1.6 C 3.64 g/m*3 -1.6 C 0 km/h
1483 28-11-2010 08:40:05 -1.6 C 3.6 g/m*3 -1.6 C 0 km/h
1484 28-11-2010 08:52:05 -1.6 C 3.6 g/m*3 -1.6 C 0 km/h
1485 28-11-2010 09:04:05 -1.4 C 3.6 g/m*3 -1.4 C 0 km/h
1486 28-11-2010 09:16:05 -1.3 C 3.63 g/m*3 -1.3 C 0 km/h
1487 28-11-2010 09:28:05 -1.2 C 3.61 g/m*3 -1.2 C 0 km/h
1488 28-11-2010 09:40:03 -1.1 C 3.59 g/m*3 -1.1 C 0 km/h
1489 28-11-2010 09:52:01 -0.9 C 3.64 g/m*3 -0.9 C 0 km/h
1490 28-11-2010 10:04:02 -0.4 C 3.72 g/m*3 -0.4 C 0 km/h
1491 28-11-2010 10:16:02 -0.5 C 3.6 g/m*3 -0.5 C 0 km/h
1492 28-11-2010 10:28:02 -0.4 C 3.63 g/m*3 -0.4 C 0 km/h
1493 28-11-2010 10:40:02 -0.4 C 3.58 g/m*3 -0.4 C 0 km/h
1494 28-11-2010 10:52:02 -0.2 C 3.63 g/m*3 -0.2 C 0 km/h
1495 28-11-2010 11:04:01 -0.1 C 3.61 g/m*3 -0.1 C 0 km/h
1496 28-11-2010 11:16:02 -0.2 C 3.54 g/m*3 -0.2 C 0 km/h
1497 28-11-2010 11:28:02 -0.3 C 3.51 g/m*3 -0.3 C 0 km/h
1498 28-11-2010 11:40:01 -0.1 C 3.56 g/m*3 -0.1 C 0 km/h
1499 28-11-2010 11:52:02 -0.2 C 3.54 g/m*3 -0.2 C 0 km/h
1500 28-11-2010 12:04:01 0 C 3.59 g/m*3 0 C 0 km/h
Sensor: Nr:Datum:Temp:Abs-Feuchte:Windchill:Wind:
Aussen-T/F 1501 28-11-2010 12:16:01 0.1 C 3.61 g/m*3 0.1 C 0 km/h
1502 28-11-2010 12:28:01 0 C 3.59 g/m*3 0 C 0 km/h
1503 28-11-2010 12:40:02 0 C 3.59 g/m*3 0 C 0 km/h
1504 28-11-2010 12:52:02 0 C 3.59 g/m*3 0 C 0 km/h
1505 28-11-2010 13:04:02 0 C 3.59 g/m*3 0 C 0 km/h
1506 28-11-2010 13:16:02 0.1 C 3.61 g/m*3 0.1 C 0 km/h
1507 28-11-2010 13:28:02 0.1 C 3.66 g/m*3 0.1 C 0 km/h
1508 28-11-2010 13:40:02 0.2 C 3.64 g/m*3 0.2 C 0 km/h
1509 28-11-2010 13:52:02 0.3 C 3.66 g/m*3 0.3 C 0 km/h
1510 28-11-2010 14:04:02 0.2 C 3.64 g/m*3 0.2 C 0 km/h
1511 28-11-2010 14:16:02 0.3 C 3.66 g/m*3 0.3 C 0 km/h
1512 28-11-2010 14:28:02 0.5 C 3.71 g/m*3 0.5 C 0 km/h
1513 28-11-2010 14:40:02 0.7 C 3.71 g/m*3 0.7 C 0 km/h
1514 28-11-2010 14:52:01 0.8 C 3.74 g/m*3 0.8 C 0 km/h
1515 28-11-2010 15:04:02 0.7 C 3.71 g/m*3 0.7 C 0 km/h
1516 28-11-2010 15:16:01 0.7 C 3.71 g/m*3 0.7 C 0 km/h
1517 28-11-2010 15:28:01 0.6 C 3.74 g/m*3 0.6 C 0 km/h
1518 28-11-2010 15:40:01 0.5 C 3.71 g/m*3 0.5 C 0 km/h
1519 28-11-2010 15:52:01 0.2 C 3.68 g/m*3 0.2 C 0 km/h
1520 28-11-2010 16:04:01 0 C 3.68 g/m*3 0 C 0 km/h
1521 28-11-2010 16:16:02 -0.3 C 3.65 g/m*3 -0.3 C 0 km/h
1522 28-11-2010 16:28:02 -0.6 C 3.63 g/m*3 -0.6 C 0 km/h
1523 28-11-2010 16:40:01 -0.5 C 3.7 g/m*3 -0.5 C 0 km/h
1524 28-11-2010 16:52:03 -0.3 C 3.75 g/m*3 -0.3 C 0 km/h
1525 28-11-2010 17:04:02 -0.3 C 3.75 g/m*3 -0.3 C 0 km/h
Sensor: Nr:Datum:Temp:Abs-Feuchte:Windchill:Wind:
Aussen-T/F 1526 28-11-2010 17:16:02 -0.3 C 3.75 g/m*3 -0.3 C 0 km/h
1527 28-11-2010 17:28:02 -0.6 C 3.67 g/m*3 -0.6 C 0 km/h
1528 28-11-2010 17:40:02 -0.9 C 3.6 g/m*3 -0.9 C 0 km/h
1529 28-11-2010 17:52:02 -1.1 C 3.59 g/m*3 -1.1 C 0 km/h
1530 28-11-2010 18:04:02 -1.8 C 3.42 g/m*3 -1.8 C 0 km/h
1531 28-11-2010 18:16:02 -1.4 C 3.65 g/m*3 -1.4 C 0 km/h
1532 28-11-2010 18:28:02 -1 C 3.8 g/m*3 -1 C 0 km/h
1533 28-11-2010 18:40:02 -0.7 C 3.88 g/m*3 -0.7 C 0 km/h
1534 28-11-2010 18:52:02 -0.6 C 3.81 g/m*3 -0.6 C 0 km/h
1535 28-11-2010 19:04:02 -0.6 C 3.76 g/m*3 -0.6 C 0 km/h
1536 28-11-2010 19:16:01 -0.6 C 3.76 g/m*3 -0.6 C 0 km/h
1537 28-11-2010 19:28:01 -0.8 C 3.67 g/m*3 -0.8 C 0 km/h
1538 28-11-2010 19:40:02 -0.8 C 3.67 g/m*3 -0.8 C 0 km/h
1539 28-11-2010 19:52:02 -0.7 C 3.65 g/m*3 -0.7 C 0 km/h
1540 28-11-2010 20:04:02 -1.1 C 3.55 g/m*3 -1.1 C 0 km/h
1541 28-11-2010 20:16:02 -0.9 C 3.6 g/m*3 -0.9 C 0 km/h
1542 28-11-2010 20:28:02 -0.7 C 3.6 g/m*3 -0.7 C 0 km/h
1543 28-11-2010 20:40:02 -0.6 C 3.53 g/m*3 -0.6 C 0 km/h
1544 28-11-2010 20:52:02 -0.7 C 3.46 g/m*3 -0.7 C 0 km/h
1545 28-11-2010 21:04:02 -0.7 C 3.46 g/m*3 -0.7 C 0 km/h
1546 28-11-2010 21:16:02 -0.9 C 3.46 g/m*3 -0.9 C 0 km/h
1547 28-11-2010 21:28:02 -0.9 C 3.46 g/m*3 -0.9 C 0 km/h
1548 28-11-2010 21:40:02 -0.9 C 3.46 g/m*3 -0.9 C 0 km/h
1549 28-11-2010 21:52:02 -0.9 C 3.46 g/m*3 -0.9 C 0 km/h
1550 28-11-2010 22:04:02 -1 C 3.44 g/m*3 -1 C 0 km/h
Sensor: Nr:Datum:Temp:Abs-Feuchte:Windchill:Wind:
Aussen-T/F 1551 28-11-2010 22:16:02 -1 C 3.44 g/m*3 -1 C 0 km/h
1552 28-11-2010 22:28:02 -1.4 C 3.39 g/m*3 -1.4 C 0 km/h
1553 28-11-2010 22:40:03 -2.2 C 3.24 g/m*3 -2.2 C 0 km/h
1554 28-11-2010 22:52:02 -2.4 C 3.28 g/m*3 -2.4 C 0 km/h
1555 28-11-2010 23:04:01 -2.7 C 3.25 g/m*3 -2.7 C 0 km/h
1556 28-11-2010 23:16:02 -2.6 C 3.35 g/m*3 -2.6 C 0 km/h
1557 28-11-2010 23:28:02 -2 C 3.54 g/m*3 -2 C 0 km/h
1558 28-11-2010 23:40:02 -1.5 C 3.54 g/m*3 -1.5 C 0 km/h
1559 28-11-2010 23:52:02 -1.4 C 3.43 g/m*3 -1.4 C 0 km/h
1560 29-11-2010 00:04:02 -1.4 C 3.34 g/m*3 -1.4 C 0 km/h
1561 29-11-2010 00:16:02 -1.4 C 3.34 g/m*3 -1.4 C 0 km/h
1562 29-11-2010 00:28:02 -1.4 C 3.43 g/m*3 -1.4 C 0 km/h
1563 29-11-2010 00:40:02 -1.5 C 3.41 g/m*3 -1.5 C 0 km/h
1564 29-11-2010 00:52:01 -1.7 C 3.31 g/m*3 -1.7 C 0 km/h
1565 29-11-2010 01:04:02 -1.8 C 3.29 g/m*3 -1.8 C 0 km/h
1566 29-11-2010 01:16:01 -1.9 C 3.27 g/m*3 -1.9 C 0 km/h
1567 29-11-2010 01:28:01 -1.8 C 3.33 g/m*3 -1.8 C 0 km/h
1568 29-11-2010 01:40:02 -1.7 C 3.36 g/m*3 -1.7 C 0 km/h
1569 29-11-2010 01:52:01 -1.8 C 3.29 g/m*3 -1.8 C 0 km/h
1570 29-11-2010 02:04:02 -1.8 C 3.29 g/m*3 -1.8 C 0 km/h
1571 29-11-2010 02:16:02 -1.9 C 3.27 g/m*3 -1.9 C 0 km/h
1572 29-11-2010 02:28:02 -1.9 C 3.27 g/m*3 -1.9 C 0 km/h
1573 29-11-2010 02:40:02 -1.9 C 3.27 g/m*3 -1.9 C 0 km/h
1574 29-11-2010 02:52:01 -1.9 C 3.23 g/m*3 -1.9 C 0 km/h
1575 29-11-2010 03:04:01 -2 C 3.2 g/m*3 -2 C 0 km/h
Sensor: Nr:Datum:Temp:Abs-Feuchte:Windchill:Wind:
Aussen-T/F 1576 29-11-2010 03:16:01 -1.9 C 3.23 g/m*3 -1.9 C 0 km/h
1577 29-11-2010 03:28:01 -2 C 3.2 g/m*3 -2 C 0 km/h
1578 29-11-2010 03:40:01 -2 C 3.2 g/m*3 -2 C 0 km/h
1579 29-11-2010 03:52:01 -2.1 C 3.22 g/m*3 -2.1 C 0 km/h
1580 29-11-2010 04:04:01 -2.1 C 3.18 g/m*3 -2.1 C 0 km/h
1581 29-11-2010 04:16:02 -2 C 3.25 g/m*3 -2 C 0 km/h
1582 29-11-2010 04:28:02 -2 C 3.2 g/m*3 -2 C 0 km/h
1583 29-11-2010 04:40:01 -2 C 3.2 g/m*3 -2 C 0 km/h
1584 29-11-2010 04:52:01 -1.9 C 3.27 g/m*3 -1.9 C 0 km/h
1585 29-11-2010 05:04:01 -1.9 C 3.27 g/m*3 -1.9 C 0 km/h
1586 29-11-2010 05:16:02 -1.8 C 3.29 g/m*3 -1.8 C 0 km/h
1587 29-11-2010 05:28:02 -1.8 C 3.29 g/m*3 -1.8 C 0 km/h
1588 29-11-2010 05:40:01 -1.8 C 3.25 g/m*3 -1.8 C 0 km/h
1589 29-11-2010 05:52:02 -1.8 C 3.25 g/m*3 -1.8 C 0 km/h
1590 29-11-2010 06:04:01 -1.7 C 3.27 g/m*3 -1.7 C 0 km/h
1591 29-11-2010 06:16:01 -1.7 C 3.31 g/m*3 -1.7 C 0 km/h
1592 29-11-2010 06:28:01 -1.7 C 3.31 g/m*3 -1.7 C 0 km/h
1593 29-11-2010 06:40:01 -1.7 C 3.31 g/m*3 -1.7 C 0 km/h
1594 29-11-2010 06:52:01 -1.6 C 3.34 g/m*3 -1.6 C 0 km/h
1595 29-11-2010 07:04:01 -1.6 C 3.34 g/m*3 -1.6 C 0 km/h
1596 29-11-2010 07:16:01 -1.7 C 3.27 g/m*3 -1.7 C 0 km/h
1597 29-11-2010 07:28:01 -1.7 C 3.27 g/m*3 -1.7 C 0 km/h
1598 29-11-2010 07:40:02 -1.7 C 3.27 g/m*3 -1.7 C 0 km/h
1599 29-11-2010 07:52:01 -1.6 C 3.29 g/m*3 -1.6 C 0 km/h
1600 29-11-2010 08:04:02 -1.7 C 3.27 g/m*3 -1.7 C 0 km/h
Sensor: Nr:Datum:Temp:Abs-Feuchte:Windchill:Wind:
Aussen-T/F 1601 29-11-2010 08:16:01 -1.6 C 3.34 g/m*3 -1.6 C 0 km/h
1602 29-11-2010 08:28:01 -1.7 C 3.31 g/m*3 -1.7 C 0 km/h
1603 29-11-2010 08:40:01 -1.6 C 3.34 g/m*3 -1.6 C 0 km/h
1604 29-11-2010 08:52:01 -1.4 C 3.39 g/m*3 -1.4 C 0 km/h
1605 29-11-2010 09:04:01 -1.4 C 3.34 g/m*3 -1.4 C 0 km/h
1606 29-11-2010 09:16:01 -1.4 C 3.3 g/m*3 -1.4 C 0 km/h
1607 29-11-2010 09:28:01 -1.4 C 3.3 g/m*3 -1.4 C 0 km/h
1608 29-11-2010 09:40:01 -1.4 C 3.25 g/m*3 -1.4 C 0 km/h
1609 29-11-2010 09:52:01 -1.3 C 3.32 g/m*3 -1.3 C 0 km/h
1610 29-11-2010 10:04:01 -1.2 C 3.39 g/m*3 -1.2 C 0 km/h
1611 29-11-2010 10:16:02 -1.3 C 3.36 g/m*3 -1.3 C 0 km/h
1612 29-11-2010 10:28:02 -1.3 C 3.36 g/m*3 -1.3 C 0 km/h
1613 29-11-2010 10:40:01 -1.4 C 3.34 g/m*3 -1.4 C 0 km/h
1614 29-11-2010 10:52:02 -1.3 C 3.41 g/m*3 -1.3 C 0 km/h
1615 29-11-2010 11:04:01 -1.2 C 3.43 g/m*3 -1.2 C 0 km/h
1616 29-11-2010 11:16:02 -1.2 C 3.43 g/m*3 -1.2 C 0 km/h
1617 29-11-2010 11:28:02 -1.2 C 3.43 g/m*3 -1.2 C 0 km/h
1618 29-11-2010 11:40:01 -1.2 C 3.48 g/m*3 -1.2 C 0 km/h
1619 29-11-2010 11:52:02 -1.3 C 3.45 g/m*3 -1.3 C 0 km/h
1620 29-11-2010 12:04:01 -1.3 C 3.45 g/m*3 -1.3 C 0 km/h
1621 29-11-2010 12:16:02 -1.3 C 3.5 g/m*3 -1.3 C 0 km/h
1622 29-11-2010 12:28:02 -1.2 C 3.52 g/m*3 -1.2 C 0 km/h
1623 29-11-2010 12:40:01 -1.1 C 3.55 g/m*3 -1.1 C 0 km/h
1624 29-11-2010 12:52:02 -0.8 C 3.58 g/m*3 -0.8 C 0 km/h
1625 29-11-2010 13:04:01 -0.7 C 3.55 g/m*3 -0.7 C 0 km/h
Sensor: Nr:Datum:Temp:Abs-Feuchte:Windchill:Wind:
Aussen-T/F 1626 29-11-2010 13:16:01 -0.6 C 3.58 g/m*3 -0.6 C 0 km/h
1627 29-11-2010 13:28:01 -0.8 C 3.58 g/m*3 -0.8 C 0 km/h
1628 29-11-2010 13:40:02 -1.1 C 3.55 g/m*3 -1.1 C 0 km/h
1629 29-11-2010 13:52:01 -1 C 3.62 g/m*3 -1 C 0 km/h
1630 29-11-2010 14:04:02 -1 C 3.62 g/m*3 -1 C 0 km/h
1631 29-11-2010 14:16:01 -1 C 3.66 g/m*3 -1 C 0 km/h
1632 29-11-2010 14:28:01 -1 C 3.66 g/m*3 -1 C 0 km/h
1633 29-11-2010 14:40:02 -1 C 3.71 g/m*3 -1 C 0 km/h
1634 29-11-2010 14:52:01 -1.1 C 3.73 g/m*3 -1.1 C 0 km/h
1635 29-11-2010 15:04:02 -1.1 C 3.73 g/m*3 -1.1 C 0 km/h
1636 29-11-2010 15:16:01 -1.2 C 3.74 g/m*3 -1.2 C 0 km/h
1637 29-11-2010 15:28:01 -1.4 C 3.69 g/m*3 -1.4 C 0 km/h
1638 29-11-2010 15:40:01 -1.4 C 3.69 g/m*3 -1.4 C 0 km/h
1639 29-11-2010 15:52:01 -1.4 C 3.74 g/m*3 -1.4 C 0 km/h
1640 29-11-2010 16:04:01 -1.4 C 3.74 g/m*3 -1.4 C 0 km/h
1641 29-11-2010 16:16:02 -1.4 C 3.74 g/m*3 -1.4 C 0 km/h
1642 29-11-2010 16:28:02 -1.5 C 3.71 g/m*3 -1.5 C 0 km/h
1643 29-11-2010 16:40:01 -1.5 C 3.71 g/m*3 -1.5 C 0 km/h
1644 29-11-2010 16:52:01 -1.5 C 3.75 g/m*3 -1.5 C 0 km/h
1645 29-11-2010 17:04:01 -1.7 C 3.7 g/m*3 -1.7 C 0 km/h
1646 29-11-2010 17:16:02 -1.7 C 3.7 g/m*3 -1.7 C 0 km/h
1647 29-11-2010 17:28:02 -1.7 C 3.7 g/m*3 -1.7 C 0 km/h
1648 29-11-2010 17:40:01 -1.7 C 3.7 g/m*3 -1.7 C 0 km/h
1649 29-11-2010 17:52:02 -1.6 C 3.73 g/m*3 -1.6 C 0 km/h
1650 29-11-2010 18:04:01 -1.6 C 3.77 g/m*3 -1.6 C 0 km/h
Sensor: Nr:Datum:Temp:Abs-Feuchte:Windchill:Wind:
Aussen-T/F 1651 29-11-2010 18:16:01 -1.7 C 3.75 g/m*3 -1.7 C 0 km/h
1652 29-11-2010 18:28:01 -1.7 C 3.75 g/m*3 -1.7 C 0 km/h
1653 29-11-2010 18:40:01 -1.7 C 3.75 g/m*3 -1.7 C 0 km/h
1654 29-11-2010 18:52:01 -1.7 C 3.75 g/m*3 -1.7 C 0 km/h
1655 29-11-2010 19:04:01 -1.7 C 3.75 g/m*3 -1.7 C 0 km/h
1656 29-11-2010 19:16:01 -1.7 C 3.75 g/m*3 -1.7 C 0 km/h
1657 29-11-2010 19:28:01 -1.7 C 3.75 g/m*3 -1.7 C 0 km/h
1658 29-11-2010 19:40:02 -1.7 C 3.75 g/m*3 -1.7 C 0 km/h
1659 29-11-2010 19:52:01 -1.7 C 3.75 g/m*3 -1.7 C 0 km/h
1660 29-11-2010 20:04:02 -1.7 C 3.75 g/m*3 -1.7 C 0 km/h
1661 29-11-2010 20:16:01 -1.7 C 3.79 g/m*3 -1.7 C 0 km/h
1662 29-11-2010 20:28:01 -1.6 C 3.81 g/m*3 -1.6 C 0 km/h
1663 29-11-2010 20:40:01 -1.6 C 3.81 g/m*3 -1.6 C 0 km/h
1664 29-11-2010 20:52:01 -1.6 C 3.81 g/m*3 -1.6 C 0 km/h
1665 29-11-2010 21:04:01 -1.6 C 3.81 g/m*3 -1.6 C 0 km/h
1666 29-11-2010 21:16:01 -1.6 C 3.81 g/m*3 -1.6 C 0 km/h
1667 29-11-2010 21:28:01 -1.7 C 3.79 g/m*3 -1.7 C 0 km/h
1668 29-11-2010 21:40:01 -1.7 C 3.79 g/m*3 -1.7 C 0 km/h
1669 29-11-2010 21:52:01 -1.7 C 3.79 g/m*3 -1.7 C 0 km/h
1670 29-11-2010 22:04:01 -1.7 C 3.79 g/m*3 -1.7 C 0 km/h
1671 29-11-2010 22:16:01 -1.7 C 3.79 g/m*3 -1.7 C 0 km/h
1672 29-11-2010 22:28:01 -1.9 C 3.74 g/m*3 -1.9 C 0 km/h
1673 29-11-2010 22:40:02 -1.8 C 3.76 g/m*3 -1.8 C 0 km/h
1674 29-11-2010 22:52:01 -1.8 C 3.76 g/m*3 -1.8 C 0 km/h
1675 29-11-2010 23:04:02 -1.8 C 3.76 g/m*3 -1.8 C 0 km/h
Sensor: Nr:Datum:Temp:Abs-Feuchte:Windchill:Wind:
Aussen-T/F 1676 29-11-2010 23:16:01 -1.7 C 3.83 g/m*3 -1.7 C 0 km/h
1677 29-11-2010 23:28:01 -1.7 C 3.83 g/m*3 -1.7 C 0 km/h
1678 29-11-2010 23:40:02 -1.6 C 3.86 g/m*3 -1.6 C 0 km/h
1679 29-11-2010 23:52:01 -1.6 C 3.86 g/m*3 -1.6 C 0 km/h
1680 30-11-2010 00:04:02 -1.6 C 3.86 g/m*3 -1.6 C 0 km/h
1681 30-11-2010 00:16:01 -1.7 C 3.83 g/m*3 -1.7 C 0 km/h
1682 30-11-2010 00:28:01 -1.8 C 3.8 g/m*3 -1.8 C 0 km/h
1683 30-11-2010 00:40:01 -1.9 C 3.78 g/m*3 -1.9 C 0 km/h
1684 30-11-2010 00:52:01 -1.9 C 3.78 g/m*3 -1.9 C 0 km/h
1685 30-11-2010 01:04:01 -2 C 3.75 g/m*3 -2 C 0 km/h
1686 30-11-2010 01:16:01 -2 C 3.75 g/m*3 -2 C 0 km/h
1687 30-11-2010 01:28:01 -2 C 3.75 g/m*3 -2 C 0 km/h
1688 30-11-2010 01:40:01 -1.9 C 3.78 g/m*3 -1.9 C 0 km/h
1689 30-11-2010 01:52:01 -1.9 C 3.78 g/m*3 -1.9 C 0 km/h
1690 30-11-2010 02:04:01 -1.8 C 3.8 g/m*3 -1.8 C 0 km/h
1691 30-11-2010 02:16:02 -1.7 C 3.83 g/m*3 -1.7 C 0 km/h
1692 30-11-2010 02:28:02 -1.7 C 3.83 g/m*3 -1.7 C 0 km/h
1693 30-11-2010 02:40:01 -1.6 C 3.86 g/m*3 -1.6 C 0 km/h
1694 30-11-2010 02:53:05 -1.6 C 3.86 g/m*3 -1.6 C 0 km/h
1695 30-11-2010 03:05:05 -1.6 C 3.86 g/m*3 -1.6 C 0 km/h
1696 30-11-2010 03:17:05 -1.6 C 3.86 g/m*3 -1.6 C 0 km/h
1697 30-11-2010 03:29:05 -1.6 C 3.86 g/m*3 -1.6 C 0 km/h
1698 30-11-2010 03:41:01 -1.8 C 3.8 g/m*3 -1.8 C 0 km/h
1699 30-11-2010 03:53:01 -1.9 C 3.74 g/m*3 -1.9 C 0 km/h
1700 30-11-2010 04:05:02 -2.1 C 3.68 g/m*3 -2.1 C 0 km/h
Sensor: Nr:Datum:Temp:Abs-Feuchte:Windchill:Wind:
Aussen-T/F 1701 30-11-2010 04:17:02 -2.3 C 3.63 g/m*3 -2.3 C 0 km/h
1702 30-11-2010 04:29:02 -2.4 C 3.61 g/m*3 -2.4 C 0 km/h
1703 30-11-2010 04:41:02 -2.5 C 3.58 g/m*3 -2.5 C 0 km/h
1704 30-11-2010 04:53:02 -2.5 C 3.58 g/m*3 -2.5 C 0 km/h
1705 30-11-2010 05:05:01 -2.5 C 3.58 g/m*3 -2.5 C 0 km/h
1706 30-11-2010 05:17:02 -2.5 C 3.58 g/m*3 -2.5 C 0 km/h
1707 30-11-2010 05:29:03 -2.5 C 3.58 g/m*3 -2.5 C 0 km/h
1708 30-11-2010 05:41:01 -2.3 C 3.67 g/m*3 -2.3 C 0 km/h
1709 30-11-2010 05:53:02 -2.2 C 3.7 g/m*3 -2.2 C 0 km/h
1710 30-11-2010 06:05:02 -2.2 C 3.7 g/m*3 -2.2 C 0 km/h
1711 30-11-2010 06:17:02 -2.2 C 3.7 g/m*3 -2.2 C 0 km/h
1712 30-11-2010 06:29:02 -2.3 C 3.63 g/m*3 -2.3 C 0 km/h
1713 30-11-2010 06:41:03 -2.3 C 3.63 g/m*3 -2.3 C 0 km/h
1714 30-11-2010 06:53:02 -2.3 C 3.63 g/m*3 -2.3 C 0 km/h
1715 30-11-2010 07:05:02 -2.3 C 3.63 g/m*3 -2.3 C 0 km/h
1716 30-11-2010 07:17:01 -2.3 C 3.67 g/m*3 -2.3 C 0 km/h
1717 30-11-2010 07:29:01 -2.3 C 3.67 g/m*3 -2.3 C 0 km/h
1718 30-11-2010 07:41:02 -2.3 C 3.67 g/m*3 -2.3 C 0 km/h
1719 30-11-2010 07:53:02 -2.2 C 3.66 g/m*3 -2.2 C 0 km/h
1720 30-11-2010 08:05:02 -2.1 C 3.68 g/m*3 -2.1 C 0 km/h
1721 30-11-2010 08:17:01 -2.1 C 3.68 g/m*3 -2.1 C 0 km/h
1722 30-11-2010 08:29:01 -2.1 C 3.68 g/m*3 -2.1 C 0 km/h
1723 30-11-2010 08:41:02 -2.1 C 3.68 g/m*3 -2.1 C 0 km/h
1724 30-11-2010 08:53:02 -2 C 3.58 g/m*3 -2 C 0 km/h
1725 30-11-2010 09:05:02 -2 C 3.58 g/m*3 -2 C 0 km/h
Sensor: Nr:Datum:Temp:Abs-Feuchte:Windchill:Wind:
Aussen-T/F 1726 30-11-2010 09:17:02 -2 C 3.58 g/m*3 -2 C 0 km/h
1727 30-11-2010 09:29:02 -2 C 3.58 g/m*3 -2 C 0 km/h
1728 30-11-2010 09:41:02 -2 C 3.58 g/m*3 -2 C 0 km/h
1729 30-11-2010 09:53:01 -2 C 3.58 g/m*3 -2 C 0 km/h
1730 30-11-2010 10:05:02 -2 C 3.58 g/m*3 -2 C 0 km/h
1731 30-11-2010 10:17:02 -2 C 3.58 g/m*3 -2 C 0 km/h
1732 30-11-2010 10:29:02 -1.7 C 3.49 g/m*3 -1.7 C 0 km/h
1733 30-11-2010 10:41:01 -1.8 C 3.42 g/m*3 -1.8 C 0 km/h
1734 30-11-2010 10:53:02 -1.6 C 3.47 g/m*3 -1.6 C 0 km/h
1735 30-11-2010 11:05:01 -1.6 C 3.47 g/m*3 -1.6 C 0 km/h
1736 30-11-2010 11:17:02 -1.6 C 3.47 g/m*3 -1.6 C 0 km/h
1737 30-11-2010 11:29:02 -1.6 C 3.47 g/m*3 -1.6 C 0 km/h
1738 30-11-2010 11:41:01 -1.3 C 3.41 g/m*3 -1.3 C 0 km/h
1739 30-11-2010 11:53:02 -1.4 C 3.39 g/m*3 -1.4 C 0 km/h
1740 30-11-2010 12:05:02 -1.3 C 3.32 g/m*3 -1.3 C 0 km/h
1741 30-11-2010 12:17:02 -1.2 C 3.34 g/m*3 -1.2 C 0 km/h
1742 30-11-2010 12:29:02 -1.3 C 3.23 g/m*3 -1.3 C 0 km/h
1743 30-11-2010 12:41:02 -1.3 C 3.28 g/m*3 -1.3 C 0 km/h
1744 30-11-2010 12:53:01 -1.4 C 3.21 g/m*3 -1.4 C 0 km/h
1745 30-11-2010 13:05:02 -1.2 C 3.25 g/m*3 -1.2 C 0 km/h
1746 30-11-2010 13:17:01 -1.1 C 3.28 g/m*3 -1.1 C 0 km/h
1747 30-11-2010 13:29:01 -1 C 3.25 g/m*3 -1 C 0 km/h
1748 30-11-2010 13:41:02 -1 C 3.25 g/m*3 -1 C 0 km/h
1749 30-11-2010 13:53:01 -1.1 C 3.19 g/m*3 -1.1 C 0 km/h
1750 30-11-2010 14:05:01 -1.2 C 3.17 g/m*3 -1.2 C 0 km/h
Sensor: Nr:Datum:Temp:Abs-Feuchte:Windchill:Wind:
Aussen-T/F 1751 30-11-2010 14:17:01 -1.3 C 3.19 g/m*3 -1.3 C 0 km/h
1752 30-11-2010 14:29:01 -1.4 C 3.21 g/m*3 -1.4 C 0 km/h
1753 30-11-2010 14:41:02 -1.3 C 3.23 g/m*3 -1.3 C 0 km/h
1754 30-11-2010 14:53:02 -1.4 C 3.21 g/m*3 -1.4 C 0 km/h
1755 30-11-2010 15:05:02 -1.4 C 3.21 g/m*3 -1.4 C 0 km/h
1756 30-11-2010 15:17:02 -1.5 C 3.23 g/m*3 -1.5 C 0 km/h
1757 30-11-2010 15:29:02 -1.5 C 3.23 g/m*3 -1.5 C 0 km/h
1758 30-11-2010 15:41:02 -1.5 C 3.23 g/m*3 -1.5 C 0 km/h
1759 30-11-2010 15:53:01 -1.5 C 3.23 g/m*3 -1.5 C 0 km/h
1760 30-11-2010 16:05:02 -1.5 C 3.23 g/m*3 -1.5 C 0 km/h
1761 30-11-2010 16:17:01 -1.5 C 3.23 g/m*3 -1.5 C 0 km/h
1762 30-11-2010 16:29:01 -1.5 C 3.23 g/m*3 -1.5 C 0 km/h
1763 30-11-2010 16:41:01 -1.5 C 3.23 g/m*3 -1.5 C 0 km/h
1764 30-11-2010 16:53:01 -1.5 C 3.23 g/m*3 -1.5 C 0 km/h
1765 30-11-2010 17:05:01 -1.5 C 3.23 g/m*3 -1.5 C 0 km/h
1766 30-11-2010 17:17:01 -2 C 3.25 g/m*3 -2 C 0 km/h
1767 30-11-2010 17:29:01 -1.9 C 3.23 g/m*3 -1.9 C 0 km/h
1768 30-11-2010 17:41:01 -2.1 C 3.18 g/m*3 -2.1 C 0 km/h
1769 30-11-2010 17:53:01 -2.1 C 3.18 g/m*3 -2.1 C 0 km/h
1770 30-11-2010 18:05:01 -2.1 C 3.18 g/m*3 -2.1 C 0 km/h
1771 30-11-2010 18:17:02 -2.1 C 3.18 g/m*3 -2.1 C 0 km/h
1772 30-11-2010 18:29:02 -2.1 C 3.18 g/m*3 -2.1 C 0 km/h
1773 30-11-2010 18:41:01 -2.1 C 3.18 g/m*3 -2.1 C 0 km/h
1774 30-11-2010 18:53:03 -2.1 C 3.18 g/m*3 -2.1 C 0 km/h
1775 30-11-2010 19:05:02 -2.1 C 3.18 g/m*3 -2.1 C 0 km/h
Sensor: Nr:Datum:Temp:Abs-Feuchte:Windchill:Wind:
Aussen-T/F 1776 30-11-2010 19:17:02 -2.1 C 3.18 g/m*3 -2.1 C 0 km/h
1777 30-11-2010 19:29:02 -2.1 C 3.18 g/m*3 -2.1 C 0 km/h
1778 30-11-2010 19:41:02 -2.1 C 3.18 g/m*3 -2.1 C 0 km/h
1779 30-11-2010 19:53:02 -2.1 C 3.14 g/m*3 -2.1 C 0 km/h
1780 30-11-2010 20:05:02 -2.1 C 3.14 g/m*3 -2.1 C 0 km/h
1781 30-11-2010 20:17:02 -2.2 C 3.12 g/m*3 -2.2 C 0 km/h
1782 30-11-2010 20:29:02 -2.3 C 3.1 g/m*3 -2.3 C 0 km/h
1783 30-11-2010 20:41:02 -2.4 C 3.07 g/m*3 -2.4 C 0 km/h
1784 30-11-2010 20:53:02 -2.3 C 3.14 g/m*3 -2.3 C 0 km/h
1785 30-11-2010 21:05:01 -2.4 C 3.07 g/m*3 -2.4 C 0 km/h
1786 30-11-2010 21:17:01 -2.4 C 3.07 g/m*3 -2.4 C 0 km/h
1787 30-11-2010 21:29:01 -2.4 C 3.07 g/m*3 -2.4 C 0 km/h
1788 30-11-2010 21:41:02 -2.4 C 3.03 g/m*3 -2.4 C 0 km/h
1789 30-11-2010 21:53:02 -2.4 C 2.99 g/m*3 -2.4 C 0 km/h
1790 30-11-2010 22:05:02 -2.5 C 2.97 g/m*3 -2.5 C 0 km/h
1791 30-11-2010 22:18:02 -2.6 C 2.95 g/m*3 -2.6 C 0 km/h
1792 30-11-2010 22:30:02 -2.6 C 2.95 g/m*3 -2.6 C 0 km/h
1793 30-11-2010 22:42:02 -2.6 C 2.91 g/m*3 -2.6 C 0 km/h
1794 30-11-2010 22:54:02 -2.6 C 2.91 g/m*3 -2.6 C 0 km/h
1795 30-11-2010 23:06:03 -2.6 C 2.87 g/m*3 -2.6 C 0 km/h
1796 30-11-2010 23:18:03 -2.7 C 2.85 g/m*3 -2.7 C 0 km/h
1797 30-11-2010 23:30:03 -2.8 C 2.83 g/m*3 -2.8 C 0 km/h
1798 30-11-2010 23:42:03 -2.8 C 2.83 g/m*3 -2.8 C 0 km/h
1799 30-11-2010 23:54:03 -2.9 C 2.77 g/m*3 -2.9 C 0 km/h
1800 01-12-2010 00:06:03 -2.9 C 2.81 g/m*3 -2.9 C 0 km/h
Sensor: Nr:Datum:Temp:Abs-Feuchte:Windchill:Wind:
Aussen-T/F 1801 01-12-2010 00:18:03 -3 C 2.75 g/m*3 -3 C 0 km/h
1802 01-12-2010 00:30:03 -3 C 2.75 g/m*3 -3 C 0 km/h
1803 01-12-2010 00:42:03 -3 C 2.75 g/m*3 -3 C 0 km/h
1804 01-12-2010 00:54:03 -3.1 C 2.73 g/m*3 -3.1 C 0 km/h
1805 01-12-2010 01:06:03 -3.2 C 2.71 g/m*3 -3.2 C 0 km/h
1806 01-12-2010 01:18:03 -3.2 C 2.71 g/m*3 -3.2 C 0 km/h
1807 01-12-2010 01:30:03 -3.3 C 2.65 g/m*3 -3.3 C 0 km/h
1808 01-12-2010 01:42:03 -3.3 C 2.65 g/m*3 -3.3 C 0 km/h
1809 01-12-2010 01:54:03 -3.5 C 2.62 g/m*3 -3.5 C 0 km/h
1810 01-12-2010 02:06:03 -3.6 C 2.6 g/m*3 -3.6 C 0 km/h
1811 01-12-2010 02:18:03 -3.8 C 2.52 g/m*3 -3.8 C 0 km/h
1812 01-12-2010 02:30:03 -4 C 2.49 g/m*3 -4 C 0 km/h
1813 01-12-2010 02:42:03 -4 C 2.49 g/m*3 -4 C 0 km/h
1814 01-12-2010 02:54:03 -4 C 2.45 g/m*3 -4 C 0 km/h
1815 01-12-2010 03:06:03 -4.1 C 2.43 g/m*3 -4.1 C 0 km/h
1816 01-12-2010 03:18:03 -4.2 C 2.42 g/m*3 -4.2 C 0 km/h
1817 01-12-2010 03:30:04 -4.3 C 2.36 g/m*3 -4.3 C 0 km/h
1818 01-12-2010 03:42:04 -4.5 C 2.33 g/m*3 -4.5 C 0 km/h
1819 01-12-2010 03:54:04 -4.6 C 2.28 g/m*3 -4.6 C 0 km/h
1820 01-12-2010 04:06:04 -4.8 C 2.28 g/m*3 -4.8 C 0 km/h
1821 01-12-2010 04:18:04 -4.9 C 2.26 g/m*3 -4.9 C 0 km/h
1822 01-12-2010 04:30:04 -5 C 2.21 g/m*3 -5 C 0 km/h
1823 01-12-2010 04:42:04 -5.1 C 2.2 g/m*3 -5.1 C 0 km/h
1824 01-12-2010 04:54:04 -5.2 C 2.22 g/m*3 -5.2 C 0 km/h
1825 01-12-2010 05:06:04 -5.3 C 2.17 g/m*3 -5.3 C 0 km/h
Sensor: Nr:Datum:Temp:Abs-Feuchte:Windchill:Wind:
Aussen-T/F 1826 01-12-2010 05:18:04 -5.4 C 2.18 g/m*3 -5.4 C 0 km/h
1827 01-12-2010 05:30:04 -5.4 C 2.18 g/m*3 -5.4 C 0 km/h
1828 01-12-2010 05:42:04 -5.5 C 2.17 g/m*3 -5.5 C 0 km/h
1829 01-12-2010 05:54:04 -5.4 C 2.22 g/m*3 -5.4 C 0 km/h
1830 01-12-2010 06:06:04 -5.4 C 2.18 g/m*3 -5.4 C 0 km/h
1831 01-12-2010 06:18:04 -5.4 C 2.18 g/m*3 -5.4 C 0 km/h
1832 01-12-2010 06:30:04 -5.6 C 2.12 g/m*3 -5.6 C 0 km/h
1833 01-12-2010 06:42:04 -5.6 C 2.12 g/m*3 -5.6 C 0 km/h
1834 01-12-2010 06:54:04 -5.8 C 2.09 g/m*3 -5.8 C 0 km/h
1835 01-12-2010 07:06:04 -5.8 C 2.09 g/m*3 -5.8 C 0 km/h
1836 01-12-2010 07:18:04 -5.8 C 2.09 g/m*3 -5.8 C 0 km/h
1837 01-12-2010 07:30:04 -5.9 C 2.04 g/m*3 -5.9 C 0 km/h
1838 01-12-2010 07:42:03 -6 C 2.03 g/m*3 -6 C 0 km/h
1839 01-12-2010 07:54:02 -6 C 2.03 g/m*3 -6 C 0 km/h
1840 01-12-2010 08:06:02 -6.1 C 1.98 g/m*3 -6.1 C 0 km/h
1841 01-12-2010 08:18:02 -6.2 C 1.97 g/m*3 -6.2 C 0 km/h
1842 01-12-2010 08:30:02 -6.2 C 1.97 g/m*3 -6.2 C 0 km/h
1843 01-12-2010 08:42:02 -6.4 C 1.91 g/m*3 -6.4 C 0 km/h
1844 01-12-2010 08:54:01 -6.4 C 1.91 g/m*3 -6.4 C 0 km/h
1845 01-12-2010 09:06:02 -6.2 C 1.94 g/m*3 -6.2 C 0 km/h
1846 01-12-2010 09:18:01 -6.1 C 1.92 g/m*3 -6.1 C 0 km/h
1847 01-12-2010 09:30:01 -6 C 1.9 g/m*3 -6 C 0 km/h
1848 01-12-2010 09:42:02 -5.8 C 1.93 g/m*3 -5.8 C 0 km/h
1849 01-12-2010 09:54:02 -5.7 C 1.94 g/m*3 -5.7 C 0 km/h
1850 01-12-2010 10:06:02 -5.6 C 1.96 g/m*3 -5.6 C 0 km/h
Sensor: Nr:Datum:Temp:Abs-Feuchte:Windchill:Wind:
Aussen-T/F 1851 01-12-2010 10:18:01 -5.5 C 1.97 g/m*3 -5.5 C 0 km/h
1852 01-12-2010 10:30:01 -5.4 C 1.95 g/m*3 -5.4 C 0 km/h
1853 01-12-2010 10:42:02 -5.6 C 1.92 g/m*3 -5.6 C 0 km/h
1854 01-12-2010 10:54:01 -5.6 C 1.96 g/m*3 -5.6 C 0 km/h
1855 01-12-2010 11:06:02 -5.5 C 1.97 g/m*3 -5.5 C 0 km/h
1856 01-12-2010 11:18:02 -5.4 C 1.98 g/m*3 -5.4 C 0 km/h
1857 01-12-2010 11:30:02 -5.4 C 1.98 g/m*3 -5.4 C 0 km/h
1858 01-12-2010 11:42:02 -5.6 C 1.96 g/m*3 -5.6 C 0 km/h
1859 01-12-2010 11:54:02 -5.5 C 1.97 g/m*3 -5.5 C 0 km/h
1860 01-12-2010 12:06:01 -5.6 C 1.96 g/m*3 -5.6 C 0 km/h
1861 01-12-2010 12:18:02 -5.7 C 1.94 g/m*3 -5.7 C 0 km/h
1862 01-12-2010 12:30:03 -5.8 C 1.93 g/m*3 -5.8 C 0 km/h
1863 01-12-2010 12:42:01 -6 C 1.9 g/m*3 -6 C 0 km/h
1864 01-12-2010 12:54:02 -6 C 1.9 g/m*3 -6 C 0 km/h
1865 01-12-2010 13:06:01 -6 C 1.87 g/m*3 -6 C 0 km/h
1866 01-12-2010 13:18:01 -6.1 C 1.89 g/m*3 -6.1 C 0 km/h
1867 01-12-2010 13:30:01 -6.1 C 1.86 g/m*3 -6.1 C 0 km/h
1868 01-12-2010 13:42:02 -6.1 C 1.82 g/m*3 -6.1 C 0 km/h
1869 01-12-2010 13:54:02 -6.2 C 1.81 g/m*3 -6.2 C 0 km/h
1870 01-12-2010 14:06:02 -6.2 C 1.81 g/m*3 -6.2 C 0 km/h
1871 01-12-2010 14:18:02 -6.2 C 1.78 g/m*3 -6.2 C 0 km/h
1872 01-12-2010 14:30:02 -6.2 C 1.78 g/m*3 -6.2 C 0 km/h
1873 01-12-2010 14:42:02 -6.1 C 1.79 g/m*3 -6.1 C 0 km/h
1874 01-12-2010 14:54:02 -6.2 C 1.78 g/m*3 -6.2 C 0 km/h
1875 01-12-2010 15:06:02 -6.2 C 1.78 g/m*3 -6.2 C 0 km/h
Sensor: Nr:Datum:Temp:Abs-Feuchte:Windchill:Wind:
Aussen-T/F 1876 01-12-2010 15:18:02 -6.2 C 1.78 g/m*3 -6.2 C 0 km/h
1877 01-12-2010 15:30:02 -6.3 C 1.77 g/m*3 -6.3 C 0 km/h
1878 01-12-2010 15:42:02 -6.3 C 1.8 g/m*3 -6.3 C 0 km/h
1879 01-12-2010 15:54:01 -6.4 C 1.78 g/m*3 -6.4 C 0 km/h
1880 01-12-2010 16:06:01 -6.5 C 1.74 g/m*3 -6.5 C 0 km/h
1881 01-12-2010 16:18:02 -6.6 C 1.73 g/m*3 -6.6 C 0 km/h
1882 01-12-2010 16:30:02 -6.6 C 1.76 g/m*3 -6.6 C 0 km/h
1883 01-12-2010 16:42:01 -6.6 C 1.76 g/m*3 -6.6 C 0 km/h
1884 01-12-2010 16:54:01 -6.6 C 1.76 g/m*3 -6.6 C 0 km/h
1885 01-12-2010 17:06:01 -6.6 C 1.79 g/m*3 -6.6 C 0 km/h
1886 01-12-2010 17:18:02 -6.6 C 1.79 g/m*3 -6.6 C 0 km/h
1887 01-12-2010 17:30:02 -6.6 C 1.79 g/m*3 -6.6 C 0 km/h
1888 01-12-2010 17:42:01 -6.6 C 1.79 g/m*3 -6.6 C 0 km/h
1889 01-12-2010 17:54:03 -6.5 C 1.83 g/m*3 -6.5 C 0 km/h
1890 01-12-2010 18:06:02 -6.5 C 1.83 g/m*3 -6.5 C 0 km/h
1891 01-12-2010 18:18:02 -6.5 C 1.83 g/m*3 -6.5 C 0 km/h
1892 01-12-2010 18:30:02 -6.6 C 1.79 g/m*3 -6.6 C 0 km/h
1893 01-12-2010 18:42:02 -6.5 C 1.83 g/m*3 -6.5 C 0 km/h
1894 01-12-2010 18:54:02 -6.6 C 1.82 g/m*3 -6.6 C 0 km/h
1895 01-12-2010 19:06:01 -6.6 C 1.82 g/m*3 -6.6 C 0 km/h
1896 01-12-2010 19:18:02 -6.5 C 1.8 g/m*3 -6.5 C 0 km/h
1897 01-12-2010 19:30:02 -6.6 C 1.82 g/m*3 -6.6 C 0 km/h
1898 01-12-2010 19:42:02 -6.6 C 1.82 g/m*3 -6.6 C 0 km/h
1899 01-12-2010 19:54:02 -6.6 C 1.79 g/m*3 -6.6 C 0 km/h
1900 01-12-2010 20:06:03 -6.6 C 1.79 g/m*3 -6.6 C 0 km/h
Sensor: Nr:Datum:Temp:Abs-Feuchte:Windchill:Wind:
Aussen-T/F 1901 01-12-2010 20:18:02 -6.6 C 1.76 g/m*3 -6.6 C 0 km/h
1902 01-12-2010 20:30:02 -6.7 C 1.75 g/m*3 -6.7 C 0 km/h
1903 01-12-2010 20:42:02 -6.7 C 1.75 g/m*3 -6.7 C 0 km/h
1904 01-12-2010 20:54:01 -6.6 C 1.82 g/m*3 -6.6 C 0 km/h
1905 01-12-2010 21:06:02 -6.6 C 1.82 g/m*3 -6.6 C 0 km/h
1906 01-12-2010 21:18:01 -6.8 C 1.73 g/m*3 -6.8 C 0 km/h
1907 01-12-2010 21:30:01 -6.8 C 1.7 g/m*3 -6.8 C 0 km/h
1908 01-12-2010 21:42:01 -6.7 C 1.75 g/m*3 -6.7 C 0 km/h
1909 01-12-2010 21:54:01 -6.8 C 1.7 g/m*3 -6.8 C 0 km/h
1910 01-12-2010 22:06:01 -6.8 C 1.67 g/m*3 -6.8 C 0 km/h
1911 01-12-2010 22:18:02 -6.8 C 1.7 g/m*3 -6.8 C 0 km/h
1912 01-12-2010 22:30:02 -6.9 C 1.72 g/m*3 -6.9 C 0 km/h
1913 01-12-2010 22:42:01 -6.9 C 1.75 g/m*3 -6.9 C 0 km/h
1914 01-12-2010 22:54:02 -6.9 C 1.78 g/m*3 -6.9 C 0 km/h
1915 01-12-2010 23:06:02 -7 C 1.74 g/m*3 -7 C 0 km/h
1916 01-12-2010 23:18:02 -7 C 1.77 g/m*3 -7 C 0 km/h
1917 01-12-2010 23:30:02 -7 C 1.8 g/m*3 -7 C 0 km/h
1918 01-12-2010 23:42:03 -7.1 C 1.78 g/m*3 -7.1 C 0 km/h
1919 01-12-2010 23:54:02 -7.2 C 1.77 g/m*3 -7.2 C 0 km/h
1920 02-12-2010 00:06:02 -7.1 C 1.81 g/m*3 -7.1 C 0 km/h
1921 02-12-2010 00:18:01 -7.1 C 1.81 g/m*3 -7.1 C 0 km/h
1922 02-12-2010 00:30:01 -7.1 C 1.84 g/m*3 -7.1 C 0 km/h
1923 02-12-2010 00:42:02 -7.2 C 1.8 g/m*3 -7.2 C 0 km/h
1924 02-12-2010 00:54:02 -7.2 C 1.8 g/m*3 -7.2 C 0 km/h
1925 02-12-2010 01:06:02 -7.2 C 1.8 g/m*3 -7.2 C 0 km/h
Sensor: Nr:Datum:Temp:Abs-Feuchte:Windchill:Wind:
Aussen-T/F 1926 02-12-2010 01:18:02 -7.1 C 1.81 g/m*3 -7.1 C 0 km/h
1927 02-12-2010 01:30:02 -7.1 C 1.78 g/m*3 -7.1 C 0 km/h
1928 02-12-2010 01:42:02 -7.1 C 1.78 g/m*3 -7.1 C 0 km/h
1929 02-12-2010 01:54:02 -7.1 C 1.75 g/m*3 -7.1 C 0 km/h
1930 02-12-2010 02:06:02 -7.2 C 1.74 g/m*3 -7.2 C 0 km/h
1931 02-12-2010 02:18:03 -7.3 C 1.67 g/m*3 -7.3 C 0 km/h
1932 02-12-2010 02:30:03 -7.3 C 1.7 g/m*3 -7.3 C 0 km/h
1933 02-12-2010 02:42:02 -7.3 C 1.7 g/m*3 -7.3 C 0 km/h
1934 02-12-2010 02:55:04 -7.3 C 1.73 g/m*3 -7.3 C 0 km/h
1935 02-12-2010 03:07:04 -7.3 C 1.73 g/m*3 -7.3 C 0 km/h
1936 02-12-2010 03:19:04 -7.2 C 1.77 g/m*3 -7.2 C 0 km/h
1937 02-12-2010 03:31:01 -7.3 C 1.76 g/m*3 -7.3 C 0 km/h
1938 02-12-2010 03:43:01 -7.4 C 1.72 g/m*3 -7.4 C 0 km/h
1939 02-12-2010 03:55:01 -7.4 C 1.72 g/m*3 -7.4 C 0 km/h
1940 02-12-2010 04:07:01 -7.5 C 1.73 g/m*3 -7.5 C 0 km/h
1941 02-12-2010 04:19:01 -7.5 C 1.76 g/m*3 -7.5 C 0 km/h
1942 02-12-2010 04:31:01 -7.5 C 1.79 g/m*3 -7.5 C 0 km/h
1943 02-12-2010 04:43:01 -7.5 C 1.82 g/m*3 -7.5 C 0 km/h
1944 02-12-2010 04:55:01 -7.5 C 1.79 g/m*3 -7.5 C 0 km/h
1945 02-12-2010 05:07:01 -7.6 C 1.77 g/m*3 -7.6 C 0 km/h
1946 02-12-2010 05:19:02 -7.6 C 1.77 g/m*3 -7.6 C 0 km/h
1947 02-12-2010 05:31:01 -7.6 C 1.77 g/m*3 -7.6 C 0 km/h
1948 02-12-2010 05:43:01 -7.6 C 1.83 g/m*3 -7.6 C 0 km/h
1949 02-12-2010 05:55:03 -7.8 C 1.78 g/m*3 -7.8 C 0 km/h
1950 02-12-2010 06:07:02 -7.8 C 1.8 g/m*3 -7.8 C 0 km/h
Sensor: Nr:Datum:Temp:Abs-Feuchte:Windchill:Wind:
Aussen-T/F 1951 02-12-2010 06:19:02 -7.7 C 1.85 g/m*3 -7.7 C 0 km/h
1952 02-12-2010 06:31:02 -7.8 C 1.83 g/m*3 -7.8 C 0 km/h
1953 02-12-2010 06:43:02 -7.8 C 1.83 g/m*3 -7.8 C 0 km/h
1954 02-12-2010 06:55:02 -7.7 C 1.87 g/m*3 -7.7 C 0 km/h
1955 02-12-2010 07:07:01 -7.7 C 1.9 g/m*3 -7.7 C 0 km/h
1956 02-12-2010 07:19:02 -7.7 C 1.9 g/m*3 -7.7 C 0 km/h
1957 02-12-2010 07:31:02 -7.8 C 1.86 g/m*3 -7.8 C 0 km/h
1958 02-12-2010 07:43:02 -7.7 C 1.9 g/m*3 -7.7 C 0 km/h
1959 02-12-2010 07:55:02 -7.7 C 1.9 g/m*3 -7.7 C 0 km/h
1960 02-12-2010 08:07:02 -7.7 C 1.9 g/m*3 -7.7 C 0 km/h
1961 02-12-2010 08:19:02 -7.7 C 1.87 g/m*3 -7.7 C 0 km/h
1962 02-12-2010 08:31:03 -7.7 C 1.87 g/m*3 -7.7 C 0 km/h
1963 02-12-2010 08:43:03 -7.8 C 1.83 g/m*3 -7.8 C 0 km/h
1964 02-12-2010 08:55:02 -7.6 C 1.86 g/m*3 -7.6 C 0 km/h
1965 02-12-2010 09:07:01 -7.4 C 1.92 g/m*3 -7.4 C 0 km/h
1966 02-12-2010 09:19:01 -7.1 C 1.96 g/m*3 -7.1 C 0 km/h
1967 02-12-2010 09:31:02 -7.2 C 1.94 g/m*3 -7.2 C 0 km/h
1968 02-12-2010 09:43:02 -7.1 C 1.96 g/m*3 -7.1 C 0 km/h
1969 02-12-2010 09:55:02 -6.7 C 2.02 g/m*3 -6.7 C 0 km/h
1970 02-12-2010 10:07:02 -6.5 C 2.02 g/m*3 -6.5 C 0 km/h
1971 02-12-2010 10:19:02 -6.3 C 1.98 g/m*3 -6.3 C 0 km/h
1972 02-12-2010 10:31:02 -6.1 C 1.98 g/m*3 -6.1 C 0 km/h
1973 02-12-2010 10:43:02 -6 C 1.96 g/m*3 -6 C 0 km/h
1974 02-12-2010 10:55:02 -5.8 C 2.02 g/m*3 -5.8 C 0 km/h
1975 02-12-2010 11:07:02 -5.8 C 2.02 g/m*3 -5.8 C 0 km/h
Sensor: Nr:Datum:Temp:Abs-Feuchte:Windchill:Wind:
Aussen-T/F 1976 02-12-2010 11:19:01 -6.1 C 1.95 g/m*3 -6.1 C 0 km/h
1977 02-12-2010 11:31:02 -5.2 C 2.11 g/m*3 -5.2 C 0 km/h
1978 02-12-2010 11:43:02 -5.6 C 2.02 g/m*3 -5.6 C 0 km/h
1979 02-12-2010 11:55:01 -5.4 C 2.05 g/m*3 -5.4 C 0 km/h
1980 02-12-2010 12:07:02 -6.2 C 1.97 g/m*3 -6.2 C 0 km/h
1981 02-12-2010 12:19:02 -6.2 C 2.03 g/m*3 -6.2 C 0 km/h
1982 02-12-2010 12:31:01 -6.1 C 2.04 g/m*3 -6.1 C 0 km/h
1983 02-12-2010 12:43:01 -6.1 C 2.08 g/m*3 -6.1 C 0 km/h
1984 02-12-2010 12:55:02 -5.8 C 2.15 g/m*3 -5.8 C 0 km/h
1985 02-12-2010 13:07:01 -5.8 C 2.12 g/m*3 -5.8 C 0 km/h
1986 02-12-2010 13:19:02 -5.7 C 2.14 g/m*3 -5.7 C 0 km/h
1987 02-12-2010 13:31:01 -5.3 C 2.2 g/m*3 -5.3 C 0 km/h
1988 02-12-2010 13:43:01 -4.5 C 2.26 g/m*3 -4.5 C 0 km/h
1989 02-12-2010 13:55:02 -5.2 C 2.05 g/m*3 -5.2 C 0 km/h
1990 02-12-2010 14:07:02 -5.1 C 2.13 g/m*3 -5.1 C 0 km/h
1991 02-12-2010 14:19:02 -5.6 C 2.12 g/m*3 -5.6 C 0 km/h
1992 02-12-2010 14:31:02 -6 C 2.06 g/m*3 -6 C 0 km/h
1993 02-12-2010 14:43:02 -6 C 2.15 g/m*3 -6 C 0 km/h
1994 02-12-2010 14:55:02 -5.3 C 2.33 g/m*3 -5.3 C 0 km/h
1995 02-12-2010 15:07:02 -4.9 C 2.37 g/m*3 -4.9 C 0 km/h
1996 02-12-2010 15:19:01 -4.6 C 2.31 g/m*3 -4.6 C 0 km/h
1997 02-12-2010 15:31:02 -4.6 C 2.24 g/m*3 -4.6 C 0 km/h
1998 02-12-2010 15:43:02 -4.8 C 2.21 g/m*3 -4.8 C 0 km/h
1999 02-12-2010 15:55:02 -4.8 C 2.25 g/m*3 -4.8 C 0 km/h
2000 02-12-2010 16:07:02 -4.9 C 2.26 g/m*3 -4.9 C 0 km/h
Sensor: Nr:Datum:Temp:Abs-Feuchte:Windchill:Wind:
Aussen-T/F 2001 02-12-2010 16:19:01 -5.1 C 2.26 g/m*3 -5.1 C 0 km/h
2002 02-12-2010 16:31:02 -5.1 C 2.3 g/m*3 -5.1 C 0 km/h
2003 02-12-2010 16:43:02 -5.2 C 2.32 g/m*3 -5.2 C 0 km/h
2004 02-12-2010 16:55:02 -5.3 C 2.37 g/m*3 -5.3 C 0 km/h
2005 02-12-2010 17:07:02 -5.7 C 2.3 g/m*3 -5.7 C 0 km/h
2006 02-12-2010 17:19:02 -6.9 C 2.11 g/m*3 -6.9 C 0 km/h
2007 02-12-2010 17:31:02 -7.9 C 2.04 g/m*3 -7.9 C 0 km/h
2008 02-12-2010 17:43:02 -8.2 C 2.05 g/m*3 -8.2 C 0 km/h
2009 02-12-2010 17:55:01 -8.1 C 2.12 g/m*3 -8.1 C 0 km/h
2010 02-12-2010 18:07:02 -8.2 C 2.13 g/m*3 -8.2 C 0 km/h
2011 02-12-2010 18:19:02 -8 C 2.19 g/m*3 -8 C 0 km/h
2012 02-12-2010 18:31:02 -7.8 C 2.25 g/m*3 -7.8 C 0 km/h
2013 02-12-2010 18:43:02 -8.2 C 2.18 g/m*3 -8.2 C 0 km/h
2014 02-12-2010 18:55:02 -7.9 C 2.23 g/m*3 -7.9 C 0 km/h
2015 02-12-2010 19:07:01 -7.9 C 2.26 g/m*3 -7.9 C 0 km/h
2016 02-12-2010 19:19:02 -7.9 C 2.26 g/m*3 -7.9 C 0 km/h
2017 02-12-2010 19:31:02 -8.6 C 2.12 g/m*3 -8.6 C 0 km/h
2018 02-12-2010 19:43:02 -8.9 C 2.07 g/m*3 -8.9 C 0 km/h
2019 02-12-2010 19:55:02 -8.8 C 2.09 g/m*3 -8.8 C 0 km/h
2020 02-12-2010 20:07:01 -9.4 C 2 g/m*3 -9.4 C 0 km/h
2021 02-12-2010 20:19:01 -9 C 2.06 g/m*3 -9 C 0 km/h
2022 02-12-2010 20:31:02 -7.7 C 2.32 g/m*3 -7.7 C 0 km/h
2023 02-12-2010 20:43:02 -7.2 C 2.41 g/m*3 -7.2 C 0 km/h
2024 02-12-2010 20:55:02 -6.9 C 2.49 g/m*3 -6.9 C 0 km/h
2025 02-12-2010 21:07:02 -6.9 C 2.46 g/m*3 -6.9 C 0 km/h
Sensor: Nr:Datum:Temp:Abs-Feuchte:Windchill:Wind:
Aussen-T/F 2026 02-12-2010 21:19:02 -7 C 2.44 g/m*3 -7 C 0 km/h
2027 02-12-2010 21:31:02 -7.5 C 2.33 g/m*3 -7.5 C 0 km/h
2028 02-12-2010 21:43:02 -7.9 C 2.26 g/m*3 -7.9 C 0 km/h
2029 02-12-2010 21:55:02 -8.4 C 2.15 g/m*3 -8.4 C 0 km/h
2030 02-12-2010 22:07:02 -8.2 C 2.21 g/m*3 -8.2 C 0 km/h
2031 02-12-2010 22:20:04 -8.5 C 2.13 g/m*3 -8.5 C 0 km/h
2032 02-12-2010 22:32:04 -8.9 C 2.07 g/m*3 -8.9 C 0 km/h
2033 02-12-2010 22:44:04 -8.9 C 2.05 g/m*3 -8.9 C 0 km/h
2034 02-12-2010 22:56:04 -8.2 C 2.18 g/m*3 -8.2 C 0 km/h
2035 02-12-2010 23:08:04 -8.3 C 2.17 g/m*3 -8.3 C 0 km/h
2036 02-12-2010 23:20:04 -7.8 C 2.28 g/m*3 -7.8 C 0 km/h
2037 02-12-2010 23:32:04 -7.9 C 2.23 g/m*3 -7.9 C 0 km/h
2038 02-12-2010 23:44:04 -7.8 C 2.25 g/m*3 -7.8 C 0 km/h
2039 02-12-2010 23:56:04 -8 C 2.22 g/m*3 -8 C 0 km/h
2040 03-12-2010 00:08:04 -8.5 C 2.11 g/m*3 -8.5 C 0 km/h
2041 03-12-2010 00:20:04 -9.5 C 1.93 g/m*3 -9.5 C 0 km/h
2042 03-12-2010 00:32:04 -10.1 C 1.82 g/m*3 -10.1 C 0 km/h
2043 03-12-2010 00:44:04 -10.7 C 1.72 g/m*3 -10.7 C 0 km/h
2044 03-12-2010 00:56:04 -10.6 C 1.73 g/m*3 -10.6 C 0 km/h
2045 03-12-2010 01:08:04 -10.4 C 1.76 g/m*3 -10.4 C 0 km/h
2046 03-12-2010 01:20:04 -9.8 C 1.89 g/m*3 -9.8 C 0 km/h
2047 03-12-2010 01:32:04 -9.7 C 1.9 g/m*3 -9.7 C 0 km/h
2048 03-12-2010 01:44:04 -9.3 C 1.99 g/m*3 -9.3 C 0 km/h
2049 03-12-2010 01:56:04 -9.1 C 2.02 g/m*3 -9.1 C 0 km/h
2050 03-12-2010 02:08:04 -9.1 C 2.02 g/m*3 -9.1 C 0 km/h
Sensor: Nr:Datum:Temp:Abs-Feuchte:Windchill:Wind:
Aussen-T/F 2051 03-12-2010 02:20:04 -9 C 2.03 g/m*3 -9 C 0 km/h
2052 03-12-2010 02:32:05 -9.1 C 1.99 g/m*3 -9.1 C 0 km/h
2053 03-12-2010 02:44:05 -9.1 C 1.99 g/m*3 -9.1 C 0 km/h
2054 03-12-2010 02:56:05 -9.3 C 1.96 g/m*3 -9.3 C 0 km/h
2055 03-12-2010 03:08:05 -9.2 C 1.98 g/m*3 -9.2 C 0 km/h
2056 03-12-2010 03:20:05 -9 C 2.01 g/m*3 -9 C 0 km/h
2057 03-12-2010 03:32:05 -8.7 C 2.05 g/m*3 -8.7 C 0 km/h
2058 03-12-2010 03:44:05 -8.5 C 2.11 g/m*3 -8.5 C 0 km/h
2059 03-12-2010 03:56:05 -8.5 C 2.08 g/m*3 -8.5 C 0 km/h
2060 03-12-2010 04:08:05 -8.2 C 2.13 g/m*3 -8.2 C 0 km/h
2061 03-12-2010 04:20:05 -8.1 C 2.14 g/m*3 -8.1 C 0 km/h
2062 03-12-2010 04:32:05 -7.9 C 2.18 g/m*3 -7.9 C 0 km/h
2063 03-12-2010 04:44:05 -8 C 2.16 g/m*3 -8 C 0 km/h
2064 03-12-2010 04:56:05 -8.1 C 2.12 g/m*3 -8.1 C 0 km/h
2065 03-12-2010 05:08:05 -8.6 C 2.04 g/m*3 -8.6 C 0 km/h
2066 03-12-2010 05:20:05 -8.8 C 1.98 g/m*3 -8.8 C 0 km/h
2067 03-12-2010 05:32:05 -8.6 C 2.04 g/m*3 -8.6 C 0 km/h
2068 03-12-2010 05:44:05 -8.5 C 2.08 g/m*3 -8.5 C 0 km/h
2069 03-12-2010 05:56:05 -8.9 C 2 g/m*3 -8.9 C 0 km/h
2070 03-12-2010 06:08:05 -9.5 C 1.91 g/m*3 -9.5 C 0 km/h
2071 03-12-2010 06:20:05 -9.8 C 1.84 g/m*3 -9.8 C 0 km/h
2072 03-12-2010 06:32:06 -9.6 C 1.89 g/m*3 -9.6 C 0 km/h
2073 03-12-2010 06:44:06 -9.4 C 1.92 g/m*3 -9.4 C 0 km/h
2074 03-12-2010 06:56:06 -9.1 C 1.99 g/m*3 -9.1 C 0 km/h
2075 03-12-2010 07:08:03 -8.7 C 2.08 g/m*3 -8.7 C 0 km/h
Sensor: Nr:Datum:Temp:Abs-Feuchte:Windchill:Wind:
Aussen-T/F 2076 03-12-2010 07:20:04 -8.7 C 2.08 g/m*3 -8.7 C 0 km/h
2077 03-12-2010 07:32:03 -8.9 C 2.02 g/m*3 -8.9 C 0 km/h
2078 03-12-2010 07:44:03 -9 C 2.01 g/m*3 -9 C 0 km/h
2079 03-12-2010 07:56:02 -9.3 C 1.96 g/m*3 -9.3 C 0 km/h
2080 03-12-2010 08:08:02 -9.5 C 1.93 g/m*3 -9.5 C 0 km/h
2081 03-12-2010 08:20:02 -9.9 C 1.85 g/m*3 -9.9 C 0 km/h
2082 03-12-2010 08:32:03 -10.2 C 1.81 g/m*3 -10.2 C 0 km/h
2083 03-12-2010 08:44:03 -10 C 1.84 g/m*3 -10 C 0 km/h
2084 03-12-2010 08:56:02 -10 C 1.84 g/m*3 -10 C 0 km/h
2085 03-12-2010 09:08:01 -10 C 1.84 g/m*3 -10 C 0 km/h
2086 03-12-2010 09:20:02 -9.8 C 1.87 g/m*3 -9.8 C 0 km/h
2087 03-12-2010 09:32:02 -10 C 1.81 g/m*3 -10 C 0 km/h
2088 03-12-2010 09:44:02 -9.8 C 1.84 g/m*3 -9.8 C 0 km/h
2089 03-12-2010 09:56:02 -9.4 C 1.87 g/m*3 -9.4 C 0 km/h
2090 03-12-2010 10:08:03 -9.1 C 1.92 g/m*3 -9.1 C 0 km/h
2091 03-12-2010 10:20:02 -8.6 C 1.96 g/m*3 -8.6 C 0 km/h
2092 03-12-2010 10:32:02 -8.2 C 2.05 g/m*3 -8.2 C 0 km/h
2093 03-12-2010 10:44:02 -7.5 C 2.16 g/m*3 -7.5 C 0 km/h
2094 03-12-2010 10:56:01 -7.1 C 2.19 g/m*3 -7.1 C 0 km/h
2095 03-12-2010 11:08:02 -6.6 C 2.24 g/m*3 -6.6 C 0 km/h
2096 03-12-2010 11:20:01 -6.6 C 2.21 g/m*3 -6.6 C 0 km/h
2097 03-12-2010 11:32:01 -6.4 C 2.21 g/m*3 -6.4 C 0 km/h
2098 03-12-2010 11:44:01 -6.2 C 2.22 g/m*3 -6.2 C 0 km/h
2099 03-12-2010 11:56:01 -5.8 C 2.25 g/m*3 -5.8 C 0 km/h
2100 03-12-2010 12:08:01 -5.7 C 2.23 g/m*3 -5.7 C 0 km/h
Sensor: Nr:Datum:Temp:Abs-Feuchte:Windchill:Wind:
Aussen-T/F 2101 03-12-2010 12:20:02 -5.4 C 2.25 g/m*3 -5.4 C 0 km/h
2102 03-12-2010 12:32:01 -4.9 C 2.33 g/m*3 -4.9 C 0 km/h
2103 03-12-2010 12:44:01 -4.8 C 2.31 g/m*3 -4.8 C 0 km/h
2104 03-12-2010 12:56:02 -5 C 2.28 g/m*3 -5 C 0 km/h
2105 03-12-2010 13:08:01 -4.9 C 2.3 g/m*3 -4.9 C 0 km/h
2106 03-12-2010 13:20:02 -4.7 C 2.33 g/m*3 -4.7 C 0 km/h
2107 03-12-2010 13:32:01 -4.8 C 2.31 g/m*3 -4.8 C 0 km/h
2108 03-12-2010 13:44:01 -4.7 C 2.33 g/m*3 -4.7 C 0 km/h
2109 03-12-2010 13:56:02 -4.6 C 2.35 g/m*3 -4.6 C 0 km/h
2110 03-12-2010 14:08:02 -4.4 C 2.35 g/m*3 -4.4 C 0 km/h
2111 03-12-2010 14:20:02 -4.3 C 2.4 g/m*3 -4.3 C 0 km/h
2112 03-12-2010 14:32:02 -4.3 C 2.36 g/m*3 -4.3 C 0 km/h
2113 03-12-2010 14:44:02 -4.2 C 2.38 g/m*3 -4.2 C 0 km/h
2114 03-12-2010 14:56:02 -4.1 C 2.4 g/m*3 -4.1 C 0 km/h
2115 03-12-2010 15:08:02 -4.2 C 2.42 g/m*3 -4.2 C 0 km/h
2116 03-12-2010 15:20:01 -4.4 C 2.42 g/m*3 -4.4 C 0 km/h
2117 03-12-2010 15:32:02 -4.7 C 2.4 g/m*3 -4.7 C 0 km/h
2118 03-12-2010 15:44:02 -4.8 C 2.42 g/m*3 -4.8 C 0 km/h
2119 03-12-2010 15:56:02 -5.3 C 2.37 g/m*3 -5.3 C 0 km/h
2120 03-12-2010 16:08:02 -5.7 C 2.36 g/m*3 -5.7 C 0 km/h
2121 03-12-2010 16:20:02 -6.1 C 2.36 g/m*3 -6.1 C 0 km/h
2122 03-12-2010 16:32:02 -6.3 C 2.35 g/m*3 -6.3 C 0 km/h
2123 03-12-2010 16:44:02 -6.3 C 2.39 g/m*3 -6.3 C 0 km/h
2124 03-12-2010 16:56:02 -6.5 C 2.38 g/m*3 -6.5 C 0 km/h
2125 03-12-2010 17:08:02 -6.8 C 2.33 g/m*3 -6.8 C 0 km/h
Sensor: Nr:Datum:Temp:Abs-Feuchte:Windchill:Wind:
Aussen-T/F 2126 03-12-2010 17:20:02 -6.8 C 2.36 g/m*3 -6.8 C 0 km/h
2127 03-12-2010 17:32:02 -7 C 2.33 g/m*3 -7 C 0 km/h
2128 03-12-2010 17:44:02 -7 C 2.36 g/m*3 -7 C 0 km/h
2129 03-12-2010 17:56:02 -7.3 C 2.3 g/m*3 -7.3 C 0 km/h
2130 03-12-2010 18:08:02 -7.4 C 2.29 g/m*3 -7.4 C 0 km/h
2131 03-12-2010 18:20:02 -7.3 C 2.3 g/m*3 -7.3 C 0 km/h
2132 03-12-2010 18:32:02 -7 C 2.36 g/m*3 -7 C 0 km/h
2133 03-12-2010 18:44:02 -6.8 C 2.42 g/m*3 -6.8 C 0 km/h
2134 03-12-2010 18:56:02 -6.6 C 2.46 g/m*3 -6.6 C 0 km/h
2135 03-12-2010 19:08:02 -6.1 C 2.58 g/m*3 -6.1 C 0 km/h
2136 03-12-2010 19:20:02 -5.8 C 2.64 g/m*3 -5.8 C 0 km/h
2137 03-12-2010 19:32:01 -5.7 C 2.65 g/m*3 -5.7 C 0 km/h
2138 03-12-2010 19:44:01 -5.6 C 2.64 g/m*3 -5.6 C 0 km/h
2139 03-12-2010 19:56:02 -5.5 C 2.66 g/m*3 -5.5 C 0 km/h
2140 03-12-2010 20:08:01 -5.5 C 2.63 g/m*3 -5.5 C 0 km/h
2141 03-12-2010 20:20:02 -5.4 C 2.65 g/m*3 -5.4 C 0 km/h
2142 03-12-2010 20:32:02 -5.3 C 2.67 g/m*3 -5.3 C 0 km/h
2143 03-12-2010 20:44:02 -5.3 C 2.63 g/m*3 -5.3 C 0 km/h
2144 03-12-2010 20:56:02 -5.3 C 2.63 g/m*3 -5.3 C 0 km/h
2145 03-12-2010 21:08:03 -5.3 C 2.63 g/m*3 -5.3 C 0 km/h
2146 03-12-2010 21:20:02 -5.5 C 2.56 g/m*3 -5.5 C 0 km/h
2147 03-12-2010 21:32:02 -6.1 C 2.45 g/m*3 -6.1 C 0 km/h
2148 03-12-2010 21:44:02 -6.1 C 2.48 g/m*3 -6.1 C 0 km/h
2149 03-12-2010 21:56:01 -5.6 C 2.61 g/m*3 -5.6 C 0 km/h
2150 03-12-2010 22:08:02 -5.9 C 2.55 g/m*3 -5.9 C 0 km/h
Sensor: Nr:Datum:Temp:Abs-Feuchte:Windchill:Wind:
Aussen-T/F 2151 03-12-2010 22:20:01 -6.5 C 2.41 g/m*3 -6.5 C 0 km/h
2152 03-12-2010 22:32:02 -6.9 C 2.37 g/m*3 -6.9 C 0 km/h
2153 03-12-2010 22:44:03 -7.2 C 2.32 g/m*3 -7.2 C 0 km/h
2154 03-12-2010 22:56:02 -7.4 C 2.32 g/m*3 -7.4 C 0 km/h
2155 03-12-2010 23:08:02 -8 C 2.22 g/m*3 -8 C 0 km/h
2156 03-12-2010 23:20:01 -8 C 2.22 g/m*3 -8 C 0 km/h
2157 03-12-2010 23:32:02 -8.2 C 2.18 g/m*3 -8.2 C 0 km/h
2158 03-12-2010 23:44:02 -7.2 C 2.41 g/m*3 -7.2 C 0 km/h
2159 03-12-2010 23:56:02 -8.2 C 2.21 g/m*3 -8.2 C 0 km/h
2160 04-12-2010 00:08:02 -8.7 C 2.13 g/m*3 -8.7 C 0 km/h
2161 04-12-2010 00:20:02 -8.4 C 2.18 g/m*3 -8.4 C 0 km/h
2162 04-12-2010 00:32:02 -8.5 C 2.16 g/m*3 -8.5 C 0 km/h
2163 04-12-2010 00:44:02 -8.6 C 2.14 g/m*3 -8.6 C 0 km/h
2164 04-12-2010 00:56:02 -8.3 C 2.22 g/m*3 -8.3 C 0 km/h
2165 04-12-2010 01:08:02 -8.2 C 2.24 g/m*3 -8.2 C 0 km/h
2166 04-12-2010 01:20:03 -9.1 C 2.04 g/m*3 -9.1 C 0 km/h
2167 04-12-2010 01:32:02 -9.4 C 2 g/m*3 -9.4 C 0 km/h
2168 04-12-2010 01:44:02 -9.4 C 2 g/m*3 -9.4 C 0 km/h
2169 04-12-2010 01:56:02 -9.4 C 2.02 g/m*3 -9.4 C 0 km/h
2170 04-12-2010 02:08:02 -9.6 C 1.97 g/m*3 -9.6 C 0 km/h
2171 04-12-2010 02:20:02 -9.4 C 2 g/m*3 -9.4 C 0 km/h
2172 04-12-2010 02:32:02 -9 C 2.08 g/m*3 -9 C 0 km/h
2173 04-12-2010 02:44:02 -9.1 C 2.04 g/m*3 -9.1 C 0 km/h
2174 04-12-2010 02:57:04 -9.2 C 2.03 g/m*3 -9.2 C 0 km/h
2175 04-12-2010 03:09:04 -9.8 C 1.94 g/m*3 -9.8 C 0 km/h
Sensor: Nr:Datum:Temp:Abs-Feuchte:Windchill:Wind:
Aussen-T/F 2176 04-12-2010 03:21:03 -10.4 C 1.83 g/m*3 -10.4 C 0 km/h
2177 04-12-2010 03:33:01 -10.5 C 1.79 g/m*3 -10.5 C 0 km/h
2178 04-12-2010 03:45:01 -10 C 1.88 g/m*3 -10 C 0 km/h
2179 04-12-2010 03:57:01 -9 C 2.06 g/m*3 -9 C 0 km/h
2180 04-12-2010 04:09:02 -8.8 C 2.09 g/m*3 -8.8 C 0 km/h
2181 04-12-2010 04:21:02 -8.2 C 2.21 g/m*3 -8.2 C 0 km/h
2182 04-12-2010 04:33:01 -8 C 2.24 g/m*3 -8 C 0 km/h
2183 04-12-2010 04:45:02 -7.6 C 2.31 g/m*3 -7.6 C 0 km/h
2184 04-12-2010 04:57:02 -7.2 C 2.38 g/m*3 -7.2 C 0 km/h
2185 04-12-2010 05:09:01 -6.9 C 2.43 g/m*3 -6.9 C 0 km/h
2186 04-12-2010 05:21:02 -6.3 C 2.57 g/m*3 -6.3 C 0 km/h
2187 04-12-2010 05:33:01 -5.1 C 2.81 g/m*3 -5.1 C 0 km/h
2188 04-12-2010 05:45:02 -4.5 C 2.82 g/m*3 -4.5 C 0 km/h
2189 04-12-2010 05:57:02 -4.8 C 2.73 g/m*3 -4.8 C 0 km/h
2190 04-12-2010 06:09:02 -4.5 C 2.68 g/m*3 -4.5 C 0 km/h
2191 04-12-2010 06:21:02 -4.9 C 2.57 g/m*3 -4.9 C 0 km/h
2192 04-12-2010 06:33:03 -5 C 2.55 g/m*3 -5 C 0 km/h
2193 04-12-2010 06:45:02 -5.3 C 2.53 g/m*3 -5.3 C 0 km/h
2194 04-12-2010 06:57:02 -5 C 2.62 g/m*3 -5 C 0 km/h
2195 04-12-2010 07:09:02 -5 C 2.62 g/m*3 -5 C 0 km/h
2196 04-12-2010 07:21:01 -5.3 C 2.53 g/m*3 -5.3 C 0 km/h
2197 04-12-2010 07:33:02 -5.4 C 2.51 g/m*3 -5.4 C 0 km/h
2198 04-12-2010 07:45:02 -5.2 C 2.58 g/m*3 -5.2 C 0 km/h
2199 04-12-2010 07:57:02 -4.8 C 2.66 g/m*3 -4.8 C 0 km/h
2200 04-12-2010 08:09:02 -4.8 C 2.63 g/m*3 -4.8 C 0 km/h
Sensor: Nr:Datum:Temp:Abs-Feuchte:Windchill:Wind:
Aussen-T/F 2201 04-12-2010 08:21:02 -4.1 C 2.76 g/m*3 -4.1 C 0 km/h
2202 04-12-2010 08:33:02 -3.8 C 2.71 g/m*3 -3.8 C 0 km/h
2203 04-12-2010 08:45:02 -3.5 C 2.65 g/m*3 -3.5 C 0 km/h
2204 04-12-2010 08:57:02 -3.5 C 2.58 g/m*3 -3.5 C 0 km/h
2205 04-12-2010 09:09:02 -3.3 C 2.61 g/m*3 -3.3 C 0 km/h
2206 04-12-2010 09:21:01 -3.1 C 2.57 g/m*3 -3.1 C 0 km/h
2207 04-12-2010 09:33:02 -3 C 2.59 g/m*3 -3 C 0 km/h
2208 04-12-2010 09:45:01 -2.9 C 2.61 g/m*3 -2.9 C 0 km/h
2209 04-12-2010 09:57:01 -3.2 C 2.52 g/m*3 -3.2 C 0 km/h
2210 04-12-2010 10:09:02 -2.9 C 2.57 g/m*3 -2.9 C 0 km/h
2211 04-12-2010 10:21:02 -2.4 C 2.66 g/m*3 -2.4 C 0 km/h
2212 04-12-2010 10:33:02 -2 C 2.82 g/m*3 -2 C 0 km/h
2213 04-12-2010 10:45:02 -1.8 C 2.69 g/m*3 -1.8 C 0 km/h
2214 04-12-2010 10:57:02 -1.5 C 2.62 g/m*3 -1.5 C 0 km/h
2215 04-12-2010 11:09:01 -1.5 C 2.58 g/m*3 -1.5 C 0 km/h
2216 04-12-2010 11:21:02 -1.3 C 2.43 g/m*3 -1.3 C 0 km/h
2217 04-12-2010 11:33:01 -1.5 C 2.4 g/m*3 -1.5 C 0 km/h
2218 04-12-2010 11:45:02 -1.3 C 2.43 g/m*3 -1.3 C 0 km/h
2219 04-12-2010 11:57:02 -1.3 C 2.39 g/m*3 -1.3 C 0 km/h
2220 04-12-2010 12:09:02 -1 C 2.49 g/m*3 -1 C 0 km/h
2221 04-12-2010 12:21:02 -0.9 C 2.41 g/m*3 -0.9 C 0 km/h
2222 04-12-2010 12:33:03 -0.7 C 2.49 g/m*3 -0.7 C 0 km/h
2223 04-12-2010 12:45:02 -0.8 C 2.43 g/m*3 -0.8 C 0 km/h
2224 04-12-2010 12:57:02 -0.9 C 2.46 g/m*3 -0.9 C 0 km/h
2225 04-12-2010 13:09:02 -1.3 C 2.39 g/m*3 -1.3 C 0 km/h
Sensor: Nr:Datum:Temp:Abs-Feuchte:Windchill:Wind:
Aussen-T/F 2226 04-12-2010 13:21:01 -1.6 C 2.38 g/m*3 -1.6 C 0 km/h
2227 04-12-2010 13:33:02 -1.6 C 2.38 g/m*3 -1.6 C 0 km/h
2228 04-12-2010 13:45:02 -1.3 C 2.43 g/m*3 -1.3 C 0 km/h
2229 04-12-2010 13:57:02 -1.2 C 2.45 g/m*3 -1.2 C 0 km/h
2230 04-12-2010 14:09:02 -1.1 C 2.47 g/m*3 -1.1 C 0 km/h
2231 04-12-2010 14:21:01 -1.1 C 2.47 g/m*3 -1.1 C 0 km/h
2232 04-12-2010 14:33:02 -0.9 C 2.46 g/m*3 -0.9 C 0 km/h
2233 04-12-2010 14:45:01 -1 C 2.49 g/m*3 -1 C 0 km/h
2234 04-12-2010 14:57:01 -0.9 C 2.46 g/m*3 -0.9 C 0 km/h
2235 04-12-2010 15:09:02 -0.9 C 2.5 g/m*3 -0.9 C 0 km/h
2236 04-12-2010 15:21:02 -0.9 C 2.5 g/m*3 -0.9 C 0 km/h
2237 04-12-2010 15:33:02 -0.9 C 2.5 g/m*3 -0.9 C 0 km/h
2238 04-12-2010 15:45:01 -0.9 C 2.5 g/m*3 -0.9 C 0 km/h
2239 04-12-2010 15:57:01 -1 C 2.58 g/m*3 -1 C 0 km/h
2240 04-12-2010 16:09:02 -1.1 C 2.6 g/m*3 -1.1 C 0 km/h
2241 04-12-2010 16:21:02 -1.1 C 2.6 g/m*3 -1.1 C 0 km/h
2242 04-12-2010 16:33:01 -1.3 C 2.66 g/m*3 -1.3 C 0 km/h
2243 04-12-2010 16:45:02 -1.2 C 2.67 g/m*3 -1.2 C 0 km/h
2244 04-12-2010 16:57:02 -1.4 C 2.68 g/m*3 -1.4 C 0 km/h
2245 04-12-2010 17:09:01 -1.2 C 2.72 g/m*3 -1.2 C 0 km/h
2246 04-12-2010 17:21:02 -1 C 2.76 g/m*3 -1 C 0 km/h
2247 04-12-2010 17:33:02 -1 C 2.76 g/m*3 -1 C 0 km/h
2248 04-12-2010 17:45:02 -1.1 C 2.78 g/m*3 -1.1 C 0 km/h
2249 04-12-2010 17:57:03 -1.1 C 2.78 g/m*3 -1.1 C 0 km/h
2250 04-12-2010 18:09:02 -1.1 C 2.78 g/m*3 -1.1 C 0 km/h
Sensor: Nr:Datum:Temp:Abs-Feuchte:Windchill:Wind:
Aussen-T/F 2251 04-12-2010 18:21:02 -1 C 2.8 g/m*3 -1 C 0 km/h
2252 04-12-2010 18:33:02 -0.8 C 2.8 g/m*3 -0.8 C 0 km/h
2253 04-12-2010 18:45:01 -0.8 C 2.8 g/m*3 -0.8 C 0 km/h
2254 04-12-2010 18:57:01 -0.8 C 2.8 g/m*3 -0.8 C 0 km/h
2255 04-12-2010 19:09:02 -0.9 C 2.78 g/m*3 -0.9 C 0 km/h
2256 04-12-2010 19:21:01 -0.8 C 2.8 g/m*3 -0.8 C 0 km/h
2257 04-12-2010 19:33:02 -0.8 C 2.8 g/m*3 -0.8 C 0 km/h
2258 04-12-2010 19:45:01 -1 C 2.8 g/m*3 -1 C 0 km/h
2259 04-12-2010 19:57:01 -1.1 C 2.78 g/m*3 -1.1 C 0 km/h
2260 04-12-2010 20:09:02 -1.1 C 2.83 g/m*3 -1.1 C 0 km/h
2261 04-12-2010 20:21:01 -1.2 C 2.85 g/m*3 -1.2 C 0 km/h
2262 04-12-2010 20:33:02 -0.9 C 2.87 g/m*3 -0.9 C 0 km/h
2263 04-12-2010 20:45:01 -0.7 C 2.91 g/m*3 -0.7 C 0 km/h
2264 04-12-2010 20:57:01 -0.9 C 2.91 g/m*3 -0.9 C 0 km/h
2265 04-12-2010 21:09:02 -1.2 C 2.94 g/m*3 -1.2 C 0 km/h
2266 04-12-2010 21:21:02 -1.1 C 3.01 g/m*3 -1.1 C 0 km/h
2267 04-12-2010 21:33:01 -1 C 3.12 g/m*3 -1 C 0 km/h
2268 04-12-2010 21:45:02 -1.1 C 3.28 g/m*3 -1.1 C 0 km/h
2269 04-12-2010 21:57:02 -1.1 C 3.32 g/m*3 -1.1 C 0 km/h
2270 04-12-2010 22:09:02 -1.3 C 3.32 g/m*3 -1.3 C 0 km/h
2271 04-12-2010 22:21:01 -1.1 C 3.46 g/m*3 -1.1 C 0 km/h
2272 04-12-2010 22:33:02 -1.3 C 3.45 g/m*3 -1.3 C 0 km/h
2273 04-12-2010 22:45:02 -1.1 C 3.55 g/m*3 -1.1 C 0 km/h
2274 04-12-2010 22:57:02 -1.1 C 3.55 g/m*3 -1.1 C 0 km/h
2275 04-12-2010 23:09:02 -1.3 C 3.5 g/m*3 -1.3 C 0 km/h
Sensor: Nr:Datum:Temp:Abs-Feuchte:Windchill:Wind:
Aussen-T/F 2276 04-12-2010 23:21:02 -1.4 C 3.47 g/m*3 -1.4 C 0 km/h
2277 04-12-2010 23:33:02 -1.1 C 3.5 g/m*3 -1.1 C 0 km/h
2278 04-12-2010 23:45:02 -1 C 3.53 g/m*3 -1 C 0 km/h
2279 04-12-2010 23:57:02 -0.8 C 3.53 g/m*3 -0.8 C 0 km/h
2280 05-12-2010 00:09:02 -0.8 C 3.48 g/m*3 -0.8 C 0 km/h
2281 05-12-2010 00:21:02 -0.7 C 3.51 g/m*3 -0.7 C 0 km/h
2282 05-12-2010 00:33:02 -0.5 C 3.51 g/m*3 -0.5 C 0 km/h
2283 05-12-2010 00:45:02 -0.4 C 3.49 g/m*3 -0.4 C 0 km/h
2284 05-12-2010 00:57:02 -0.1 C 3.42 g/m*3 -0.1 C 0 km/h
2285 05-12-2010 01:09:02 -0.1 C 3.42 g/m*3 -0.1 C 0 km/h
2286 05-12-2010 01:21:02 0.3 C 3.26 g/m*3 0.3 C 0 km/h
2287 05-12-2010 01:33:02 0.3 C 3.26 g/m*3 0.3 C 0 km/h
2288 05-12-2010 01:45:02 0.1 C 3.27 g/m*3 0.1 C 0 km/h
2289 05-12-2010 01:57:02 0 C 3.34 g/m*3 0 C 0 km/h
2290 05-12-2010 02:09:02 0 C 3.39 g/m*3 0 C 0 km/h
2291 05-12-2010 02:21:03 0.1 C 3.46 g/m*3 0.1 C 0 km/h
2292 05-12-2010 02:33:02 0 C 3.49 g/m*3 0 C 0 km/h
2293 05-12-2010 02:46:04 0 C 3.54 g/m*3 0 C 0 km/h
2294 05-12-2010 02:58:04 0 C 3.59 g/m*3 0 C 0 km/h
2295 05-12-2010 03:10:04 0 C 3.54 g/m*3 0 C 0 km/h
2296 05-12-2010 03:22:04 0.2 C 3.49 g/m*3 0.2 C 0 km/h
2297 05-12-2010 03:34:02 0.2 C 3.54 g/m*3 0.2 C 0 km/h
2298 05-12-2010 03:46:02 0.1 C 3.51 g/m*3 0.1 C 0 km/h
2299 05-12-2010 03:58:02 0.1 C 3.56 g/m*3 0.1 C 0 km/h
2300 05-12-2010 04:10:02 0.1 C 3.61 g/m*3 0.1 C 0 km/h
Sensor: Nr:Datum:Temp:Abs-Feuchte:Windchill:Wind:
Aussen-T/F 2301 05-12-2010 04:22:02 0.1 C 3.66 g/m*3 0.1 C 0 km/h
2302 05-12-2010 04:34:02 0.1 C 3.66 g/m*3 0.1 C 0 km/h
2303 05-12-2010 04:46:01 0.2 C 3.54 g/m*3 0.2 C 0 km/h
2304 05-12-2010 04:58:01 0.1 C 3.42 g/m*3 0.1 C 0 km/h
2305 05-12-2010 05:10:01 0.3 C 3.36 g/m*3 0.3 C 0 km/h
2306 05-12-2010 05:22:01 -0.1 C 3.32 g/m*3 -0.1 C 0 km/h
2307 05-12-2010 05:34:01 0.1 C 3.27 g/m*3 0.1 C 0 km/h
2308 05-12-2010 05:46:01 0.6 C 3.18 g/m*3 0.6 C 0 km/h
2309 05-12-2010 05:58:01 0.2 C 3.09 g/m*3 0.2 C 0 km/h
2310 05-12-2010 06:10:01 0.2 C 3.14 g/m*3 0.2 C 0 km/h
2311 05-12-2010 06:22:02 0.5 C 3.06 g/m*3 0.5 C 0 km/h
2312 05-12-2010 06:34:01 0.1 C 2.98 g/m*3 0.1 C 0 km/h
2313 05-12-2010 06:46:02 0.2 C 3 g/m*3 0.2 C 0 km/h
2314 05-12-2010 06:58:02 0.1 C 2.93 g/m*3 0.1 C 0 km/h
2315 05-12-2010 07:10:02 -0.2 C 3.01 g/m*3 -0.2 C 0 km/h
2316 05-12-2010 07:22:02 0.2 C 2.95 g/m*3 0.2 C 0 km/h
2317 05-12-2010 07:34:01 0.1 C 2.88 g/m*3 0.1 C 0 km/h
2318 05-12-2010 07:46:02 -0.2 C 2.82 g/m*3 -0.2 C 0 km/h
2319 05-12-2010 07:58:02 -0.3 C 2.89 g/m*3 -0.3 C 0 km/h
2320 05-12-2010 08:10:01 -0.5 C 2.9 g/m*3 -0.5 C 0 km/h
2321 05-12-2010 08:22:01 0.1 C 2.93 g/m*3 0.1 C 0 km/h
2322 05-12-2010 08:34:02 -0.1 C 2.84 g/m*3 -0.1 C 0 km/h
2323 05-12-2010 08:46:02 -0.4 C 2.83 g/m*3 -0.4 C 0 km/h
2324 05-12-2010 08:58:02 -0.7 C 3 g/m*3 -0.7 C 0 km/h
2325 05-12-2010 09:10:02 -0.6 C 3.02 g/m*3 -0.6 C 0 km/h
Sensor: Nr:Datum:Temp:Abs-Feuchte:Windchill:Wind:
Aussen-T/F 2326 05-12-2010 09:22:02 -0.4 C 3.02 g/m*3 -0.4 C 0 km/h
2327 05-12-2010 09:34:02 0 C 2.91 g/m*3 0 C 0 km/h
2328 05-12-2010 09:46:02 0.3 C 2.97 g/m*3 0.3 C 0 km/h
2329 05-12-2010 09:58:02 0.8 C 2.87 g/m*3 0.8 C 0 km/h
2330 05-12-2010 10:10:02 1.2 C 2.74 g/m*3 1.2 C 0 km/h
2331 05-12-2010 10:22:02 1.5 C 2.69 g/m*3 1.5 C 0 km/h
2332 05-12-2010 10:34:02 1.6 C 3.03 g/m*3 1.6 C 0 km/h
2333 05-12-2010 10:46:02 1.9 C 2.81 g/m*3 1.9 C 0 km/h
2334 05-12-2010 10:58:02 2.2 C 2.87 g/m*3 2.2 C 0 km/h
2335 05-12-2010 11:10:02 2.5 C 2.7 g/m*3 2.5 C 0 km/h
2336 05-12-2010 11:22:02 2.3 C 2.78 g/m*3 2.3 C 0 km/h
2337 05-12-2010 11:34:02 2.5 C 2.87 g/m*3 2.5 C 0 km/h
2338 05-12-2010 11:46:01 2.6 C 2.72 g/m*3 2.6 C 0 km/h
2339 05-12-2010 11:58:01 2.8 C 2.76 g/m*3 2.8 C 0 km/h
2340 05-12-2010 12:10:01 2.8 C 2.7 g/m*3 2.8 C 0 km/h
2341 05-12-2010 12:22:02 3 C 2.68 g/m*3 3 C 0 km/h
2342 05-12-2010 12:34:01 3.2 C 2.65 g/m*3 3.2 C 0 km/h
2343 05-12-2010 12:46:02 3.3 C 2.67 g/m*3 3.3 C 0 km/h
2344 05-12-2010 12:58:02 3.2 C 2.65 g/m*3 3.2 C 0 km/h
2345 05-12-2010 13:10:02 3.3 C 2.67 g/m*3 3.3 C 0 km/h
2346 05-12-2010 13:22:03 3.4 C 2.63 g/m*3 3.4 C 0 km/h
2347 05-12-2010 13:34:02 3.4 C 2.57 g/m*3 3.4 C 0 km/h
2348 05-12-2010 13:46:02 3.3 C 2.61 g/m*3 3.3 C 0 km/h
2349 05-12-2010 13:58:02 3.6 C 2.66 g/m*3 3.6 C 0 km/h
2350 05-12-2010 14:10:02 3.2 C 2.59 g/m*3 3.2 C 0 km/h
Sensor: Nr:Datum:Temp:Abs-Feuchte:Windchill:Wind:
Aussen-T/F 2351 05-12-2010 14:22:02 3.3 C 2.61 g/m*3 3.3 C 0 km/h
2352 05-12-2010 14:34:02 3.3 C 2.61 g/m*3 3.3 C 0 km/h
2353 05-12-2010 14:46:02 3.2 C 2.59 g/m*3 3.2 C 0 km/h
2354 05-12-2010 14:58:03 3.2 C 2.59 g/m*3 3.2 C 0 km/h
2355 05-12-2010 15:10:01 2.9 C 2.78 g/m*3 2.9 C 0 km/h
2356 05-12-2010 15:22:02 2.6 C 2.84 g/m*3 2.6 C 0 km/h
2357 05-12-2010 15:34:02 2.1 C 3.08 g/m*3 2.1 C 0 km/h
2358 05-12-2010 15:46:02 1.7 C 3.27 g/m*3 1.7 C 0 km/h
2359 05-12-2010 15:58:02 1.8 C 3.23 g/m*3 1.8 C 0 km/h
2360 05-12-2010 16:10:02 1.5 C 3.28 g/m*3 1.5 C 0 km/h
2361 05-12-2010 16:22:02 1.4 C 3.31 g/m*3 1.4 C 0 km/h
2362 05-12-2010 16:34:02 1.2 C 3.31 g/m*3 1.2 C 0 km/h
2363 05-12-2010 16:46:01 1.1 C 3.24 g/m*3 1.1 C 0 km/h
2364 05-12-2010 16:58:01 1 C 3.27 g/m*3 1 C 0 km/h
2365 05-12-2010 17:10:02 1 C 3.32 g/m*3 1 C 0 km/h
2366 05-12-2010 17:22:01 1.1 C 3.45 g/m*3 1.1 C 0 km/h
2367 05-12-2010 17:34:01 1.7 C 3.38 g/m*3 1.7 C 0 km/h
2368 05-12-2010 17:46:01 1.7 C 3.43 g/m*3 1.7 C 0 km/h
2369 05-12-2010 17:58:01 1.4 C 3.41 g/m*3 1.4 C 0 km/h
2370 05-12-2010 18:10:02 1 C 3.63 g/m*3 1 C 0 km/h
2371 05-12-2010 18:22:02 0.9 C 3.76 g/m*3 0.9 C 0 km/h
2372 05-12-2010 18:34:02 0.8 C 3.79 g/m*3 0.8 C 0 km/h
2373 05-12-2010 18:46:02 0.9 C 3.92 g/m*3 0.9 C 0 km/h
2374 05-12-2010 18:58:02 0.8 C 3.94 g/m*3 0.8 C 0 km/h
2375 05-12-2010 19:10:02 0.8 C 3.94 g/m*3 0.8 C 0 km/h
Sensor: Nr:Datum:Temp:Abs-Feuchte:Windchill:Wind:
Aussen-T/F 2376 05-12-2010 19:22:02 0.9 C 3.92 g/m*3 0.9 C 0 km/h
2377 05-12-2010 19:34:02 0.8 C 3.94 g/m*3 0.8 C 0 km/h
2378 05-12-2010 19:46:01 0.9 C 4.02 g/m*3 0.9 C 0 km/h
2379 05-12-2010 19:58:01 0.9 C 4.02 g/m*3 0.9 C 0 km/h
2380 05-12-2010 20:10:02 0.9 C 4.02 g/m*3 0.9 C 0 km/h
2381 05-12-2010 20:22:01 0.7 C 4.02 g/m*3 0.7 C 0 km/h
2382 05-12-2010 20:34:02 0.6 C 4.09 g/m*3 0.6 C 0 km/h
2383 05-12-2010 20:46:02 0.5 C 4.11 g/m*3 0.5 C 0 km/h
2384 05-12-2010 20:58:02 0.4 C 4.13 g/m*3 0.4 C 0 km/h
2385 05-12-2010 21:10:02 0.3 C 4.16 g/m*3 0.3 C 0 km/h
2386 05-12-2010 21:22:01 0.3 C 4.25 g/m*3 0.3 C 0 km/h
2387 05-12-2010 21:34:02 0.3 C 4.25 g/m*3 0.3 C 0 km/h
2388 05-12-2010 21:46:02 0.3 C 4.3 g/m*3 0.3 C 0 km/h
2389 05-12-2010 21:58:02 0.5 C 4.36 g/m*3 0.5 C 0 km/h
2390 05-12-2010 22:10:02 0.4 C 4.38 g/m*3 0.4 C 0 km/h
2391 05-12-2010 22:22:02 0.4 C 4.33 g/m*3 0.4 C 0 km/h
2392 05-12-2010 22:34:02 0.4 C 4.33 g/m*3 0.4 C 0 km/h
2393 05-12-2010 22:46:02 0.3 C 4.35 g/m*3 0.3 C 0 km/h
2394 05-12-2010 22:58:02 0.3 C 4.35 g/m*3 0.3 C 0 km/h
2395 05-12-2010 23:10:02 0.2 C 4.32 g/m*3 0.2 C 0 km/h
2396 05-12-2010 23:22:02 0.2 C 4.32 g/m*3 0.2 C 0 km/h
2397 05-12-2010 23:34:02 0.2 C 4.32 g/m*3 0.2 C 0 km/h
2398 05-12-2010 23:46:02 0.2 C 4.32 g/m*3 0.2 C 0 km/h
2399 05-12-2010 23:58:02 0.2 C 4.37 g/m*3 0.2 C 0 km/h
2400 06-12-2010 00:10:01 0.1 C 4.34 g/m*3 0.1 C 0 km/h
Sensor: Nr:Datum:Temp:Abs-Feuchte:Windchill:Wind:
Aussen-T/F 2401 06-12-2010 00:22:02 0.1 C 4.34 g/m*3 0.1 C 0 km/h
2402 06-12-2010 00:34:02 0.1 C 4.34 g/m*3 0.1 C 0 km/h
2403 06-12-2010 00:46:02 0.2 C 4.37 g/m*3 0.2 C 0 km/h
2404 06-12-2010 00:58:02 0.1 C 4.34 g/m*3 0.1 C 0 km/h
2405 06-12-2010 01:10:03 0.2 C 4.37 g/m*3 0.2 C 0 km/h
2406 06-12-2010 01:22:02 0.1 C 4.34 g/m*3 0.1 C 0 km/h
2407 06-12-2010 01:34:02 0.1 C 4.39 g/m*3 0.1 C 0 km/h
2408 06-12-2010 01:46:01 0.1 C 4.39 g/m*3 0.1 C 0 km/h
2409 06-12-2010 01:58:01 0.1 C 4.39 g/m*3 0.1 C 0 km/h
2410 06-12-2010 02:10:02 0.1 C 4.39 g/m*3 0.1 C 0 km/h
2411 06-12-2010 02:22:01 0.1 C 4.39 g/m*3 0.1 C 0 km/h
2412 06-12-2010 02:34:01 0.1 C 4.39 g/m*3 0.1 C 0 km/h
2413 06-12-2010 02:47:03 0.1 C 4.39 g/m*3 0.1 C 0 km/h
2414 06-12-2010 02:59:03 0.1 C 4.39 g/m*3 0.1 C 0 km/h
2415 06-12-2010 03:11:04 0.1 C 4.39 g/m*3 0.1 C 0 km/h
2416 06-12-2010 03:23:05 0.1 C 4.34 g/m*3 0.1 C 0 km/h
2417 06-12-2010 03:35:02 0.1 C 4.34 g/m*3 0.1 C 0 km/h
2418 06-12-2010 03:47:02 0.1 C 4.34 g/m*3 0.1 C 0 km/h
2419 06-12-2010 03:59:02 0.1 C 4.34 g/m*3 0.1 C 0 km/h
2420 06-12-2010 04:11:02 0.2 C 4.37 g/m*3 0.2 C 0 km/h
2421 06-12-2010 04:23:02 0.2 C 4.42 g/m*3 0.2 C 0 km/h
2422 06-12-2010 04:35:02 0.1 C 4.39 g/m*3 0.1 C 0 km/h
2423 06-12-2010 04:47:02 0.1 C 4.39 g/m*3 0.1 C 0 km/h
2424 06-12-2010 04:59:02 0.1 C 4.34 g/m*3 0.1 C 0 km/h
2425 06-12-2010 05:11:02 0 C 4.31 g/m*3 0 C 0 km/h
Sensor: Nr:Datum:Temp:Abs-Feuchte:Windchill:Wind:
Aussen-T/F 2426 06-12-2010 05:23:02 0 C 4.31 g/m*3 0 C 0 km/h
2427 06-12-2010 05:35:02 0.1 C 4.34 g/m*3 0.1 C 0 km/h
2428 06-12-2010 05:47:02 0 C 4.31 g/m*3 0 C 0 km/h
2429 06-12-2010 05:59:02 0.1 C 4.39 g/m*3 0.1 C 0 km/h
2430 06-12-2010 06:11:02 0.1 C 4.39 g/m*3 0.1 C 0 km/h
2431 06-12-2010 06:23:02 0 C 4.36 g/m*3 0 C 0 km/h
2432 06-12-2010 06:35:02 0 C 4.36 g/m*3 0 C 0 km/h
2433 06-12-2010 06:47:02 0 C 4.36 g/m*3 0 C 0 km/h
2434 06-12-2010 06:59:02 0 C 4.36 g/m*3 0 C 0 km/h
2435 06-12-2010 07:11:01 0 C 4.36 g/m*3 0 C 0 km/h
2436 06-12-2010 07:23:02 0 C 4.36 g/m*3 0 C 0 km/h
2437 06-12-2010 07:35:01 0 C 4.36 g/m*3 0 C 0 km/h
2438 06-12-2010 07:47:02 0 C 4.31 g/m*3 0 C 0 km/h
2439 06-12-2010 07:59:02 0 C 4.31 g/m*3 0 C 0 km/h
2440 06-12-2010 08:11:02 0 C 4.31 g/m*3 0 C 0 km/h
2441 06-12-2010 08:23:02 0 C 4.31 g/m*3 0 C 0 km/h
2442 06-12-2010 08:35:02 0 C 4.31 g/m*3 0 C 0 km/h
2443 06-12-2010 08:47:02 0.1 C 4.29 g/m*3 0.1 C 0 km/h
2444 06-12-2010 08:59:02 0.2 C 4.32 g/m*3 0.2 C 0 km/h
2445 06-12-2010 09:11:02 0.4 C 4.38 g/m*3 0.4 C 0 km/h
2446 06-12-2010 09:23:01 0.7 C 4.37 g/m*3 0.7 C 0 km/h
2447 06-12-2010 09:35:02 0.9 C 4.43 g/m*3 0.9 C 0 km/h
2448 06-12-2010 09:47:02 1.1 C 4.34 g/m*3 1.1 C 0 km/h
2449 06-12-2010 09:59:02 1.1 C 4.34 g/m*3 1.1 C 0 km/h
2450 06-12-2010 10:11:02 1.3 C 4.13 g/m*3 1.3 C 0 km/h
Sensor: Nr:Datum:Temp:Abs-Feuchte:Windchill:Wind:
Aussen-T/F 2451 06-12-2010 10:23:01 1.4 C 4.05 g/m*3 1.4 C 0 km/h
2452 06-12-2010 10:35:01 1.4 C 4.05 g/m*3 1.4 C 0 km/h
2453 06-12-2010 10:47:03 1.3 C 3.97 g/m*3 1.3 C 0 km/h
2454 06-12-2010 10:59:03 1.5 C 3.97 g/m*3 1.5 C 0 km/h
2455 06-12-2010 11:11:02 1.5 C 3.97 g/m*3 1.5 C 0 km/h
2456 06-12-2010 11:23:02 1.7 C 3.97 g/m*3 1.7 C 0 km/h
2457 06-12-2010 11:35:02 2 C 3.95 g/m*3 2 C 0 km/h
2458 06-12-2010 11:47:02 2 C 3.89 g/m*3 2 C 0 km/h
2459 06-12-2010 11:59:02 2.2 C 3.89 g/m*3 2.2 C 0 km/h
2460 06-12-2010 12:11:01 2.2 C 3.83 g/m*3 2.2 C 0 km/h
2461 06-12-2010 12:23:02 2.5 C 3.79 g/m*3 2.5 C 0 km/h
2462 06-12-2010 12:35:02 2.6 C 3.76 g/m*3 2.6 C 0 km/h
2463 06-12-2010 12:47:02 2.3 C 3.69 g/m*3 2.3 C 0 km/h
2464 06-12-2010 12:59:02 2.4 C 3.71 g/m*3 2.4 C 0 km/h
2465 06-12-2010 13:11:03 2.5 C 3.74 g/m*3 2.5 C 0 km/h
2466 06-12-2010 13:23:02 2.5 C 3.68 g/m*3 2.5 C 0 km/h
2467 06-12-2010 13:35:02 2.6 C 3.7 g/m*3 2.6 C 0 km/h
2468 06-12-2010 13:47:01 2.7 C 3.67 g/m*3 2.7 C 0 km/h
2469 06-12-2010 13:59:01 2.4 C 3.6 g/m*3 2.4 C 0 km/h
2470 06-12-2010 14:11:02 2.1 C 3.58 g/m*3 2.1 C 0 km/h
2471 06-12-2010 14:23:01 2.2 C 3.66 g/m*3 2.2 C 0 km/h
2472 06-12-2010 14:35:01 2 C 3.61 g/m*3 2 C 0 km/h
2473 06-12-2010 14:47:01 1.8 C 3.56 g/m*3 1.8 C 0 km/h
2474 06-12-2010 14:59:01 1.4 C 3.52 g/m*3 1.4 C 0 km/h
2475 06-12-2010 15:11:02 1.4 C 3.57 g/m*3 1.4 C 0 km/h
Sensor: Nr:Datum:Temp:Abs-Feuchte:Windchill:Wind:
Aussen-T/F 2476 06-12-2010 15:23:02 1.2 C 3.58 g/m*3 1.2 C 0 km/h
2477 06-12-2010 15:35:01 1 C 3.63 g/m*3 1 C 0 km/h
2478 06-12-2010 15:47:01 0.8 C 3.74 g/m*3 0.8 C 0 km/h
2479 06-12-2010 15:59:01 0.4 C 3.74 g/m*3 0.4 C 0 km/h
2480 06-12-2010 16:11:01 0 C 3.68 g/m*3 0 C 0 km/h
2481 06-12-2010 16:23:02 -0.2 C 3.68 g/m*3 -0.2 C 0 km/h
2482 06-12-2010 16:35:01 -0.3 C 3.7 g/m*3 -0.3 C 0 km/h
2483 06-12-2010 16:47:03 -0.4 C 3.68 g/m*3 -0.4 C 0 km/h
2484 06-12-2010 16:59:03 -0.4 C 3.72 g/m*3 -0.4 C 0 km/h
2485 06-12-2010 17:11:02 -0.5 C 3.7 g/m*3 -0.5 C 0 km/h
2486 06-12-2010 17:23:02 -0.6 C 3.72 g/m*3 -0.6 C 0 km/h
2487 06-12-2010 17:35:02 -0.7 C 3.74 g/m*3 -0.7 C 0 km/h
2488 06-12-2010 17:47:02 -0.8 C 3.71 g/m*3 -0.8 C 0 km/h
2489 06-12-2010 17:59:03 -0.8 C 3.76 g/m*3 -0.8 C 0 km/h
2490 06-12-2010 18:11:01 -1.1 C 3.68 g/m*3 -1.1 C 0 km/h
2491 06-12-2010 18:23:02 -1 C 3.75 g/m*3 -1 C 0 km/h
2492 06-12-2010 18:35:02 -0.8 C 3.8 g/m*3 -0.8 C 0 km/h
2493 06-12-2010 18:47:02 -0.7 C 3.83 g/m*3 -0.7 C 0 km/h
2494 06-12-2010 18:59:02 -0.9 C 3.73 g/m*3 -0.9 C 0 km/h
2495 06-12-2010 19:11:03 -0.8 C 3.76 g/m*3 -0.8 C 0 km/h
2496 06-12-2010 19:23:02 -0.9 C 3.73 g/m*3 -0.9 C 0 km/h
2497 06-12-2010 19:35:02 -0.8 C 3.76 g/m*3 -0.8 C 0 km/h
2498 06-12-2010 19:47:01 -0.9 C 3.73 g/m*3 -0.9 C 0 km/h
2499 06-12-2010 19:59:01 -0.8 C 3.76 g/m*3 -0.8 C 0 km/h
2500 06-12-2010 20:11:02 -1 C 3.71 g/m*3 -1 C 0 km/h
Sensor: Nr:Datum:Temp:Abs-Feuchte:Windchill:Wind:
Aussen-T/F 2501 06-12-2010 20:23:01 -1.2 C 3.66 g/m*3 -1.2 C 0 km/h
2502 06-12-2010 20:35:02 -1.1 C 3.68 g/m*3 -1.1 C 0 km/h
2503 06-12-2010 20:47:02 -1.2 C 3.66 g/m*3 -1.2 C 0 km/h
2504 06-12-2010 20:59:02 -1.2 C 3.66 g/m*3 -1.2 C 0 km/h
2505 06-12-2010 21:11:02 -1.3 C 3.63 g/m*3 -1.3 C 0 km/h
2506 06-12-2010 21:23:02 -1.3 C 3.63 g/m*3 -1.3 C 0 km/h
2507 06-12-2010 21:36:02 -1.2 C 3.66 g/m*3 -1.2 C 0 km/h
2508 06-12-2010 21:48:02 -1.3 C 3.63 g/m*3 -1.3 C 0 km/h
2509 06-12-2010 22:00:02 -1.5 C 3.58 g/m*3 -1.5 C 0 km/h
2510 06-12-2010 22:12:02 -1.4 C 3.65 g/m*3 -1.4 C 0 km/h
2511 06-12-2010 22:24:02 -1.3 C 3.67 g/m*3 -1.3 C 0 km/h
2512 06-12-2010 22:36:02 -1.1 C 3.73 g/m*3 -1.1 C 0 km/h
2513 06-12-2010 22:48:02 -0.9 C 3.78 g/m*3 -0.9 C 0 km/h
2514 06-12-2010 23:00:02 -0.8 C 3.76 g/m*3 -0.8 C 0 km/h
2515 06-12-2010 23:12:02 -0.6 C 3.81 g/m*3 -0.6 C 0 km/h
2516 06-12-2010 23:24:02 -0.5 C 3.79 g/m*3 -0.5 C 0 km/h
2517 06-12-2010 23:36:03 -0.6 C 3.72 g/m*3 -0.6 C 0 km/h
2518 06-12-2010 23:48:03 -0.9 C 3.64 g/m*3 -0.9 C 0 km/h
2519 07-12-2010 00:00:03 -0.8 C 3.67 g/m*3 -0.8 C 0 km/h
2520 07-12-2010 00:12:03 -0.8 C 3.67 g/m*3 -0.8 C 0 km/h
2521 07-12-2010 00:24:03 -0.9 C 3.64 g/m*3 -0.9 C 0 km/h
2522 07-12-2010 00:36:03 -1.4 C 3.47 g/m*3 -1.4 C 0 km/h
2523 07-12-2010 00:48:03 -1.4 C 3.56 g/m*3 -1.4 C 0 km/h
2524 07-12-2010 01:00:03 -1.4 C 3.6 g/m*3 -1.4 C 0 km/h
2525 07-12-2010 01:12:03 -1.4 C 3.6 g/m*3 -1.4 C 0 km/h
Sensor: Nr:Datum:Temp:Abs-Feuchte:Windchill:Wind:
Aussen-T/F 2526 07-12-2010 01:24:03 -1.4 C 3.6 g/m*3 -1.4 C 0 km/h
2527 07-12-2010 01:36:03 -0.9 C 3.78 g/m*3 -0.9 C 0 km/h
2528 07-12-2010 01:48:03 -0.7 C 3.83 g/m*3 -0.7 C 0 km/h
2529 07-12-2010 02:00:03 -0.6 C 3.81 g/m*3 -0.6 C 0 km/h
2530 07-12-2010 02:12:03 -0.5 C 3.79 g/m*3 -0.5 C 0 km/h
2531 07-12-2010 02:24:03 -0.5 C 3.79 g/m*3 -0.5 C 0 km/h
2532 07-12-2010 02:36:03 -0.6 C 3.72 g/m*3 -0.6 C 0 km/h
2533 07-12-2010 02:48:03 -0.6 C 3.72 g/m*3 -0.6 C 0 km/h
2534 07-12-2010 03:00:03 -0.5 C 3.74 g/m*3 -0.5 C 0 km/h
2535 07-12-2010 03:12:03 -0.5 C 3.74 g/m*3 -0.5 C 0 km/h
2536 07-12-2010 03:24:03 -0.6 C 3.72 g/m*3 -0.6 C 0 km/h
2537 07-12-2010 03:36:03 -0.6 C 3.72 g/m*3 -0.6 C 0 km/h
2538 07-12-2010 03:48:03 -0.6 C 3.72 g/m*3 -0.6 C 0 km/h
2539 07-12-2010 04:00:04 -0.6 C 3.76 g/m*3 -0.6 C 0 km/h
2540 07-12-2010 04:12:04 -0.7 C 3.69 g/m*3 -0.7 C 0 km/h
2541 07-12-2010 04:24:04 -0.7 C 3.69 g/m*3 -0.7 C 0 km/h
2542 07-12-2010 04:36:04 -0.9 C 3.64 g/m*3 -0.9 C 0 km/h
2543 07-12-2010 04:48:04 -0.8 C 3.71 g/m*3 -0.8 C 0 km/h
2544 07-12-2010 05:00:04 -1 C 3.66 g/m*3 -1 C 0 km/h
2545 07-12-2010 05:12:04 -1 C 3.66 g/m*3 -1 C 0 km/h
2546 07-12-2010 05:24:04 -0.9 C 3.69 g/m*3 -0.9 C 0 km/h
2547 07-12-2010 05:36:04 -0.9 C 3.69 g/m*3 -0.9 C 0 km/h
2548 07-12-2010 05:48:04 -0.9 C 3.69 g/m*3 -0.9 C 0 km/h
2549 07-12-2010 06:00:04 -0.8 C 3.71 g/m*3 -0.8 C 0 km/h
2550 07-12-2010 06:12:04 -0.7 C 3.69 g/m*3 -0.7 C 0 km/h
Sensor: Nr:Datum:Temp:Abs-Feuchte:Windchill:Wind:
Aussen-T/F 2551 07-12-2010 06:24:04 -0.7 C 3.69 g/m*3 -0.7 C 0 km/h
2552 07-12-2010 06:36:04 -0.8 C 3.67 g/m*3 -0.8 C 0 km/h
2553 07-12-2010 06:48:04 -0.9 C 3.64 g/m*3 -0.9 C 0 km/h
2554 07-12-2010 07:00:04 -1 C 3.57 g/m*3 -1 C 0 km/h
2555 07-12-2010 07:12:04 -1 C 3.57 g/m*3 -1 C 0 km/h
2556 07-12-2010 07:24:01 -1 C 3.57 g/m*3 -1 C 0 km/h
2557 07-12-2010 07:36:02 -1 C 3.57 g/m*3 -1 C 0 km/h
2558 07-12-2010 07:48:02 -1 C 3.57 g/m*3 -1 C 0 km/h
2559 07-12-2010 08:00:02 -1 C 3.57 g/m*3 -1 C 0 km/h
2560 07-12-2010 08:12:02 -0.9 C 3.6 g/m*3 -0.9 C 0 km/h
2561 07-12-2010 08:24:02 -0.9 C 3.6 g/m*3 -0.9 C 0 km/h
2562 07-12-2010 08:36:02 -0.8 C 3.62 g/m*3 -0.8 C 0 km/h
2563 07-12-2010 08:48:02 -0.6 C 3.63 g/m*3 -0.6 C 0 km/h
2564 07-12-2010 09:00:02 -0.6 C 3.63 g/m*3 -0.6 C 0 km/h
2565 07-12-2010 09:12:02 -0.5 C 3.65 g/m*3 -0.5 C 0 km/h
2566 07-12-2010 09:24:02 -0.5 C 3.56 g/m*3 -0.5 C 0 km/h
2567 07-12-2010 09:36:02 -0.3 C 3.61 g/m*3 -0.3 C 0 km/h
2568 07-12-2010 09:48:02 -0.1 C 3.61 g/m*3 -0.1 C 0 km/h
2569 07-12-2010 10:00:02 0.2 C 3.64 g/m*3 0.2 C 0 km/h
2570 07-12-2010 10:12:01 0.1 C 3.56 g/m*3 0.1 C 0 km/h
2571 07-12-2010 10:24:02 0.1 C 3.61 g/m*3 0.1 C 0 km/h
2572 07-12-2010 10:36:02 0.3 C 3.61 g/m*3 0.3 C 0 km/h
2573 07-12-2010 10:48:01 0.2 C 3.59 g/m*3 0.2 C 0 km/h
2574 07-12-2010 11:00:02 0.2 C 3.59 g/m*3 0.2 C 0 km/h
2575 07-12-2010 11:12:01 0.5 C 3.61 g/m*3 0.5 C 0 km/h
Sensor: Nr:Datum:Temp:Abs-Feuchte:Windchill:Wind:
Aussen-T/F 2576 07-12-2010 11:24:01 0.3 C 3.51 g/m*3 0.3 C 0 km/h
2577 07-12-2010 11:36:02 0.8 C 3.69 g/m*3 0.8 C 0 km/h
2578 07-12-2010 11:48:02 1 C 3.63 g/m*3 1 C 0 km/h
2579 07-12-2010 12:00:02 1 C 3.63 g/m*3 1 C 0 km/h
2580 07-12-2010 12:12:02 0.7 C 3.56 g/m*3 0.7 C 0 km/h
2581 07-12-2010 12:24:02 1 C 3.63 g/m*3 1 C 0 km/h
2582 07-12-2010 12:36:02 1.3 C 3.66 g/m*3 1.3 C 0 km/h
2583 07-12-2010 12:48:02 1.6 C 3.68 g/m*3 1.6 C 0 km/h
2584 07-12-2010 13:00:02 2.1 C 3.58 g/m*3 2.1 C 0 km/h
2585 07-12-2010 13:12:02 1.2 C 3.58 g/m*3 1.2 C 0 km/h
2586 07-12-2010 13:24:02 1.5 C 3.71 g/m*3 1.5 C 0 km/h
2587 07-12-2010 13:36:02 1.2 C 3.58 g/m*3 1.2 C 0 km/h
2588 07-12-2010 13:48:02 1.2 C 3.58 g/m*3 1.2 C 0 km/h
2589 07-12-2010 14:00:02 1.2 C 3.58 g/m*3 1.2 C 0 km/h
2590 07-12-2010 14:12:02 1.2 C 3.63 g/m*3 1.2 C 0 km/h
2591 07-12-2010 14:24:02 1.3 C 3.71 g/m*3 1.3 C 0 km/h
2592 07-12-2010 14:36:02 0.9 C 3.71 g/m*3 0.9 C 0 km/h
2593 07-12-2010 14:48:02 0.7 C 3.71 g/m*3 0.7 C 0 km/h
2594 07-12-2010 15:00:02 0.7 C 3.76 g/m*3 0.7 C 0 km/h
2595 07-12-2010 15:12:02 0.6 C 3.74 g/m*3 0.6 C 0 km/h
2596 07-12-2010 15:24:02 0.4 C 3.79 g/m*3 0.4 C 0 km/h
2597 07-12-2010 15:36:02 0.2 C 3.83 g/m*3 0.2 C 0 km/h
2598 07-12-2010 15:48:02 0.1 C 3.9 g/m*3 0.1 C 0 km/h
2599 07-12-2010 16:00:02 0 C 3.97 g/m*3 0 C 0 km/h
2600 07-12-2010 16:12:01 -0.2 C 4.01 g/m*3 -0.2 C 0 km/h
Sensor: Nr:Datum:Temp:Abs-Feuchte:Windchill:Wind:
Aussen-T/F 2601 07-12-2010 16:24:02 -0.3 C 4.03 g/m*3 -0.3 C 0 km/h
2602 07-12-2010 16:36:02 -0.3 C 4.13 g/m*3 -0.3 C 0 km/h
2603 07-12-2010 16:48:02 -0.3 C 4.13 g/m*3 -0.3 C 0 km/h
2604 07-12-2010 17:00:02 -0.3 C 4.18 g/m*3 -0.3 C 0 km/h
2605 07-12-2010 17:12:03 -0.3 C 4.18 g/m*3 -0.3 C 0 km/h
2606 07-12-2010 17:24:02 -0.3 C 4.22 g/m*3 -0.3 C 0 km/h
2607 07-12-2010 17:36:02 -0.3 C 4.22 g/m*3 -0.3 C 0 km/h
2608 07-12-2010 17:48:01 -0.3 C 4.22 g/m*3 -0.3 C 0 km/h
2609 07-12-2010 18:00:01 -0.3 C 4.22 g/m*3 -0.3 C 0 km/h
2610 07-12-2010 18:12:02 -0.3 C 4.22 g/m*3 -0.3 C 0 km/h
2611 07-12-2010 18:24:01 -0.3 C 4.27 g/m*3 -0.3 C 0 km/h
2612 07-12-2010 18:36:02 -0.2 C 4.3 g/m*3 -0.2 C 0 km/h
2613 07-12-2010 18:48:01 -0.2 C 4.3 g/m*3 -0.2 C 0 km/h
2614 07-12-2010 19:00:01 -0.2 C 4.3 g/m*3 -0.2 C 0 km/h
2615 07-12-2010 19:12:02 -0.2 C 4.3 g/m*3 -0.2 C 0 km/h
2616 07-12-2010 19:24:02 -0.2 C 4.3 g/m*3 -0.2 C 0 km/h
2617 07-12-2010 19:36:01 -0.2 C 4.3 g/m*3 -0.2 C 0 km/h
2618 07-12-2010 19:48:02 -0.2 C 4.35 g/m*3 -0.2 C 0 km/h
2619 07-12-2010 20:00:02 -0.1 C 4.38 g/m*3 -0.1 C 0 km/h
2620 07-12-2010 20:12:01 -0.2 C 4.35 g/m*3 -0.2 C 0 km/h
2621 07-12-2010 20:24:02 -0.2 C 4.35 g/m*3 -0.2 C 0 km/h
2622 07-12-2010 20:36:01 -0.2 C 4.35 g/m*3 -0.2 C 0 km/h
2623 07-12-2010 20:48:02 -0.1 C 4.38 g/m*3 -0.1 C 0 km/h
2624 07-12-2010 21:00:02 -0.2 C 4.35 g/m*3 -0.2 C 0 km/h
2625 07-12-2010 21:12:01 -0.2 C 4.35 g/m*3 -0.2 C 0 km/h
Sensor: Nr:Datum:Temp:Abs-Feuchte:Windchill:Wind:
Aussen-T/F 2626 07-12-2010 21:24:01 -0.2 C 4.35 g/m*3 -0.2 C 0 km/h
2627 07-12-2010 21:36:01 -0.2 C 4.35 g/m*3 -0.2 C 0 km/h
2628 07-12-2010 21:48:02 -0.2 C 4.4 g/m*3 -0.2 C 0 km/h
2629 07-12-2010 22:00:03 -0.1 C 4.43 g/m*3 -0.1 C 0 km/h
2630 07-12-2010 22:12:02 -0.2 C 4.4 g/m*3 -0.2 C 0 km/h
2631 07-12-2010 22:25:02 -0.2 C 4.4 g/m*3 -0.2 C 0 km/h
2632 07-12-2010 22:37:02 -0.2 C 4.4 g/m*3 -0.2 C 0 km/h
2633 07-12-2010 22:49:02 -0.2 C 4.4 g/m*3 -0.2 C 0 km/h
2634 07-12-2010 23:01:02 -0.2 C 4.4 g/m*3 -0.2 C 0 km/h
2635 07-12-2010 23:13:02 -0.2 C 4.4 g/m*3 -0.2 C 0 km/h
2636 07-12-2010 23:25:02 -0.2 C 4.4 g/m*3 -0.2 C 0 km/h
2637 07-12-2010 23:37:02 -0.2 C 4.4 g/m*3 -0.2 C 0 km/h
2638 07-12-2010 23:49:02 -0.2 C 4.4 g/m*3 -0.2 C 0 km/h
2639 08-12-2010 00:01:02 -0.2 C 4.4 g/m*3 -0.2 C 0 km/h
2640 08-12-2010 00:13:02 -0.2 C 4.4 g/m*3 -0.2 C 0 km/h
2641 08-12-2010 00:25:02 -0.2 C 4.4 g/m*3 -0.2 C 0 km/h
2642 08-12-2010 00:37:02 -0.2 C 4.4 g/m*3 -0.2 C 0 km/h
2643 08-12-2010 00:49:02 -0.2 C 4.4 g/m*3 -0.2 C 0 km/h
2644 08-12-2010 01:01:02 -0.2 C 4.4 g/m*3 -0.2 C 0 km/h
2645 08-12-2010 01:13:02 -0.2 C 4.4 g/m*3 -0.2 C 0 km/h
2646 08-12-2010 01:25:02 -0.2 C 4.4 g/m*3 -0.2 C 0 km/h
2647 08-12-2010 01:37:03 -0.2 C 4.4 g/m*3 -0.2 C 0 km/h
2648 08-12-2010 01:49:03 -0.2 C 4.4 g/m*3 -0.2 C 0 km/h
2649 08-12-2010 02:01:03 -0.2 C 4.4 g/m*3 -0.2 C 0 km/h
2650 08-12-2010 02:13:03 -0.1 C 4.43 g/m*3 -0.1 C 0 km/h
Sensor: Nr:Datum:Temp:Abs-Feuchte:Windchill:Wind:
Aussen-T/F 2651 08-12-2010 02:25:03 -0.1 C 4.43 g/m*3 -0.1 C 0 km/h
2652 08-12-2010 02:37:03 -0.2 C 4.4 g/m*3 -0.2 C 0 km/h
2653 08-12-2010 02:49:03 -0.2 C 4.4 g/m*3 -0.2 C 0 km/h
2654 08-12-2010 03:01:03 -0.2 C 4.4 g/m*3 -0.2 C 0 km/h
2655 08-12-2010 03:13:03 -0.2 C 4.4 g/m*3 -0.2 C 0 km/h
2656 08-12-2010 03:25:03 -0.2 C 4.4 g/m*3 -0.2 C 0 km/h
2657 08-12-2010 03:37:03 -0.2 C 4.4 g/m*3 -0.2 C 0 km/h
2658 08-12-2010 03:49:03 -0.1 C 4.43 g/m*3 -0.1 C 0 km/h
2659 08-12-2010 04:01:03 -0.1 C 4.43 g/m*3 -0.1 C 0 km/h
2660 08-12-2010 04:13:03 -0.1 C 4.43 g/m*3 -0.1 C 0 km/h
2661 08-12-2010 04:25:03 -0.1 C 4.43 g/m*3 -0.1 C 0 km/h
2662 08-12-2010 04:37:03 -0.1 C 4.43 g/m*3 -0.1 C 0 km/h
2663 08-12-2010 04:49:03 0 C 4.46 g/m*3 0 C 0 km/h
2664 08-12-2010 05:01:03 -0.1 C 4.43 g/m*3 -0.1 C 0 km/h
2665 08-12-2010 05:13:03 0 C 4.46 g/m*3 0 C 0 km/h
2666 08-12-2010 05:25:03 -0.1 C 4.47 g/m*3 -0.1 C 0 km/h
2667 08-12-2010 05:37:03 -0.1 C 4.47 g/m*3 -0.1 C 0 km/h
2668 08-12-2010 05:49:03 -0.1 C 4.47 g/m*3 -0.1 C 0 km/h
2669 08-12-2010 06:01:04 -0.1 C 4.47 g/m*3 -0.1 C 0 km/h
2670 08-12-2010 06:13:04 0 C 4.51 g/m*3 0 C 0 km/h
2671 08-12-2010 06:25:04 -0.1 C 4.47 g/m*3 -0.1 C 0 km/h
2672 08-12-2010 06:37:04 0 C 4.51 g/m*3 0 C 0 km/h
2673 08-12-2010 06:49:04 -0.1 C 4.47 g/m*3 -0.1 C 0 km/h
2674 08-12-2010 07:01:04 0 C 4.51 g/m*3 0 C 0 km/h
2675 08-12-2010 07:13:04 -0.1 C 4.47 g/m*3 -0.1 C 0 km/h
Sensor: Nr:Datum:Temp:Abs-Feuchte:Windchill:Wind:
Aussen-T/F 2676 08-12-2010 07:25:04 0 C 4.51 g/m*3 0 C 0 km/h
2677 08-12-2010 07:37:04 0 C 4.51 g/m*3 0 C 0 km/h
2678 08-12-2010 07:49:04 0 C 4.51 g/m*3 0 C 0 km/h
2679 08-12-2010 08:01:04 0 C 4.51 g/m*3 0 C 0 km/h
2680 08-12-2010 08:13:04 0 C 4.51 g/m*3 0 C 0 km/h
2681 08-12-2010 08:25:04 0 C 4.51 g/m*3 0 C 0 km/h
2682 08-12-2010 08:37:04 0 C 4.51 g/m*3 0 C 0 km/h
2683 08-12-2010 08:49:04 0 C 4.51 g/m*3 0 C 0 km/h
2684 08-12-2010 09:01:01 0.1 C 4.54 g/m*3 0.1 C 0 km/h
2685 08-12-2010 09:13:01 0.1 C 4.54 g/m*3 0.1 C 0 km/h
2686 08-12-2010 09:25:02 0.1 C 4.54 g/m*3 0.1 C 0 km/h
2687 08-12-2010 09:37:01 0.1 C 4.54 g/m*3 0.1 C 0 km/h
2688 08-12-2010 09:49:02 0 C 4.51 g/m*3 0 C 0 km/h
2689 08-12-2010 10:01:02 0.1 C 4.54 g/m*3 0.1 C 0 km/h
2690 08-12-2010 10:13:02 0.1 C 4.54 g/m*3 0.1 C 0 km/h
2691 08-12-2010 10:25:02 0.2 C 4.57 g/m*3 0.2 C 0 km/h
2692 08-12-2010 10:37:02 0.2 C 4.57 g/m*3 0.2 C 0 km/h
2693 08-12-2010 10:49:02 0.3 C 4.6 g/m*3 0.3 C 0 km/h
2694 08-12-2010 11:01:02 0.3 C 4.65 g/m*3 0.3 C 0 km/h
2695 08-12-2010 11:13:02 0.3 C 4.65 g/m*3 0.3 C 0 km/h
2696 08-12-2010 11:25:01 0.4 C 4.63 g/m*3 0.4 C 0 km/h
2697 08-12-2010 11:37:02 0.3 C 4.6 g/m*3 0.3 C 0 km/h
2698 08-12-2010 11:49:02 0.4 C 4.63 g/m*3 0.4 C 0 km/h
2699 08-12-2010 12:01:02 0.5 C 4.66 g/m*3 0.5 C 0 km/h
2700 08-12-2010 12:13:02 0.6 C 4.7 g/m*3 0.6 C 0 km/h
Sensor: Nr:Datum:Temp:Abs-Feuchte:Windchill:Wind:
Aussen-T/F 2701 08-12-2010 12:25:02 0.5 C 4.66 g/m*3 0.5 C 0 km/h
2702 08-12-2010 12:37:02 0.6 C 4.7 g/m*3 0.6 C 0 km/h
2703 08-12-2010 12:49:02 0.6 C 4.65 g/m*3 0.6 C 0 km/h
2704 08-12-2010 13:01:02 0.5 C 4.61 g/m*3 0.5 C 0 km/h
2705 08-12-2010 13:13:02 0.6 C 4.6 g/m*3 0.6 C 0 km/h
2706 08-12-2010 13:25:02 0.7 C 4.63 g/m*3 0.7 C 0 km/h
2707 08-12-2010 13:37:02 0.7 C 4.58 g/m*3 0.7 C 0 km/h
2708 08-12-2010 13:49:01 0.6 C 4.49 g/m*3 0.6 C 0 km/h
2709 08-12-2010 14:01:01 0.6 C 4.49 g/m*3 0.6 C 0 km/h
2710 08-12-2010 14:13:01 0.4 C 4.43 g/m*3 0.4 C 0 km/h
2711 08-12-2010 14:25:01 0.4 C 4.43 g/m*3 0.4 C 0 km/h
2712 08-12-2010 14:37:01 0.4 C 4.43 g/m*3 0.4 C 0 km/h
2713 08-12-2010 14:49:01 0.3 C 4.4 g/m*3 0.3 C 0 km/h
2714 08-12-2010 15:01:01 0.2 C 4.37 g/m*3 0.2 C 0 km/h
2715 08-12-2010 15:13:01 0 C 4.31 g/m*3 0 C 0 km/h
2716 08-12-2010 15:25:02 -0.1 C 4.28 g/m*3 -0.1 C 0 km/h
2717 08-12-2010 15:37:01 -0.2 C 4.25 g/m*3 -0.2 C 0 km/h
2718 08-12-2010 15:49:03 -0.3 C 4.22 g/m*3 -0.3 C 0 km/h
2719 08-12-2010 16:01:02 -0.3 C 4.22 g/m*3 -0.3 C 0 km/h
2720 08-12-2010 16:13:02 -0.3 C 4.27 g/m*3 -0.3 C 0 km/h
2721 08-12-2010 16:25:03 -0.3 C 4.27 g/m*3 -0.3 C 0 km/h
2722 08-12-2010 16:37:02 -0.3 C 4.27 g/m*3 -0.3 C 0 km/h
2723 08-12-2010 16:49:02 -0.3 C 4.27 g/m*3 -0.3 C 0 km/h
2724 08-12-2010 17:01:02 -0.3 C 4.27 g/m*3 -0.3 C 0 km/h
2725 08-12-2010 17:13:02 -0.3 C 4.27 g/m*3 -0.3 C 0 km/h
Sensor: Nr:Datum:Temp:Abs-Feuchte:Windchill:Wind:
Aussen-T/F 2726 08-12-2010 17:25:02 -0.3 C 4.27 g/m*3 -0.3 C 0 km/h
2727 08-12-2010 17:37:02 -0.3 C 4.27 g/m*3 -0.3 C 0 km/h
2728 08-12-2010 17:49:02 -0.6 C 4.14 g/m*3 -0.6 C 0 km/h
2729 08-12-2010 18:01:01 -0.7 C 4.11 g/m*3 -0.7 C 0 km/h
2730 08-12-2010 18:13:01 -0.7 C 4.11 g/m*3 -0.7 C 0 km/h
2731 08-12-2010 18:25:01 -0.7 C 4.11 g/m*3 -0.7 C 0 km/h
2732 08-12-2010 18:37:02 -0.8 C 4.08 g/m*3 -0.8 C 0 km/h
2733 08-12-2010 18:49:02 -0.8 C 4.08 g/m*3 -0.8 C 0 km/h
2734 08-12-2010 19:01:02 -0.8 C 4.08 g/m*3 -0.8 C 0 km/h
2735 08-12-2010 19:13:02 -0.8 C 4.08 g/m*3 -0.8 C 0 km/h
2736 08-12-2010 19:25:02 -1 C 4.02 g/m*3 -1 C 0 km/h
2737 08-12-2010 19:37:02 -1 C 4.02 g/m*3 -1 C 0 km/h
2738 08-12-2010 19:49:01 -1 C 4.07 g/m*3 -1 C 0 km/h
2739 08-12-2010 20:01:01 -1 C 4.07 g/m*3 -1 C 0 km/h
2740 08-12-2010 20:13:01 -1 C 4.02 g/m*3 -1 C 0 km/h
2741 08-12-2010 20:25:01 -1.1 C 4 g/m*3 -1.1 C 0 km/h
2742 08-12-2010 20:37:02 -1.1 C 4 g/m*3 -1.1 C 0 km/h
2743 08-12-2010 20:49:02 -1.1 C 4 g/m*3 -1.1 C 0 km/h
2744 08-12-2010 21:01:02 -1.2 C 3.97 g/m*3 -1.2 C 0 km/h
2745 08-12-2010 21:13:02 -1.2 C 3.97 g/m*3 -1.2 C 0 km/h
2746 08-12-2010 21:25:02 -1.2 C 3.97 g/m*3 -1.2 C 0 km/h
2747 08-12-2010 21:37:02 -1.3 C 3.9 g/m*3 -1.3 C 0 km/h
2748 08-12-2010 21:49:02 -1.3 C 3.9 g/m*3 -1.3 C 0 km/h
2749 08-12-2010 22:01:02 -1.4 C 3.87 g/m*3 -1.4 C 0 km/h
2750 08-12-2010 22:13:02 -1.4 C 3.82 g/m*3 -1.4 C 0 km/h
Sensor: Nr:Datum:Temp:Abs-Feuchte:Windchill:Wind:
Aussen-T/F 2751 08-12-2010 22:25:02 -1.4 C 3.82 g/m*3 -1.4 C 0 km/h
2752 08-12-2010 22:38:04 -1.5 C 3.8 g/m*3 -1.5 C 0 km/h
2753 08-12-2010 22:50:04 -1.5 C 3.8 g/m*3 -1.5 C 0 km/h
2754 08-12-2010 23:02:04 -1.3 C 3.81 g/m*3 -1.3 C 0 km/h
2755 08-12-2010 23:14:04 -1.3 C 3.76 g/m*3 -1.3 C 0 km/h
2756 08-12-2010 23:26:04 -1.3 C 3.72 g/m*3 -1.3 C 0 km/h
2757 08-12-2010 23:38:04 -1.3 C 3.72 g/m*3 -1.3 C 0 km/h
2758 08-12-2010 23:50:04 -1.3 C 3.67 g/m*3 -1.3 C 0 km/h
2759 09-12-2010 00:02:04 -1.3 C 3.67 g/m*3 -1.3 C 0 km/h
2760 09-12-2010 00:14:04 -1.3 C 3.67 g/m*3 -1.3 C 0 km/h
2761 09-12-2010 00:26:04 -1.3 C 3.67 g/m*3 -1.3 C 0 km/h
2762 09-12-2010 00:38:04 -1.3 C 3.63 g/m*3 -1.3 C 0 km/h
2763 09-12-2010 00:50:05 -1.4 C 3.56 g/m*3 -1.4 C 0 km/h
2764 09-12-2010 01:02:05 -1.4 C 3.56 g/m*3 -1.4 C 0 km/h
2765 09-12-2010 01:14:05 -1.5 C 3.58 g/m*3 -1.5 C 0 km/h
2766 09-12-2010 01:26:05 -1.5 C 3.58 g/m*3 -1.5 C 0 km/h
2767 09-12-2010 01:38:05 -1.6 C 3.55 g/m*3 -1.6 C 0 km/h
2768 09-12-2010 01:50:05 -1.6 C 3.51 g/m*3 -1.6 C 0 km/h
2769 09-12-2010 02:02:05 -1.7 C 3.53 g/m*3 -1.7 C 0 km/h
2770 09-12-2010 02:14:05 -1.7 C 3.49 g/m*3 -1.7 C 0 km/h
2771 09-12-2010 02:26:05 -1.8 C 3.51 g/m*3 -1.8 C 0 km/h
2772 09-12-2010 02:38:05 -1.7 C 3.62 g/m*3 -1.7 C 0 km/h
2773 09-12-2010 02:50:05 -1.8 C 3.63 g/m*3 -1.8 C 0 km/h
2774 09-12-2010 03:02:05 -1.7 C 3.7 g/m*3 -1.7 C 0 km/h
2775 09-12-2010 03:14:05 -1.7 C 3.7 g/m*3 -1.7 C 0 km/h
Sensor: Nr:Datum:Temp:Abs-Feuchte:Windchill:Wind:
Aussen-T/F 2776 09-12-2010 03:26:05 -1.7 C 3.7 g/m*3 -1.7 C 0 km/h
2777 09-12-2010 03:38:05 -1.7 C 3.7 g/m*3 -1.7 C 0 km/h
2778 09-12-2010 03:50:05 -1.7 C 3.66 g/m*3 -1.7 C 0 km/h
2779 09-12-2010 04:02:05 -1.6 C 3.68 g/m*3 -1.6 C 0 km/h
2780 09-12-2010 04:14:05 -1.4 C 3.78 g/m*3 -1.4 C 0 km/h
2781 09-12-2010 04:26:05 -1.6 C 3.73 g/m*3 -1.6 C 0 km/h
2782 09-12-2010 04:38:05 -1.7 C 3.7 g/m*3 -1.7 C 0 km/h
2783 09-12-2010 04:50:05 -1.8 C 3.72 g/m*3 -1.8 C 0 km/h
2784 09-12-2010 05:02:05 -1.9 C 3.69 g/m*3 -1.9 C 0 km/h
2785 09-12-2010 05:14:05 -1.2 C 3.88 g/m*3 -1.2 C 0 km/h
2786 09-12-2010 05:26:06 -0.8 C 3.9 g/m*3 -0.8 C 0 km/h
2787 09-12-2010 05:38:06 -0.7 C 3.88 g/m*3 -0.7 C 0 km/h
2788 09-12-2010 05:50:06 -0.6 C 3.86 g/m*3 -0.6 C 0 km/h
2789 09-12-2010 06:02:06 -0.7 C 3.83 g/m*3 -0.7 C 0 km/h
2790 09-12-2010 06:14:06 -0.5 C 3.88 g/m*3 -0.5 C 0 km/h
2791 09-12-2010 06:26:06 -0.3 C 3.94 g/m*3 -0.3 C 0 km/h
2792 09-12-2010 06:38:06 -0.3 C 3.94 g/m*3 -0.3 C 0 km/h
2793 09-12-2010 06:50:06 -0.3 C 3.89 g/m*3 -0.3 C 0 km/h
2794 09-12-2010 07:02:06 -0.3 C 3.94 g/m*3 -0.3 C 0 km/h
2795 09-12-2010 07:14:06 -0.3 C 3.94 g/m*3 -0.3 C 0 km/h
2796 09-12-2010 07:26:06 -0.3 C 3.94 g/m*3 -0.3 C 0 km/h
2797 09-12-2010 07:38:03 -0.3 C 3.94 g/m*3 -0.3 C 0 km/h
2798 09-12-2010 07:50:02 -0.2 C 4.01 g/m*3 -0.2 C 0 km/h
2799 09-12-2010 08:02:02 -0.3 C 3.99 g/m*3 -0.3 C 0 km/h
2800 09-12-2010 08:14:02 -0.2 C 3.97 g/m*3 -0.2 C 0 km/h
Sensor: Nr:Datum:Temp:Abs-Feuchte:Windchill:Wind:
Aussen-T/F 2801 09-12-2010 08:26:01 -0.3 C 3.94 g/m*3 -0.3 C 0 km/h
2802 09-12-2010 08:38:02 -0.5 C 3.84 g/m*3 -0.5 C 0 km/h
2803 09-12-2010 08:50:02 -0.6 C 3.81 g/m*3 -0.6 C 0 km/h
2804 09-12-2010 09:02:02 -0.3 C 3.89 g/m*3 -0.3 C 0 km/h
2805 09-12-2010 09:14:02 -0.2 C 3.92 g/m*3 -0.2 C 0 km/h
2806 09-12-2010 09:26:02 0 C 3.92 g/m*3 0 C 0 km/h
2807 09-12-2010 09:38:02 0.2 C 3.98 g/m*3 0.2 C 0 km/h
2808 09-12-2010 09:50:02 -0.1 C 3.95 g/m*3 -0.1 C 0 km/h
2809 09-12-2010 10:02:02 0.1 C 4.05 g/m*3 0.1 C 0 km/h
2810 09-12-2010 10:14:02 0.2 C 4.03 g/m*3 0.2 C 0 km/h
2811 09-12-2010 10:26:02 0.3 C 4.01 g/m*3 0.3 C 0 km/h
2812 09-12-2010 10:38:02 0.6 C 3.99 g/m*3 0.6 C 0 km/h
2813 09-12-2010 10:50:02 0.4 C 3.93 g/m*3 0.4 C 0 km/h
2814 09-12-2010 11:02:02 0.7 C 4.02 g/m*3 0.7 C 0 km/h
2815 09-12-2010 11:14:02 0.7 C 4.02 g/m*3 0.7 C 0 km/h
2816 09-12-2010 11:26:02 0.7 C 4.07 g/m*3 0.7 C 0 km/h
2817 09-12-2010 11:38:02 1 C 4.1 g/m*3 1 C 0 km/h
2818 09-12-2010 11:50:02 0.9 C 4.12 g/m*3 0.9 C 0 km/h
2819 09-12-2010 12:02:02 1.4 C 4.21 g/m*3 1.4 C 0 km/h
2820 09-12-2010 12:14:02 2.2 C 4.22 g/m*3 2.2 C 0 km/h
2821 09-12-2010 12:26:02 2.4 C 4.11 g/m*3 2.4 C 0 km/h
2822 09-12-2010 12:38:01 2.7 C 3.96 g/m*3 2.7 C 0 km/h
2823 09-12-2010 12:50:02 2.2 C 3.83 g/m*3 2.2 C 0 km/h
2824 09-12-2010 13:02:01 1.7 C 4.03 g/m*3 1.7 C 0 km/h
2825 09-12-2010 13:14:01 1.5 C 4.19 g/m*3 1.5 C 0 km/h
Sensor: Nr:Datum:Temp:Abs-Feuchte:Windchill:Wind:
Aussen-T/F 2826 09-12-2010 13:26:01 1.6 C 4.22 g/m*3 1.6 C 0 km/h
2827 09-12-2010 13:38:02 2 C 4.17 g/m*3 2 C 0 km/h
2828 09-12-2010 13:50:02 1.9 C 3.92 g/m*3 1.9 C 0 km/h
2829 09-12-2010 14:02:02 2.3 C 3.91 g/m*3 2.3 C 0 km/h
2830 09-12-2010 14:14:02 2.2 C 3.89 g/m*3 2.2 C 0 km/h
2831 09-12-2010 14:26:02 2.1 C 3.86 g/m*3 2.1 C 0 km/h
2832 09-12-2010 14:38:02 2 C 4 g/m*3 2 C 0 km/h
2833 09-12-2010 14:50:02 2 C 3.95 g/m*3 2 C 0 km/h
2834 09-12-2010 15:02:02 1.6 C 3.95 g/m*3 1.6 C 0 km/h
2835 09-12-2010 15:14:02 1.4 C 3.89 g/m*3 1.4 C 0 km/h
2836 09-12-2010 15:26:02 2 C 3.72 g/m*3 2 C 0 km/h
2837 09-12-2010 15:38:02 2 C 3.61 g/m*3 2 C 0 km/h
2838 09-12-2010 15:50:02 2.2 C 3.55 g/m*3 2.2 C 0 km/h
2839 09-12-2010 16:02:02 1.9 C 3.53 g/m*3 1.9 C 0 km/h
2840 09-12-2010 16:14:02 1.7 C 3.59 g/m*3 1.7 C 0 km/h
2841 09-12-2010 16:26:03 0.9 C 3.61 g/m*3 0.9 C 0 km/h
2842 09-12-2010 16:38:02 1.6 C 3.79 g/m*3 1.6 C 0 km/h
2843 09-12-2010 16:50:02 1.5 C 3.76 g/m*3 1.5 C 0 km/h
2844 09-12-2010 17:02:02 1.6 C 3.79 g/m*3 1.6 C 0 km/h
2845 09-12-2010 17:14:02 1.5 C 3.81 g/m*3 1.5 C 0 km/h
2846 09-12-2010 17:26:02 1.5 C 3.92 g/m*3 1.5 C 0 km/h
2847 09-12-2010 17:38:02 1.5 C 3.97 g/m*3 1.5 C 0 km/h
2848 09-12-2010 17:50:02 1.4 C 3.95 g/m*3 1.4 C 0 km/h
2849 09-12-2010 18:02:01 1.7 C 4.03 g/m*3 1.7 C 0 km/h
2850 09-12-2010 18:14:01 1.5 C 3.97 g/m*3 1.5 C 0 km/h
Sensor: Nr:Datum:Temp:Abs-Feuchte:Windchill:Wind:
Aussen-T/F 2851 09-12-2010 18:26:02 1.7 C 4.08 g/m*3 1.7 C 0 km/h
2852 09-12-2010 18:38:02 1.5 C 4.03 g/m*3 1.5 C 0 km/h
2853 09-12-2010 18:50:02 2 C 4.06 g/m*3 2 C 0 km/h
2854 09-12-2010 19:02:03 2 C 3.89 g/m*3 2 C 0 km/h
2855 09-12-2010 19:14:03 2.3 C 3.91 g/m*3 2.3 C 0 km/h
2856 09-12-2010 19:26:02 2.2 C 3.89 g/m*3 2.2 C 0 km/h
2857 09-12-2010 19:38:02 2.2 C 3.89 g/m*3 2.2 C 0 km/h
2858 09-12-2010 19:50:01 2.1 C 3.92 g/m*3 2.1 C 0 km/h
2859 09-12-2010 20:02:02 2 C 3.95 g/m*3 2 C 0 km/h
2860 09-12-2010 20:14:02 2.5 C 4.02 g/m*3 2.5 C 0 km/h
2861 09-12-2010 20:26:01 2.6 C 3.99 g/m*3 2.6 C 0 km/h
2862 09-12-2010 20:39:03 2.7 C 4.02 g/m*3 2.7 C 0 km/h
2863 09-12-2010 20:51:03 2.4 C 4 g/m*3 2.4 C 0 km/h
2864 09-12-2010 21:03:03 2.6 C 4.11 g/m*3 2.6 C 0 km/h
2865 09-12-2010 21:15:03 2.6 C 4.05 g/m*3 2.6 C 0 km/h
2866 09-12-2010 21:27:03 2.6 C 4.05 g/m*3 2.6 C 0 km/h
2867 09-12-2010 21:39:03 2.6 C 3.99 g/m*3 2.6 C 0 km/h
2868 09-12-2010 21:51:03 2.5 C 4.08 g/m*3 2.5 C 0 km/h
2869 09-12-2010 22:03:03 2.8 C 4.11 g/m*3 2.8 C 0 km/h
2870 09-12-2010 22:15:03 2.7 C 4.08 g/m*3 2.7 C 0 km/h
2871 09-12-2010 22:27:03 2.4 C 4.11 g/m*3 2.4 C 0 km/h
2872 09-12-2010 22:39:04 2.4 C 4.17 g/m*3 2.4 C 0 km/h
2873 09-12-2010 22:51:04 1.9 C 4.3 g/m*3 1.9 C 0 km/h
2874 09-12-2010 23:03:04 1.6 C 4.33 g/m*3 1.6 C 0 km/h
2875 09-12-2010 23:15:04 1.4 C 4.37 g/m*3 1.4 C 0 km/h
Sensor: Nr:Datum:Temp:Abs-Feuchte:Windchill:Wind:
Aussen-T/F 2876 09-12-2010 23:27:04 1.4 C 4.43 g/m*3 1.4 C 0 km/h
2877 09-12-2010 23:39:04 1.6 C 4.54 g/m*3 1.6 C 0 km/h
2878 09-12-2010 23:51:04 1.5 C 4.46 g/m*3 1.5 C 0 km/h
2879 10-12-2010 00:03:04 1.6 C 4.49 g/m*3 1.6 C 0 km/h
2880 10-12-2010 00:15:04 1.6 C 4.43 g/m*3 1.6 C 0 km/h
2881 10-12-2010 00:27:04 2 C 4.45 g/m*3 2 C 0 km/h
2882 10-12-2010 00:39:04 2.1 C 4.36 g/m*3 2.1 C 0 km/h
2883 10-12-2010 00:51:04 2.2 C 4.34 g/m*3 2.2 C 0 km/h
2884 10-12-2010 01:03:04 2.1 C 4.36 g/m*3 2.1 C 0 km/h
2885 10-12-2010 01:15:04 1.9 C 4.36 g/m*3 1.9 C 0 km/h
2886 10-12-2010 01:27:04 2 C 4.39 g/m*3 2 C 0 km/h
2887 10-12-2010 01:39:04 2.1 C 4.36 g/m*3 2.1 C 0 km/h
2888 10-12-2010 01:51:04 2.1 C 4.31 g/m*3 2.1 C 0 km/h
2889 10-12-2010 02:03:04 2.3 C 4.2 g/m*3 2.3 C 0 km/h
2890 10-12-2010 02:15:04 1.8 C 4.17 g/m*3 1.8 C 0 km/h
2891 10-12-2010 02:27:04 1.4 C 4.16 g/m*3 1.4 C 0 km/h
2892 10-12-2010 02:39:04 1.6 C 4.38 g/m*3 1.6 C 0 km/h
2893 10-12-2010 02:51:04 1.4 C 4.37 g/m*3 1.4 C 0 km/h
2894 10-12-2010 03:03:05 1 C 4.31 g/m*3 1 C 0 km/h
2895 10-12-2010 03:15:05 1.3 C 4.5 g/m*3 1.3 C 0 km/h
2896 10-12-2010 03:27:05 1.2 C 4.53 g/m*3 1.2 C 0 km/h
2897 10-12-2010 03:39:05 1.3 C 4.61 g/m*3 1.3 C 0 km/h
2898 10-12-2010 03:51:05 1.4 C 4.64 g/m*3 1.4 C 0 km/h
2899 10-12-2010 04:03:05 1.4 C 4.69 g/m*3 1.4 C 0 km/h
2900 10-12-2010 04:15:05 1.2 C 4.63 g/m*3 1.2 C 0 km/h
Sensor: Nr:Datum:Temp:Abs-Feuchte:Windchill:Wind:
Aussen-T/F 2901 10-12-2010 04:27:05 1.4 C 4.69 g/m*3 1.4 C 0 km/h
2902 10-12-2010 04:39:05 2 C 4.89 g/m*3 2 C 0 km/h
2903 10-12-2010 04:51:05 2.5 C 5.06 g/m*3 2.5 C 0 km/h
2904 10-12-2010 05:03:05 2.8 C 5.04 g/m*3 2.8 C 0 km/h
2905 10-12-2010 05:15:05 2.6 C 4.86 g/m*3 2.6 C 0 km/h
2906 10-12-2010 05:27:05 2.4 C 4.8 g/m*3 2.4 C 0 km/h
2907 10-12-2010 05:39:05 2.4 C 4.85 g/m*3 2.4 C 0 km/h
2908 10-12-2010 05:51:05 2.4 C 4.8 g/m*3 2.4 C 0 km/h
2909 10-12-2010 06:03:05 2.2 C 4.79 g/m*3 2.2 C 0 km/h
2910 10-12-2010 06:15:05 2.1 C 4.76 g/m*3 2.1 C 0 km/h
2911 10-12-2010 06:27:05 2 C 4.72 g/m*3 2 C 0 km/h
2912 10-12-2010 06:39:05 1.5 C 4.67 g/m*3 1.5 C 0 km/h
2913 10-12-2010 06:51:05 1.4 C 4.69 g/m*3 1.4 C 0 km/h
2914 10-12-2010 07:03:05 1.2 C 4.63 g/m*3 1.2 C 0 km/h
2915 10-12-2010 07:15:02 1.1 C 4.65 g/m*3 1.1 C 0 km/h
2916 10-12-2010 07:27:03 1.1 C 4.65 g/m*3 1.1 C 0 km/h
2917 10-12-2010 07:39:02 0.5 C 4.46 g/m*3 0.5 C 0 km/h
2918 10-12-2010 07:51:03 -0.1 C 4.28 g/m*3 -0.1 C 0 km/h
2919 10-12-2010 08:03:02 -0.2 C 4.3 g/m*3 -0.2 C 0 km/h
2920 10-12-2010 08:15:02 -0.4 C 4.24 g/m*3 -0.4 C 0 km/h
2921 10-12-2010 08:27:02 -0.3 C 4.27 g/m*3 -0.3 C 0 km/h
2922 10-12-2010 08:39:02 -0.3 C 4.32 g/m*3 -0.3 C 0 km/h
2923 10-12-2010 08:51:02 -0.4 C 4.29 g/m*3 -0.4 C 0 km/h
2924 10-12-2010 09:03:02 -0.6 C 4.23 g/m*3 -0.6 C 0 km/h
2925 10-12-2010 09:15:02 -0.7 C 4.2 g/m*3 -0.7 C 0 km/h
Sensor: Nr:Datum:Temp:Abs-Feuchte:Windchill:Wind:
Aussen-T/F 2926 10-12-2010 09:27:02 -0.6 C 4.23 g/m*3 -0.6 C 0 km/h
2927 10-12-2010 09:39:02 0 C 4.41 g/m*3 0 C 0 km/h
2928 10-12-2010 09:51:02 -0.1 C 4.43 g/m*3 -0.1 C 0 km/h
2929 10-12-2010 10:03:01 -0.3 C 4.32 g/m*3 -0.3 C 0 km/h
2930 10-12-2010 10:15:01 0 C 4.41 g/m*3 0 C 0 km/h
2931 10-12-2010 10:27:02 0 C 4.41 g/m*3 0 C 0 km/h
2932 10-12-2010 10:39:01 0.2 C 4.52 g/m*3 0.2 C 0 km/h
2933 10-12-2010 10:51:03 0.4 C 4.58 g/m*3 0.4 C 0 km/h
2934 10-12-2010 11:03:02 0.2 C 4.47 g/m*3 0.2 C 0 km/h
2935 10-12-2010 11:15:02 1.1 C 4.76 g/m*3 1.1 C 0 km/h
2936 10-12-2010 11:27:02 1.6 C 4.92 g/m*3 1.6 C 0 km/h
2937 10-12-2010 11:39:02 2 C 5 g/m*3 2 C 0 km/h
2938 10-12-2010 11:51:02 2 C 4.95 g/m*3 2 C 0 km/h
2939 10-12-2010 12:03:01 2.3 C 5.05 g/m*3 2.3 C 0 km/h
2940 10-12-2010 12:15:02 2.2 C 4.96 g/m*3 2.2 C 0 km/h
2941 10-12-2010 12:27:02 2.4 C 5.02 g/m*3 2.4 C 0 km/h
2942 10-12-2010 12:39:02 2.3 C 4.93 g/m*3 2.3 C 0 km/h
2943 10-12-2010 12:51:02 2 C 4.78 g/m*3 2 C 0 km/h
2944 10-12-2010 13:03:03 2.6 C 4.98 g/m*3 2.6 C 0 km/h
2945 10-12-2010 13:15:02 2.7 C 4.95 g/m*3 2.7 C 0 km/h
2946 10-12-2010 13:27:02 3 C 4.88 g/m*3 3 C 0 km/h
2947 10-12-2010 13:39:02 3.4 C 4.95 g/m*3 3.4 C 0 km/h
2948 10-12-2010 13:51:01 3.1 C 4.73 g/m*3 3.1 C 0 km/h
2949 10-12-2010 14:03:02 3.1 C 4.67 g/m*3 3.1 C 0 km/h
2950 10-12-2010 14:15:01 3.1 C 4.67 g/m*3 3.1 C 0 km/h
Sensor: Nr:Datum:Temp:Abs-Feuchte:Windchill:Wind:
Aussen-T/F 2951 10-12-2010 14:27:01 2.9 C 4.67 g/m*3 2.9 C 0 km/h
2952 10-12-2010 14:39:01 2.7 C 4.66 g/m*3 2.7 C 0 km/h
2953 10-12-2010 14:51:01 2.3 C 4.59 g/m*3 2.3 C 0 km/h
2954 10-12-2010 15:03:01 2.2 C 4.62 g/m*3 2.2 C 0 km/h
2955 10-12-2010 15:15:02 1.8 C 4.6 g/m*3 1.8 C 0 km/h
2956 10-12-2010 15:27:02 1.8 C 4.66 g/m*3 1.8 C 0 km/h
2957 10-12-2010 15:39:01 1.6 C 4.65 g/m*3 1.6 C 0 km/h
2958 10-12-2010 15:51:02 1.5 C 4.67 g/m*3 1.5 C 0 km/h
2959 10-12-2010 16:03:01 1.5 C 4.73 g/m*3 1.5 C 0 km/h
2960 10-12-2010 16:15:01 1.5 C 4.78 g/m*3 1.5 C 0 km/h
2961 10-12-2010 16:27:02 1.4 C 4.75 g/m*3 1.4 C 0 km/h
2962 10-12-2010 16:39:01 1.6 C 4.87 g/m*3 1.6 C 0 km/h
2963 10-12-2010 16:51:02 1.7 C 4.9 g/m*3 1.7 C 0 km/h
2964 10-12-2010 17:03:01 1.9 C 4.97 g/m*3 1.9 C 0 km/h
2965 10-12-2010 17:15:02 1.6 C 4.87 g/m*3 1.6 C 0 km/h
2966 10-12-2010 17:27:02 1.6 C 4.87 g/m*3 1.6 C 0 km/h
2967 10-12-2010 17:39:02 2.3 C 5.1 g/m*3 2.3 C 0 km/h
2968 10-12-2010 17:51:01 1.8 C 4.93 g/m*3 1.8 C 0 km/h
2969 10-12-2010 18:03:02 1.7 C 4.9 g/m*3 1.7 C 0 km/h
2970 10-12-2010 18:15:01 2 C 5 g/m*3 2 C 0 km/h
2971 10-12-2010 18:27:01 2.2 C 5.01 g/m*3 2.2 C 0 km/h
2972 10-12-2010 18:39:02 1.8 C 4.88 g/m*3 1.8 C 0 km/h
2973 10-12-2010 18:51:02 1.6 C 4.87 g/m*3 1.6 C 0 km/h
2974 10-12-2010 19:03:02 2 C 4.95 g/m*3 2 C 0 km/h
2975 10-12-2010 19:15:01 2.2 C 5.01 g/m*3 2.2 C 0 km/h
Sensor: Nr:Datum:Temp:Abs-Feuchte:Windchill:Wind:
Aussen-T/F 2976 10-12-2010 19:27:01 2.5 C 5.06 g/m*3 2.5 C 0 km/h
2977 10-12-2010 19:39:02 2.3 C 4.93 g/m*3 2.3 C 0 km/h
2978 10-12-2010 19:51:02 2.4 C 4.91 g/m*3 2.4 C 0 km/h
2979 10-12-2010 20:03:02 2.4 C 4.91 g/m*3 2.4 C 0 km/h
2980 10-12-2010 20:15:01 2.7 C 5.01 g/m*3 2.7 C 0 km/h
2981 10-12-2010 20:27:01 2.8 C 4.99 g/m*3 2.8 C 0 km/h
2982 10-12-2010 20:39:02 2.5 C 4.83 g/m*3 2.5 C 0 km/h
2983 10-12-2010 20:51:01 2.6 C 4.92 g/m*3 2.6 C 0 km/h
2984 10-12-2010 21:03:02 2.5 C 4.89 g/m*3 2.5 C 0 km/h
2985 10-12-2010 21:15:02 2.5 C 4.83 g/m*3 2.5 C 0 km/h
2986 10-12-2010 21:27:02 2.4 C 4.8 g/m*3 2.4 C 0 km/h
2987 10-12-2010 21:39:02 2.6 C 4.86 g/m*3 2.6 C 0 km/h
2988 10-12-2010 21:51:02 2.5 C 4.89 g/m*3 2.5 C 0 km/h
2989 10-12-2010 22:03:02 2.5 C 4.89 g/m*3 2.5 C 0 km/h
2990 10-12-2010 22:15:01 2.6 C 4.86 g/m*3 2.6 C 0 km/h
2991 10-12-2010 22:27:01 2.4 C 4.85 g/m*3 2.4 C 0 km/h
2992 10-12-2010 22:39:02 2.5 C 4.89 g/m*3 2.5 C 0 km/h
2993 10-12-2010 22:51:01 2.6 C 4.86 g/m*3 2.6 C 0 km/h
2994 10-12-2010 23:03:02 2.4 C 4.8 g/m*3 2.4 C 0 km/h
2995 10-12-2010 23:15:02 2.3 C 4.82 g/m*3 2.3 C 0 km/h
2996 10-12-2010 23:27:02 2.1 C 4.87 g/m*3 2.1 C 0 km/h
2997 10-12-2010 23:39:02 2.2 C 4.9 g/m*3 2.2 C 0 km/h
2998 10-12-2010 23:51:01 2.2 C 4.9 g/m*3 2.2 C 0 km/h
2999 11-12-2010 00:03:02 2.2 C 4.96 g/m*3 2.2 C 0 km/h
3000 11-12-2010 00:15:02 2.3 C 4.99 g/m*3 2.3 C 0 km/h
Sensor: Nr:Datum:Temp:Abs-Feuchte:Windchill:Wind:
Aussen-T/F 3001 11-12-2010 00:27:02 2.1 C 4.92 g/m*3 2.1 C 0 km/h
3002 11-12-2010 00:39:01 2.2 C 5.01 g/m*3 2.2 C 0 km/h
3003 11-12-2010 00:51:02 2.1 C 4.98 g/m*3 2.1 C 0 km/h
3004 11-12-2010 01:03:01 2.3 C 5.05 g/m*3 2.3 C 0 km/h
3005 11-12-2010 01:15:02 2.4 C 5.08 g/m*3 2.4 C 0 km/h
3006 11-12-2010 01:27:03 2.5 C 5.12 g/m*3 2.5 C 0 km/h
3007 11-12-2010 01:39:01 2.5 C 5.06 g/m*3 2.5 C 0 km/h
3008 11-12-2010 01:51:02 2.6 C 5.09 g/m*3 2.6 C 0 km/h
3009 11-12-2010 02:03:02 2.7 C 5.13 g/m*3 2.7 C 0 km/h
3010 11-12-2010 02:15:02 2.8 C 5.16 g/m*3 2.8 C 0 km/h
3011 11-12-2010 02:27:02 2.8 C 5.16 g/m*3 2.8 C 0 km/h
3012 11-12-2010 02:39:03 2.6 C 5.09 g/m*3 2.6 C 0 km/h
3013 11-12-2010 02:51:01 2.7 C 5.13 g/m*3 2.7 C 0 km/h
3014 11-12-2010 03:03:01 2.6 C 5.09 g/m*3 2.6 C 0 km/h
3015 11-12-2010 03:15:02 2.7 C 5.13 g/m*3 2.7 C 0 km/h
3016 11-12-2010 03:27:02 2.3 C 4.99 g/m*3 2.3 C 0 km/h
3017 11-12-2010 03:39:02 2.3 C 5.05 g/m*3 2.3 C 0 km/h
3018 11-12-2010 03:51:02 2.8 C 5.22 g/m*3 2.8 C 0 km/h
3019 11-12-2010 04:03:01 3.3 C 5.34 g/m*3 3.3 C 0 km/h
3020 11-12-2010 04:15:01 3 C 5.17 g/m*3 3 C 0 km/h
3021 11-12-2010 04:27:01 3 C 5.17 g/m*3 3 C 0 km/h
3022 11-12-2010 04:39:02 3.5 C 5.29 g/m*3 3.5 C 0 km/h
3023 11-12-2010 04:51:01 3.5 C 5.23 g/m*3 3.5 C 0 km/h
3024 11-12-2010 05:03:02 4 C 5.28 g/m*3 4 C 0 km/h
3025 11-12-2010 05:15:01 4 C 5.21 g/m*3 4 C 0 km/h
Sensor: Nr:Datum:Temp:Abs-Feuchte:Windchill:Wind:
Aussen-T/F 3026 11-12-2010 05:27:01 3.8 C 5.14 g/m*3 3.8 C 0 km/h
3027 11-12-2010 05:39:02 3.8 C 5.14 g/m*3 3.8 C 0 km/h
3028 11-12-2010 05:51:01 3.7 C 5.17 g/m*3 3.7 C 0 km/h
3029 11-12-2010 06:03:02 3.6 C 5.2 g/m*3 3.6 C 0 km/h
3030 11-12-2010 06:15:01 3.1 C 5.03 g/m*3 3.1 C 0 km/h
3031 11-12-2010 06:27:01 3.4 C 5.19 g/m*3 3.4 C 0 km/h
3032 11-12-2010 06:39:01 3.4 C 5.19 g/m*3 3.4 C 0 km/h
3033 11-12-2010 06:51:01 3.3 C 5.16 g/m*3 3.3 C 0 km/h
3034 11-12-2010 07:03:01 3.6 C 5.32 g/m*3 3.6 C 0 km/h
3035 11-12-2010 07:15:01 3.9 C 5.31 g/m*3 3.9 C 0 km/h
3036 11-12-2010 07:27:01 4.5 C 5.26 g/m*3 4.5 C 0 km/h
3037 11-12-2010 07:39:01 4.5 C 5.13 g/m*3 4.5 C 0 km/h
3038 11-12-2010 07:51:01 4.2 C 5.03 g/m*3 4.2 C 0 km/h
3039 11-12-2010 08:03:01 4.6 C 5.16 g/m*3 4.6 C 0 km/h
3040 11-12-2010 08:15:02 4.7 C 5.06 g/m*3 4.7 C 0 km/h
3041 11-12-2010 08:27:02 5 C 4.96 g/m*3 5 C 0 km/h
3042 11-12-2010 08:39:01 5.1 C 4.92 g/m*3 5.1 C 0 km/h
3043 11-12-2010 08:51:02 4.9 C 4.93 g/m*3 4.9 C 0 km/h
3044 11-12-2010 09:03:01 4.5 C 4.86 g/m*3 4.5 C 0 km/h
3045 11-12-2010 09:15:02 4.3 C 4.99 g/m*3 4.3 C 0 km/h
3046 11-12-2010 09:27:02 4 C 4.9 g/m*3 4 C 0 km/h
3047 11-12-2010 09:39:01 4 C 5.15 g/m*3 4 C 0 km/h
3048 11-12-2010 09:51:02 4 C 5.28 g/m*3 4 C 0 km/h
3049 11-12-2010 10:03:01 3.9 C 5.37 g/m*3 3.9 C 0 km/h
3050 11-12-2010 10:15:01 4 C 5.4 g/m*3 4 C 0 km/h
Sensor: Nr:Datum:Temp:Abs-Feuchte:Windchill:Wind:
Aussen-T/F 3051 11-12-2010 10:27:01 4 C 5.4 g/m*3 4 C 0 km/h
3052 11-12-2010 10:39:02 3.8 C 5.33 g/m*3 3.8 C 0 km/h
3053 11-12-2010 10:51:01 3.8 C 5.4 g/m*3 3.8 C 0 km/h
3054 11-12-2010 11:03:02 4.1 C 5.38 g/m*3 4.1 C 0 km/h
3055 11-12-2010 11:15:01 4.2 C 5.35 g/m*3 4.2 C 0 km/h
3056 11-12-2010 11:27:01 4.5 C 5.39 g/m*3 4.5 C 0 km/h
3057 11-12-2010 11:39:02 4.4 C 5.35 g/m*3 4.4 C 0 km/h
3058 11-12-2010 11:51:01 4.3 C 5.38 g/m*3 4.3 C 0 km/h
3059 11-12-2010 12:03:02 4.3 C 5.45 g/m*3 4.3 C 0 km/h
3060 11-12-2010 12:15:01 4.4 C 5.55 g/m*3 4.4 C 0 km/h
3061 11-12-2010 12:27:01 4.6 C 5.62 g/m*3 4.6 C 0 km/h
3062 11-12-2010 12:39:01 4.6 C 5.62 g/m*3 4.6 C 0 km/h
3063 11-12-2010 12:51:01 4.8 C 5.57 g/m*3 4.8 C 0 km/h
3064 11-12-2010 13:03:01 4.8 C 5.5 g/m*3 4.8 C 0 km/h
3065 11-12-2010 13:15:01 4.8 C 5.43 g/m*3 4.8 C 0 km/h
3066 11-12-2010 13:27:01 4.8 C 5.36 g/m*3 4.8 C 0 km/h
3067 11-12-2010 13:39:01 4.9 C 5.33 g/m*3 4.9 C 0 km/h
3068 11-12-2010 13:51:01 5 C 5.3 g/m*3 5 C 0 km/h
3069 11-12-2010 14:03:01 4.8 C 5.3 g/m*3 4.8 C 0 km/h
3070 11-12-2010 14:15:02 4.9 C 5.33 g/m*3 4.9 C 0 km/h
3071 11-12-2010 14:27:02 4.8 C 5.3 g/m*3 4.8 C 0 km/h
3072 11-12-2010 14:39:01 4.9 C 5.33 g/m*3 4.9 C 0 km/h
3073 11-12-2010 14:51:02 5.1 C 5.27 g/m*3 5.1 C 0 km/h
3074 11-12-2010 15:03:01 5.1 C 5.27 g/m*3 5.1 C 0 km/h
3075 11-12-2010 15:15:02 5.1 C 5.2 g/m*3 5.1 C 0 km/h
Sensor: Nr:Datum:Temp:Abs-Feuchte:Windchill:Wind:
Aussen-T/F 3076 11-12-2010 15:27:02 5.2 C 5.16 g/m*3 5.2 C 0 km/h
3077 11-12-2010 15:39:01 5.1 C 5.13 g/m*3 5.1 C 0 km/h
3078 11-12-2010 15:51:02 4.8 C 5.16 g/m*3 4.8 C 0 km/h
3079 11-12-2010 16:03:01 4.7 C 5.2 g/m*3 4.7 C 0 km/h
3080 11-12-2010 16:15:01 4.6 C 5.23 g/m*3 4.6 C 0 km/h
3081 11-12-2010 16:27:01 5.1 C 5.27 g/m*3 5.1 C 0 km/h
3082 11-12-2010 16:39:02 5.1 C 5.27 g/m*3 5.1 C 0 km/h
3083 11-12-2010 16:51:01 5 C 5.23 g/m*3 5 C 0 km/h
3084 11-12-2010 17:03:02 5 C 5.16 g/m*3 5 C 0 km/h
3085 11-12-2010 17:15:01 5.4 C 5.23 g/m*3 5.4 C 0 km/h
3086 11-12-2010 17:27:01 5.5 C 5.2 g/m*3 5.5 C 0 km/h
3087 11-12-2010 17:39:02 5.1 C 5.2 g/m*3 5.1 C 0 km/h
3088 11-12-2010 17:51:01 4.8 C 5.3 g/m*3 4.8 C 0 km/h
3089 11-12-2010 18:03:02 4.7 C 5.26 g/m*3 4.7 C 0 km/h
3090 11-12-2010 18:15:01 4.4 C 5.16 g/m*3 4.4 C 0 km/h
3091 11-12-2010 18:27:01 4.2 C 5.15 g/m*3 4.2 C 0 km/h
3092 11-12-2010 18:39:01 3.9 C 5.24 g/m*3 3.9 C 0 km/h
3093 11-12-2010 18:51:01 3.9 C 5.24 g/m*3 3.9 C 0 km/h
3094 11-12-2010 19:03:01 4.1 C 5.25 g/m*3 4.1 C 0 km/h
3095 11-12-2010 19:15:02 4.2 C 5.22 g/m*3 4.2 C 0 km/h
3096 11-12-2010 19:27:02 4 C 5.15 g/m*3 4 C 0 km/h
3097 11-12-2010 19:39:01 4.4 C 5.22 g/m*3 4.4 C 0 km/h
3098 11-12-2010 19:51:01 4.6 C 5.16 g/m*3 4.6 C 0 km/h
3099 11-12-2010 20:03:01 4.5 C 5.06 g/m*3 4.5 C 0 km/h
3100 11-12-2010 20:15:02 4.4 C 5.03 g/m*3 4.4 C 0 km/h
Sensor: Nr:Datum:Temp:Abs-Feuchte:Windchill:Wind:
Aussen-T/F 3101 11-12-2010 20:27:02 5.4 C 5.02 g/m*3 5.4 C 0 km/h
3102 11-12-2010 20:39:01 5 C 4.89 g/m*3 5 C 0 km/h
3103 11-12-2010 20:51:02 4.8 C 5.03 g/m*3 4.8 C 0 km/h
3104 11-12-2010 21:03:01 4.9 C 5.06 g/m*3 4.9 C 0 km/h
3105 11-12-2010 21:15:01 4.8 C 5.03 g/m*3 4.8 C 0 km/h
3106 11-12-2010 21:27:02 4.1 C 4.99 g/m*3 4.1 C 0 km/h
3107 11-12-2010 21:39:01 4 C 5.02 g/m*3 4 C 0 km/h
3108 11-12-2010 21:51:02 4.2 C 5.09 g/m*3 4.2 C 0 km/h
3109 11-12-2010 22:03:01 4.5 C 5.13 g/m*3 4.5 C 0 km/h
3110 11-12-2010 22:15:01 4.2 C 5.03 g/m*3 4.2 C 0 km/h
3111 11-12-2010 22:27:01 4.5 C 5.13 g/m*3 4.5 C 0 km/h
3112 11-12-2010 22:40:19 4.4 C 4.96 g/m*3 4.4 C 0 km/h
3113 11-12-2010 22:52:19 3.9 C 4.93 g/m*3 3.9 C 0 km/h
3114 11-12-2010 23:04:19 4.6 C 5.03 g/m*3 4.6 C 0 km/h
3115 11-12-2010 23:16:20 4.8 C 4.9 g/m*3 4.8 C 0 km/h
3116 11-12-2010 23:28:20 4.8 C 4.9 g/m*3 4.8 C 0 km/h
3117 11-12-2010 23:40:20 4.5 C 4.8 g/m*3 4.5 C 0 km/h
3118 11-12-2010 23:52:20 4.6 C 4.83 g/m*3 4.6 C 0 km/h
3119 12-12-2010 00:04:20 4.6 C 4.83 g/m*3 4.6 C 0 km/h
3120 12-12-2010 00:16:20 4.4 C 4.96 g/m*3 4.4 C 0 km/h
3121 12-12-2010 00:28:20 4.2 C 4.96 g/m*3 4.2 C 0 km/h
3122 12-12-2010 00:40:20 4.1 C 5.06 g/m*3 4.1 C 0 km/h
3123 12-12-2010 00:52:20 4 C 5.02 g/m*3 4 C 0 km/h
3124 12-12-2010 01:04:20 4.3 C 5.06 g/m*3 4.3 C 0 km/h
3125 12-12-2010 01:16:20 4.7 C 4.86 g/m*3 4.7 C 0 km/h
Sensor: Nr:Datum:Temp:Abs-Feuchte:Windchill:Wind:
Aussen-T/F 3126 12-12-2010 01:28:20 4.8 C 4.83 g/m*3 4.8 C 0 km/h
3127 12-12-2010 01:40:20 5 C 4.76 g/m*3 5 C 0 km/h
3128 12-12-2010 01:52:20 5.4 C 4.67 g/m*3 5.4 C 0 km/h
3129 12-12-2010 02:04:20 5.3 C 4.64 g/m*3 5.3 C 0 km/h
3130 12-12-2010 02:16:20 5.3 C 4.57 g/m*3 5.3 C 0 km/h
3131 12-12-2010 02:28:20 4.6 C 4.57 g/m*3 4.6 C 0 km/h
3132 12-12-2010 02:40:21 4.2 C 4.51 g/m*3 4.2 C 0 km/h
3133 12-12-2010 02:52:21 4.7 C 4.6 g/m*3 4.7 C 0 km/h
3134 12-12-2010 03:04:21 4.8 C 4.56 g/m*3 4.8 C 0 km/h
3135 12-12-2010 03:16:21 4.7 C 4.46 g/m*3 4.7 C 0 km/h
3136 12-12-2010 03:28:21 4.2 C 4.57 g/m*3 4.2 C 0 km/h
3137 12-12-2010 03:40:21 3.7 C 4.8 g/m*3 3.7 C 0 km/h
3138 12-12-2010 03:52:21 3.6 C 4.89 g/m*3 3.6 C 0 km/h
3139 12-12-2010 04:04:21 3.5 C 5.04 g/m*3 3.5 C 0 km/h
3140 12-12-2010 04:16:21 3.5 C 5.1 g/m*3 3.5 C 0 km/h
3141 12-12-2010 04:28:21 3.6 C 5.2 g/m*3 3.6 C 0 km/h
3142 12-12-2010 04:40:21 3.8 C 5.27 g/m*3 3.8 C 0 km/h
3143 12-12-2010 04:52:21 4 C 5.28 g/m*3 4 C 0 km/h
3144 12-12-2010 05:04:21 4 C 5.28 g/m*3 4 C 0 km/h
3145 12-12-2010 05:16:21 3.2 C 4.94 g/m*3 3.2 C 0 km/h
3146 12-12-2010 05:28:21 3.2 C 5.06 g/m*3 3.2 C 0 km/h
3147 12-12-2010 05:40:21 3.6 C 5.26 g/m*3 3.6 C 0 km/h
3148 12-12-2010 05:52:21 3.2 C 5 g/m*3 3.2 C 0 km/h
3149 12-12-2010 06:04:21 2.8 C 4.93 g/m*3 2.8 C 0 km/h
3150 12-12-2010 06:16:21 2.5 C 4.89 g/m*3 2.5 C 0 km/h
Sensor: Nr:Datum:Temp:Abs-Feuchte:Windchill:Wind:
Aussen-T/F 3151 12-12-2010 06:28:21 2.9 C 5.14 g/m*3 2.9 C 0 km/h
3152 12-12-2010 06:40:22 3.5 C 5.29 g/m*3 3.5 C 0 km/h
3153 12-12-2010 06:52:22 3.5 C 5.1 g/m*3 3.5 C 0 km/h
3154 12-12-2010 07:04:22 3.6 C 5.01 g/m*3 3.6 C 0 km/h
3155 12-12-2010 07:16:22 3.8 C 5.02 g/m*3 3.8 C 0 km/h
3156 12-12-2010 07:28:22 4 C 4.9 g/m*3 4 C 0 km/h
3157 12-12-2010 07:40:22 3.9 C 4.86 g/m*3 3.9 C 0 km/h
3158 12-12-2010 07:52:22 4 C 4.83 g/m*3 4 C 0 km/h
3159 12-12-2010 08:04:22 4 C 4.83 g/m*3 4 C 0 km/h
3160 12-12-2010 08:16:22 3.8 C 4.83 g/m*3 3.8 C 0 km/h
3161 12-12-2010 08:28:22 3.5 C 4.8 g/m*3 3.5 C 0 km/h
3162 12-12-2010 08:40:04 3.4 C 4.95 g/m*3 3.4 C 0 km/h
3163 12-12-2010 08:52:02 3.4 C 4.95 g/m*3 3.4 C 0 km/h
3164 12-12-2010 09:04:02 3.4 C 4.95 g/m*3 3.4 C 0 km/h
3165 12-12-2010 09:16:02 3.5 C 4.98 g/m*3 3.5 C 0 km/h
3166 12-12-2010 09:28:02 3.9 C 4.99 g/m*3 3.9 C 0 km/h
3167 12-12-2010 09:40:03 3.9 C 4.93 g/m*3 3.9 C 0 km/h
3168 12-12-2010 09:52:02 3.8 C 4.96 g/m*3 3.8 C 0 km/h
3169 12-12-2010 10:04:01 3.8 C 4.89 g/m*3 3.8 C 0 km/h
3170 12-12-2010 10:16:02 3.8 C 4.96 g/m*3 3.8 C 0 km/h
3171 12-12-2010 10:28:02 3.9 C 5.05 g/m*3 3.9 C 0 km/h
3172 12-12-2010 10:40:02 4 C 5.09 g/m*3 4 C 0 km/h
3173 12-12-2010 10:52:02 3.8 C 5.14 g/m*3 3.8 C 0 km/h
3174 12-12-2010 11:04:03 4.1 C 5.18 g/m*3 4.1 C 0 km/h
3175 12-12-2010 11:16:02 4.1 C 5.12 g/m*3 4.1 C 0 km/h
Sensor: Nr:Datum:Temp:Abs-Feuchte:Windchill:Wind:
Aussen-T/F 3176 12-12-2010 11:28:02 4.3 C 5.12 g/m*3 4.3 C 0 km/h
3177 12-12-2010 11:40:02 4.1 C 5.12 g/m*3 4.1 C 0 km/h
3178 12-12-2010 11:52:02 4 C 5.15 g/m*3 4 C 0 km/h
3179 12-12-2010 12:04:02 4 C 5.21 g/m*3 4 C 0 km/h
3180 12-12-2010 12:16:01 4.3 C 5.38 g/m*3 4.3 C 0 km/h
3181 12-12-2010 12:28:01 4.6 C 5.43 g/m*3 4.6 C 0 km/h
3182 12-12-2010 12:40:02 4.7 C 5.33 g/m*3 4.7 C 0 km/h
3183 12-12-2010 12:52:02 4.9 C 5.33 g/m*3 4.9 C 0 km/h
3184 12-12-2010 13:04:02 4.7 C 5.2 g/m*3 4.7 C 0 km/h
3185 12-12-2010 13:16:01 5.1 C 5.2 g/m*3 5.1 C 0 km/h
3186 12-12-2010 13:28:01 4.6 C 5.1 g/m*3 4.6 C 0 km/h
3187 12-12-2010 13:40:02 4.8 C 5.23 g/m*3 4.8 C 0 km/h
3188 12-12-2010 13:52:02 4.9 C 5.13 g/m*3 4.9 C 0 km/h
3189 12-12-2010 14:04:02 4.5 C 5 g/m*3 4.5 C 0 km/h
3190 12-12-2010 14:16:01 3.6 C 4.89 g/m*3 3.6 C 0 km/h
3191 12-12-2010 14:28:01 3.1 C 4.85 g/m*3 3.1 C 0 km/h
3192 12-12-2010 14:40:02 2.9 C 4.96 g/m*3 2.9 C 0 km/h
3193 12-12-2010 14:52:02 3.2 C 5.06 g/m*3 3.2 C 0 km/h
3194 12-12-2010 15:04:02 3.2 C 5.12 g/m*3 3.2 C 0 km/h
3195 12-12-2010 15:16:02 3.2 C 5.18 g/m*3 3.2 C 0 km/h
3196 12-12-2010 15:28:02 3.1 C 5.21 g/m*3 3.1 C 0 km/h
3197 12-12-2010 15:40:02 3.1 C 5.27 g/m*3 3.1 C 0 km/h
3198 12-12-2010 15:52:02 2.9 C 5.26 g/m*3 2.9 C 0 km/h
3199 12-12-2010 16:04:02 2.7 C 5.13 g/m*3 2.7 C 0 km/h
3200 12-12-2010 16:16:02 2.7 C 5.13 g/m*3 2.7 C 0 km/h
Sensor: Nr:Datum:Temp:Abs-Feuchte:Windchill:Wind:
Aussen-T/F 3201 12-12-2010 16:28:03 2.6 C 5.09 g/m*3 2.6 C 0 km/h
3202 12-12-2010 16:40:01 2.7 C 5.13 g/m*3 2.7 C 0 km/h
3203 12-12-2010 16:52:02 2.8 C 5.1 g/m*3 2.8 C 0 km/h
3204 12-12-2010 17:04:01 2.8 C 4.99 g/m*3 2.8 C 0 km/h
3205 12-12-2010 17:16:01 2.7 C 4.78 g/m*3 2.7 C 0 km/h
3206 12-12-2010 17:28:01 2.4 C 4.51 g/m*3 2.4 C 0 km/h
3207 12-12-2010 17:40:02 2.3 C 4.42 g/m*3 2.3 C 0 km/h
3208 12-12-2010 17:52:02 2.2 C 4.39 g/m*3 2.2 C 0 km/h
3209 12-12-2010 18:04:02 2.1 C 4.36 g/m*3 2.1 C 0 km/h
3210 12-12-2010 18:16:02 2 C 4.28 g/m*3 2 C 0 km/h
3211 12-12-2010 18:28:02 1.8 C 4.22 g/m*3 1.8 C 0 km/h
3212 12-12-2010 18:40:02 1.7 C 3.97 g/m*3 1.7 C 0 km/h
3213 12-12-2010 18:52:01 1.7 C 3.92 g/m*3 1.7 C 0 km/h
3214 12-12-2010 19:04:02 1.6 C 3.95 g/m*3 1.6 C 0 km/h
3215 12-12-2010 19:16:01 1.4 C 3.95 g/m*3 1.4 C 0 km/h
3216 12-12-2010 19:28:01 1.4 C 3.95 g/m*3 1.4 C 0 km/h
3217 12-12-2010 19:40:01 1.3 C 3.87 g/m*3 1.3 C 0 km/h
3218 12-12-2010 19:52:01 1.2 C 3.84 g/m*3 1.2 C 0 km/h
3219 12-12-2010 20:04:01 1.4 C 3.57 g/m*3 1.4 C 0 km/h
3220 12-12-2010 20:16:02 1.4 C 3.52 g/m*3 1.4 C 0 km/h
3221 12-12-2010 20:28:02 1.1 C 3.5 g/m*3 1.1 C 0 km/h
3222 12-12-2010 20:40:01 1 C 3.63 g/m*3 1 C 0 km/h
3223 12-12-2010 20:52:02 1 C 3.58 g/m*3 1 C 0 km/h
3224 12-12-2010 21:04:02 0.9 C 3.56 g/m*3 0.9 C 0 km/h
3225 12-12-2010 21:16:02 0.8 C 3.43 g/m*3 0.8 C 0 km/h
Sensor: Nr:Datum:Temp:Abs-Feuchte:Windchill:Wind:
Aussen-T/F 3226 12-12-2010 21:28:02 0.8 C 3.38 g/m*3 0.8 C 0 km/h
3227 12-12-2010 21:40:02 0.7 C 3.2 g/m*3 0.7 C 0 km/h
3228 12-12-2010 21:52:02 0.6 C 3.18 g/m*3 0.6 C 0 km/h
3229 12-12-2010 22:04:02 0.5 C 3.21 g/m*3 0.5 C 0 km/h
3230 12-12-2010 22:16:02 0.5 C 3.16 g/m*3 0.5 C 0 km/h
3231 12-12-2010 22:28:02 0.4 C 3.19 g/m*3 0.4 C 0 km/h
3232 12-12-2010 22:40:02 0.3 C 3.22 g/m*3 0.3 C 0 km/h
3233 12-12-2010 22:53:03 0.3 C 3.12 g/m*3 0.3 C 0 km/h
3234 12-12-2010 23:05:03 0.1 C 2.78 g/m*3 0.1 C 0 km/h
3235 12-12-2010 23:17:03 0.1 C 2.78 g/m*3 0.1 C 0 km/h
3236 12-12-2010 23:29:03 0 C 2.71 g/m*3 0 C 0 km/h
3237 12-12-2010 23:41:03 -0.2 C 2.72 g/m*3 -0.2 C 0 km/h
3238 12-12-2010 23:53:04 -0.2 C 2.68 g/m*3 -0.2 C 0 km/h
3239 13-12-2010 00:05:04 -0.4 C 2.59 g/m*3 -0.4 C 0 km/h
3240 13-12-2010 00:17:04 -0.4 C 2.59 g/m*3 -0.4 C 0 km/h
3241 13-12-2010 00:29:04 -0.5 C 2.53 g/m*3 -0.5 C 0 km/h
3242 13-12-2010 00:41:04 -0.6 C 2.37 g/m*3 -0.6 C 0 km/h
3243 13-12-2010 00:53:04 -0.7 C 2.4 g/m*3 -0.7 C 0 km/h
3244 13-12-2010 01:05:04 -0.7 C 2.35 g/m*3 -0.7 C 0 km/h
3245 13-12-2010 01:17:04